ftp/pub/palmer/observations_modified/2019/May/original_files/AR190515_BASE.txt

Download

Sample DateTime	Unit Id	WS Avg 2min	WD Avg 2min	WGS 10min	WGD 10min	Air Temp	Rel Humidity	Dew Point	Pyranometer	Quantum	Air Pressure	Snow Level	Rainfall	PW Current	Visibility	CBase 1	CBase 2	CBase 3	Vert Vis
2019/05/15 00:00:02	BASE	8.59	231	10.75	228	-3.4	82	-6.0	0	0	981.5	NA	0.0000		9999	2260	0	0	0
2019/05/15 00:01:02	BASE	7.46	235	10.75	228	-3.4	82	-6.0	0	0	981.5	NA	0.0000		9999	2230	0	0	0
2019/05/15 00:02:01	BASE	7.59	239	10.60	232	-3.4	82	-6.0	0	0	981.5	NA	0.0000		9999	2230	0	0	0
2019/05/15 00:03:01	BASE	8.52	247	10.60	232	-3.3	82	-6.0	0	0	981.5	NA	0.0000		9999	2260	0	0	0
2019/05/15 00:04:02	BASE	8.54	243	10.60	232	-3.3	82	-6.0	0	0	981.5	NA	0.0000		9999	2230	0	0	0
2019/05/15 00:05:02	BASE	8.44	238	10.91	224	-3.4	82	-6.0	0	0	981.5	NA	0.0000		9999	2170	0	0	0
2019/05/15 00:06:02	BASE	9.27	235	10.91	224	-3.4	82	-5.9	0	0	981.5	NA	0.0000		9999	2400	0	0	0
2019/05/15 00:07:01	BASE	9.26	234	10.91	224	-3.4	83	-5.9	0	0	981.5	NA	0.0000		9999	2590	0	0	0
2019/05/15 00:08:01	BASE	8.69	239	10.91	224	-3.3	83	-5.8	0	0	981.5	NA	0.0000		9999	2260	0	0	0
2019/05/15 00:09:02	BASE	9.03	243	12.04	227	-3.3	83	-5.8	0	0	981.5	NA	0.0000		9999	2260	0	0	0
2019/05/15 00:10:02	BASE	9.62	234	12.04	227	-3.3	83	-5.9	0	0	981.5	NA	0.0000		9999	2200	0	0	0
2019/05/15 00:11:01	BASE	9.73	231	12.04	227	-3.3	82	-5.9	0	0	981.5	NA	0.0000		9999	2230	0	0	0
2019/05/15 00:12:02	BASE	9.36	236	12.04	234	-3.4	82	-6.0	0	0	981.6	NA	0.0000		9999	2400	0	0	0
2019/05/15 00:13:01	BASE	9.22	234	12.04	234	-3.4	82	-6.0	0	0	981.6	NA	0.0000		9999	2400	0	0	0
2019/05/15 00:14:01	BASE	9.55	229	12.04	234	-3.3	82	-6.0	0	0	981.6	NA	0.0000		9999	2430	0	0	0
2019/05/15 00:15:01	BASE	9.20	227	12.04	234	-3.3	82	-6.0	0	0	981.6	NA	0.0000		9999	2300	0	0	0
2019/05/15 00:16:01	BASE	9.24	226	12.71	212	-3.3	82	-6.0	0	0	981.6	NA	0.0000		9999	2360	0	0	0
2019/05/15 00:17:01	BASE	10.70	227	13.48	238	-3.3	82	-5.9	0	0	981.6	NA	0.0000		9999	2260	0	0	0
2019/05/15 00:18:01	BASE	11.70	229	13.58	233	-3.3	82	-5.9	0	0	981.6	NA	0.0000		9999	2170	0	0	0
2019/05/15 00:19:02	BASE	11.80	230	13.58	233	-3.3	82	-5.9	0	0	981.7	NA	0.0000		9999	2230	0	0	0
2019/05/15 00:20:01	BASE	11.20	232	13.58	233	-3.3	82	-5.9	0	0	981.7	NA	0.0000		9999	2260	0	0	0
2019/05/15 00:21:01	BASE	10.73	232	13.58	233	-3.3	82	-5.9	0	0	981.7	NA	0.0000		9999	2300	0	0	0
2019/05/15 00:22:01	BASE	10.72	232	13.58	233	-3.3	82	-6.0	0	0	981.7	NA	0.0000		9999	2170	0	0	0
2019/05/15 00:23:01	BASE	11.17	233	13.58	233	-3.3	82	-6.0	0	0	981.7	NA	0.0000		9999	2300	0	0	0
2019/05/15 00:24:01	BASE	11.45	230	13.58	233	-3.4	82	-6.0	0	0	981.7	NA	0.0000		9999	2330	0	0	0
2019/05/15 00:25:01	BASE	10.32	226	13.58	233	-3.4	82	-6.1	0	0	981.7	NA	0.0000		9999	2300	0	0	0
2019/05/15 00:26:01	BASE	8.83	231	13.58	233	-3.4	82	-6.1	0	0	981.7	NA	0.0000		9999	2300	0	0	0
2019/05/15 00:27:01	BASE	8.64	232	13.58	233	-3.4	81	-6.1	0	0	981.7	NA	0.0000		9999	2530	0	0	0
2019/05/15 00:28:01	BASE	8.03	232	12.66	231	-3.4	81	-6.2	0	0	981.8	NA	0.0000		9999	2560	0	0	0
2019/05/15 00:29:02	BASE	7.94	233	12.60	236	-3.4	81	-6.2	0	0	981.8	NA	0.0000		9999	2590	0	0	0
2019/05/15 00:30:02	BASE	8.25	231	12.60	236	-3.4	81	-6.2	0	0	981.8	NA	0.0000		9999	2590	0	0	0
2019/05/15 00:31:01	BASE	8.40	234	12.60	236	-3.5	81	-6.2	0	0	981.8	NA	0.0000		9999	2560	0	0	0
2019/05/15 00:32:01	BASE	9.60	233	12.60	236	-3.4	81	-6.2	0	0	981.8	NA	0.0000		9999	2300	0	0	0
2019/05/15 00:33:02	BASE	9.84	236	12.04	233	-3.4	81	-6.2	0	0	981.9	NA	0.0000		9999	2330	0	0	0
2019/05/15 00:34:01	BASE	10.19	238	12.81	223	-3.4	81	-6.2	0	0	981.9	NA	0.0000		9999	2300	0	0	0
2019/05/15 00:35:02	BASE	10.14	235	12.81	223	-3.4	81	-6.2	0	0	982.0	NA	0.0000		9999	2360	0	0	0
2019/05/15 00:36:01	BASE	9.69	234	12.81	223	-3.4	81	-6.2	0	0	982.0	NA	0.0000		9999	2400	0	0	0
2019/05/15 00:37:00	BASE	9.49	236	12.81	223	-3.4	81	-6.2	0	0	982.0	NA	0.0000		9999	2530	0	0	0
2019/05/15 00:38:01	BASE	9.61	238	12.81	223	-3.5	81	-6.3	0	0	982.0	NA	0.0000		9999	2460	0	0	0
2019/05/15 00:39:02	BASE	9.69	235	12.81	223	-3.5	81	-6.3	0	0	982.0	NA	0.0000		9999	2430	0	0	0
2019/05/15 00:40:01	BASE	8.92	230	12.81	223	-3.5	81	-6.3	0	0	982.0	NA	0.0000		9999	2460	0	0	0
2019/05/15 00:41:01	BASE	7.94	235	12.81	223	-3.5	81	-6.3	0	0	982.0	NA	0.0000		9999	2230	0	0	0
2019/05/15 00:42:01	BASE	7.52	238	12.81	223	-3.5	81	-6.3	0	0	982.0	NA	0.0000		9999	2170	0	0	0
2019/05/15 00:43:01	BASE	9.43	238	12.81	223	-3.5	81	-6.2	0	0	982.0	NA	0.0000		9999	2130	0	0	0
2019/05/15 00:44:01	BASE	10.89	241	12.35	234	-3.5	81	-6.2	0	0	982.0	NA	0.0000		9999	2200	0	0	0
2019/05/15 00:45:01	BASE	10.57	243	12.35	234	-3.5	81	-6.2	0	0	982.1	NA	0.0000		9999	2590	0	0	0
2019/05/15 00:46:00	BASE	10.02	237	12.35	234	-3.5	82	-6.2	0	0	982.1	NA	0.0000		9999	2490	0	0	0
2019/05/15 00:47:01	BASE	9.67	232	12.35	234	-3.5	82	-6.2	0	0	982.1	NA	0.0000		9999	2490	0	0	0
2019/05/15 00:48:01	BASE	9.36	230	12.35	234	-3.5	82	-6.2	0	0	982.1	NA	0.0000		9999	2560	0	0	0
2019/05/15 00:49:01	BASE	8.48	227	12.35	234	-3.6	82	-6.2	0	0	982.1	NA	0.0000		9999	0	0	0	0
2019/05/15 00:50:00	BASE	8.29	224	12.35	234	-3.6	82	-6.3	0	0	982.1	NA	0.0000		9999	2360	0	0	0
2019/05/15 00:51:01	BASE	9.47	225	12.35	234	-3.6	81	-6.3	0	0	982.1	NA	0.0000		9999	2400	0	0	0
2019/05/15 00:52:01	BASE	10.45	229	12.40	238	-3.6	81	-6.4	0	0	982.1	NA	0.0000		9999	2360	0	0	0
2019/05/15 00:53:02	BASE	10.02	229	12.40	238	-3.6	81	-6.4	0	0	982.1	NA	0.0000		9999	2360	0	0	0
2019/05/15 00:54:02	BASE	8.67	235	12.40	238	-3.6	81	-6.4	0	0	982.2	NA	0.0000		9999	0	0	0	0
2019/05/15 00:55:01	BASE	7.17	245	12.40	238	-3.6	80	-6.4	0	0	982.2	NA	0.0000		9999	0	0	0	0
2019/05/15 00:56:00	BASE	6.72	252	12.40	238	-3.5	80	-6.5	0	0	982.1	NA	0.0000		9999	0	0	0	0
2019/05/15 00:57:01	BASE	6.78	251	12.40	238	-3.5	80	-6.5	0	0	982.2	NA	0.0000		9999	2230	0	0	0
2019/05/15 00:58:01	BASE	8.26	245	12.40	238	-3.5	80	-6.4	0	0	982.2	NA	0.0000		9999	2200	0	0	0
2019/05/15 00:59:01	BASE	9.59	241	12.40	238	-3.5	81	-6.4	0	0	982.2	NA	0.0000		9999	2260	0	0	0
2019/05/15 01:00:01	BASE	9.32	239	12.40	238	-3.5	81	-6.4	0	0	982.3	NA	0.0000		9999	2170	0	0	0
2019/05/15 01:01:01	BASE	7.70	237	12.40	238	-3.5	81	-6.3	0	0	982.3	NA	0.0000		9999	2590	0	0	0
2019/05/15 01:02:02	BASE	6.64	237	11.11	229	-3.5	81	-6.3	0	0	982.3	NA	0.0000		9999	0	0	0	0
2019/05/15 01:03:01	BASE	7.92	236	11.11	229	-3.5	81	-6.3	0	0	982.3	NA	0.0000		9999	2430	0	0	0
2019/05/15 01:04:01	BASE	7.95	237	11.11	229	-3.5	81	-6.3	0	0	982.3	NA	0.0000		9999	0	0	0	0
2019/05/15 01:05:02	BASE	7.29	236	11.11	229	-3.5	81	-6.3	0	0	982.3	NA	0.0000		9999	2400	0	0	0
2019/05/15 01:06:01	BASE	7.44	234	11.11	229	-3.5	81	-6.3	0	0	982.3	NA	0.0000		9999	2330	0	0	0
2019/05/15 01:07:02	BASE	7.81	239	11.11	229	-3.5	81	-6.3	0	0	982.4	NA	0.0000		9999	2300	0	0	0
2019/05/15 01:08:02	BASE	7.99	247	10.80	236	-3.5	81	-6.3	0	0	982.4	NA	0.0000		9999	2260	0	0	0
2019/05/15 01:09:02	BASE	7.52	254	10.80	236	-3.5	81	-6.3	0	0	982.4	NA	0.0000		9999	2260	0	0	0
2019/05/15 01:10:02	BASE	7.71	255	10.19	236	-3.5	81	-6.3	0	0	982.4	NA	0.0000		9999	2230	0	0	0
2019/05/15 01:11:01	BASE	8.28	251	10.19	236	-3.5	81	-6.3	0	0	982.4	NA	0.0000		9999	2230	0	0	0
2019/05/15 01:12:02	BASE	8.31	250	10.19	236	-3.5	81	-6.3	0	0	982.4	NA	0.0000		9999	2300	0	0	0
2019/05/15 01:13:01	BASE	7.85	249	10.19	236	-3.5	81	-6.3	0	0	982.4	NA	0.0000		9999	2170	0	0	0
2019/05/15 01:14:01	BASE	7.91	244	10.19	236	-3.5	81	-6.3	0	0	982.4	NA	0.0000		9999	2170	0	0	0
2019/05/15 01:15:02	BASE	9.16	231	11.42	226	-3.5	81	-6.2	0	0	982.4	NA	0.0000		9999	2130	0	0	0
2019/05/15 01:16:01	BASE	10.31	222	12.81	215	-3.5	81	-6.2	0	0	982.4	NA	0.0000		9999	2170	0	0	0
2019/05/15 01:17:01	BASE	11.43	225	13.07	230	-3.4	82	-6.1	0	0	982.4	NA	0.0000		9999	2200	0	0	0
2019/05/15 01:18:02	BASE	11.75	228	13.07	230	-3.4	82	-6.1	0	0	982.4	NA	0.0000		9999	2330	0	0	0
2019/05/15 01:19:01	BASE	11.27	231	13.07	230	-3.4	82	-6.1	0	0	982.4	NA	0.0000		9999	2360	0	0	0
2019/05/15 01:20:02	BASE	10.19	238	13.07	230	-3.4	82	-6.1	0	0	982.5	NA	0.0000		9999	2260	0	0	0
2019/05/15 01:21:02	BASE	8.65	240	13.07	230	-3.5	82	-6.1	0	0	982.6	NA	0.0000		9999	2360	0	0	0
2019/05/15 01:22:02	BASE	7.56	236	13.07	230	-3.5	81	-6.2	0	0	982.6	NA	0.0000		9999	2300	0	0	0
2019/05/15 01:23:01	BASE	7.09	241	13.07	230	-3.5	81	-6.2	0	0	982.5	NA	0.0000		9999	2300	0	0	0
2019/05/15 01:24:02	BASE	7.57	241	13.07	230	-3.5	81	-6.3	0	0	982.5	NA	0.0000		9999	2300	0	0	0
2019/05/15 01:25:02	BASE	8.28	234	13.07	230	-3.5	81	-6.3	0	0	982.6	NA	0.0000		9999	2260	0	0	0
2019/05/15 01:26:03	BASE	8.08	232	13.07	230	-3.5	81	-6.3	0	0	982.6	NA	0.0000		9999	2200	0	0	0
2019/05/15 01:27:01	BASE	9.36	232	13.53	237	-3.5	81	-6.2	0	0	982.5	NA	0.0000		9999	2100	0	0	0
2019/05/15 01:28:01	BASE	10.71	236	13.53	237	-3.4	81	-6.2	0	0	982.6	NA	0.0000		9999	2100	0	0	0
2019/05/15 01:29:01	BASE	10.17	238	13.53	237	-3.4	82	-6.1	0	0	982.6	NA	0.0000		9999	2230	0	0	0
2019/05/15 01:30:01	BASE	9.49	241	13.53	237	-3.4	82	-6.1	0	0	982.6	NA	0.0000		9999	2200	0	0	0
2019/05/15 01:31:01	BASE	9.16	251	13.53	237	-3.4	82	-6.1	0	0	982.7	NA	0.0000		9999	2230	0	0	0
2019/05/15 01:32:01	BASE	9.16	257	13.53	237	-3.5	82	-6.1	0	0	982.7	NA	0.0000		9999	2230	0	0	0
2019/05/15 01:33:02	BASE	8.54	260	13.53	237	-3.5	82	-6.1	0	0	982.7	NA	0.0000		9999	2230	0	0	0
2019/05/15 01:34:02	BASE	7.87	258	13.53	237	-3.5	82	-6.1	0	0	982.7	NA	0.0000		9999	2200	0	0	0
2019/05/15 01:35:02	BASE	7.85	250	13.53	237	-3.5	82	-6.1	0	0	982.8	NA	0.0000		9999	2260	0	0	0
2019/05/15 01:36:01	BASE	8.77	245	13.53	237	-3.5	82	-6.1	0	0	982.7	NA	0.0000		9999	2430	0	0	0
2019/05/15 01:37:02	BASE	8.64	238	12.14	238	-3.5	82	-6.2	0	0	982.8	NA	0.0000		9999	2430	0	0	0
2019/05/15 01:38:02	BASE	7.81	229	12.14	238	-3.5	82	-6.2	0	0	982.8	NA	0.0000		9999	2620	0	0	0
2019/05/15 01:39:01	BASE	7.87	230	11.01	256	-3.5	81	-6.3	0	0	982.8	NA	0.0000		9999	2300	0	0	0
2019/05/15 01:40:01	BASE	8.21	243	11.01	256	-3.5	81	-6.3	0	0	982.8	NA	0.0000		9999	2490	0	0	0
2019/05/15 01:41:01	BASE	8.93	251	10.29	251	-3.5	81	-6.3	0	0	982.8	NA	0.0000		9999	2200	0	0	0
2019/05/15 01:42:02	BASE	9.07	253	10.29	251	-3.5	81	-6.3	0	0	982.8	NA	0.0000		9999	2400	0	0	0
2019/05/15 01:43:02	BASE	9.15	257	11.11	260	-3.5	81	-6.3	0	0	982.8	NA	0.0000		9999	2200	3150	0	0
2019/05/15 01:44:02	BASE	9.43	253	11.11	260	-3.6	81	-6.4	0	0	982.9	NA	0.0000		9999	2200	0	0	0
2019/05/15 01:45:01	BASE	8.74	248	11.11	260	-3.6	81	-6.4	0	0	982.9	NA	0.0000		9999	2300	0	0	0
2019/05/15 01:46:00	BASE	8.93	238	12.40	229	-3.6	81	-6.4	0	0	982.8	NA	0.0000		9999	2300	0	0	0
2019/05/15 01:47:01	BASE	10.35	235	12.40	229	-3.5	81	-6.3	0	0	982.8	NA	0.0000		9999	2200	0	0	0
2019/05/15 01:48:02	BASE	11.52	241	13.12	236	-3.5	81	-6.3	0	0	982.8	NA	0.0000		9999	2230	0	0	0
2019/05/15 01:49:01	BASE	11.52	242	13.12	236	-3.5	81	-6.3	0	0	982.9	NA	0.0000		9999	2260	0	0	0
2019/05/15 01:50:02	BASE	10.25	242	13.12	236	-3.5	81	-6.3	0	0	982.9	NA	0.0000		9999	2330	0	0	0
2019/05/15 01:51:01	BASE	8.99	240	13.12	236	-3.5	81	-6.3	0	0	982.9	NA	0.0000		9999	2360	0	0	0
2019/05/15 01:52:00	BASE	9.03	235	13.12	236	-3.5	81	-6.3	0	0	982.9	NA	0.0000		9999	2330	0	0	0
2019/05/15 01:53:02	BASE	10.49	226	13.12	236	-3.6	81	-6.3	0	0	982.9	NA	0.0000		9999	2230	0	0	0
2019/05/15 01:54:01	BASE	11.02	217	13.12	236	-3.6	81	-6.4	0	0	982.9	NA	0.0000		9999	2330	0	0	0
2019/05/15 01:55:02	BASE	10.07	218	13.12	236	-3.6	81	-6.4	0	0	982.9	NA	0.0000		9999	2230	0	0	0
2019/05/15 01:56:01	BASE	8.62	233	13.12	236	-3.6	81	-6.4	0	0	982.9	NA	0.0000		9999	2230	0	0	0
2019/05/15 01:57:01	BASE	7.71	245	13.12	236	-3.6	81	-6.4	0	0	982.9	NA	0.0000		9999	2230	0	0	0
2019/05/15 01:58:01	BASE	7.91	247	12.91	216	-3.6	81	-6.4	0	0	982.9	NA	0.0000		9999	2200	0	0	0
2019/05/15 01:59:01	BASE	8.53	242	12.91	216	-3.6	81	-6.4	0	0	982.9	NA	0.0000		9999	2200	0	0	0
2019/05/15 02:00:01	BASE	9.69	233	12.91	216	-3.5	81	-6.3	0	0	982.9	NA	0.0000		9999	2200	0	0	0
2019/05/15 02:01:02	BASE	10.11	232	12.91	216	-3.6	81	-6.3	0	0	982.9	NA	0.0000		9999	2300	0	0	0
2019/05/15 02:02:01	BASE	10.07	227	12.91	216	-3.6	81	-6.4	0	0	983.0	NA	0.0000		9999	2170	0	0	0
2019/05/15 02:03:02	BASE	10.39	223	12.24	212	-3.6	81	-6.4	0	0	983.0	NA	0.0000		9999	2260	0	0	0
2019/05/15 02:04:01	BASE	10.91	225	12.04	219	-3.6	81	-6.3	0	0	982.9	NA	0.0000		9999	2230	0	0	0
2019/05/15 02:05:02	BASE	11.03	222	12.04	219	-3.6	81	-6.3	0	0	983.0	NA	0.0000		9999	2200	0	0	0
2019/05/15 02:06:01	BASE	9.16	220	12.04	219	-3.6	81	-6.3	0	0	983.1	NA	0.0000		9999	2100	0	0	0
2019/05/15 02:07:01	BASE	7.92	219	12.04	219	-3.6	81	-6.3	0	0	983.1	NA	0.0000		9999	2230	0	0	0
2019/05/15 02:08:01	BASE	7.96	217	12.04	219	-3.6	81	-6.4	0	0	983.1	NA	0.0000		9999	2230	0	0	0
2019/05/15 02:09:02	BASE	6.87	217	12.04	219	-3.6	81	-6.4	0	0	983.1	NA	0.0000		9999	2170	0	0	0
2019/05/15 02:10:01	BASE	6.43	224	12.04	219	-3.6	81	-6.4	0	0	983.1	NA	0.0000		9999	2200	0	0	0
2019/05/15 02:11:01	BASE	8.04	225	12.04	219	-3.6	81	-6.4	0	0	983.1	NA	0.0000		9999	2170	0	0	0
2019/05/15 02:12:02	BASE	9.66	218	12.04	219	-3.6	81	-6.4	0	0	983.1	NA	0.0000		9999	2130	0	0	0
2019/05/15 02:13:02	BASE	10.15	218	12.35	226	-3.6	81	-6.3	0	0	983.1	NA	0.0000		9999	2200	0	0	0
2019/05/15 02:14:01	BASE	10.57	219	12.35	226	-3.6	81	-6.3	0	0	983.1	NA	0.0000		9999	2170	0	0	0
2019/05/15 02:15:02	BASE	10.76	220	12.35	226	-3.6	81	-6.3	0	0	983.1	NA	0.0000		9999	2170	0	0	0
2019/05/15 02:16:02	BASE	10.71	219	12.35	226	-3.6	82	-6.3	0	0	983.1	NA	0.0000		9999	2000	0	0	0
2019/05/15 02:17:01	BASE	10.14	215	12.35	226	-3.6	81	-6.4	0	0	983.2	NA	0.0000		9999	2100	0	0	0
2019/05/15 02:18:01	BASE	9.11	212	12.35	226	-3.7	81	-6.4	0	0	983.2	NA	0.0000		9999	2130	0	0	0
2019/05/15 02:19:02	BASE	9.25	207	12.35	226	-3.7	81	-6.4	0	0	983.2	NA	0.0000		9999	2170	0	0	0
2019/05/15 02:20:02	BASE	10.46	211	13.99	221	-3.7	81	-6.5	0	0	983.2	NA	0.0000		9999	2200	0	0	0
2019/05/15 02:21:01	BASE	11.58	219	13.99	221	-3.7	81	-6.5	0	0	983.2	NA	0.0000		9999	2200	0	0	0
2019/05/15 02:22:01	BASE	13.06	223	15.38	225	-3.7	81	-6.5	0	0	983.1	NA	0.0000		9999	2170	0	0	0
2019/05/15 02:23:01	BASE	14.20	225	15.48	226	-3.7	81	-6.5	0	0	983.1	NA	0.0000		9999	2170	0	0	0
2019/05/15 02:24:02	BASE	13.57	225	15.48	226	-3.7	81	-6.5	0	0	983.2	NA	0.0000		9999	2100	0	0	0
2019/05/15 02:25:01	BASE	12.60	225	15.48	226	-3.7	81	-6.5	0	0	983.2	NA	0.0000		9999	2200	0	0	0
2019/05/15 02:26:02	BASE	11.60	227	15.48	226	-3.7	81	-6.5	0	0	983.2	NA	0.0000		9999	2260	3080	0	0
2019/05/15 02:27:01	BASE	11.60	226	15.48	226	-3.7	81	-6.5	0	0	983.2	NA	0.0000		9999	2400	0	0	0
2019/05/15 02:28:01	BASE	11.06	230	15.48	226	-3.7	81	-6.5	0	0	983.3	NA	0.0000		9999	2170	0	0	0
2019/05/15 02:29:02	BASE	8.67	235	15.48	226	-3.8	81	-6.5	0	0	983.4	NA	0.0000		9999	2760	0	0	0
2019/05/15 02:30:02	BASE	7.93	231	15.48	226	-3.8	81	-6.6	0	0	983.4	NA	0.0000		9999	2360	0	0	0
2019/05/15 02:31:01	BASE	8.89	224	15.48	226	-3.8	81	-6.6	0	0	983.4	NA	0.0000		9999	2460	0	0	0
2019/05/15 02:32:01	BASE	9.74	221	15.48	226	-3.8	81	-6.6	0	0	983.3	NA	0.0000		9999	2330	0	0	0
2019/05/15 02:33:02	BASE	10.52	222	14.30	221	-3.8	81	-6.6	0	0	983.4	NA	0.0000		9999	2400	0	0	0
2019/05/15 02:34:02	BASE	9.83	230	14.30	221	-3.8	81	-6.6	0	0	983.4	NA	0.0000		9999	2560	0	0	0
2019/05/15 02:35:04	BASE	8.44	235	14.30	221	-3.8	80	-6.7	0	0	983.4	NA	0.0000		9999	2400	0	0	0
2019/05/15 02:36:01	BASE	7.77	233	14.30	221	-3.8	80	-6.7	0	0	983.4	NA	0.0000		9999	2430	0	0	0
2019/05/15 02:37:01	BASE	8.02	238	12.35	219	-3.8	80	-6.8	0	0	983.4	NA	0.0000		9999	2430	0	0	0
2019/05/15 02:38:01	BASE	8.03	244	12.35	219	-3.8	80	-6.8	0	0	983.4	NA	0.0000		9999	2430	0	0	0
2019/05/15 02:39:01	BASE	7.42	245	12.35	219	-3.8	79	-6.9	0	0	983.5	NA	0.0000		9999	2430	0	0	0
2019/05/15 02:40:02	BASE	7.77	243	12.35	219	-3.8	79	-7.0	0	0	983.5	NA	0.0000		9999	2490	0	0	0
2019/05/15 02:41:02	BASE	11.21	233	16.31	225	-3.8	79	-6.9	0	0	983.4	NA	0.0000		9999	2430	0	0	0
2019/05/15 02:42:00	BASE	13.81	225	16.31	225	-3.7	79	-6.9	0	0	983.4	NA	0.0000		9999	2460	0	0	0
2019/05/15 02:43:02	BASE	13.30	226	16.31	225	-3.7	79	-6.9	0	0	983.4	NA	0.0000		9999	2430	0	0	0
2019/05/15 02:44:01	BASE	12.43	228	16.31	225	-3.7	79	-6.8	0	0	983.5	NA	0.0000		9999	2530	0	0	0
2019/05/15 02:45:01	BASE	9.81	233	16.31	225	-3.7	79	-6.9	0	0	983.5	NA	0.0000		9999	2490	0	0	0
2019/05/15 02:46:02	BASE	8.40	233	16.31	225	-3.7	79	-6.9	0	0	983.5	NA	0.0000		9999	2560	0	0	0
2019/05/15 02:47:01	BASE	8.32	237	16.31	225	-3.8	78	-7.0	0	0	983.5	NA	0.0000		9999	2430	0	0	0
2019/05/15 02:48:01	BASE	7.72	241	16.31	225	-3.8	78	-7.0	0	0	983.5	NA	0.0000		9999	2530	0	0	0
2019/05/15 02:49:01	BASE	7.31	238	16.31	225	-3.8	78	-7.1	0	0	983.5	NA	0.0000		9999	2590	0	0	0
2019/05/15 02:50:02	BASE	8.07	239	16.31	225	-3.8	78	-7.1	0	0	983.5	NA	0.0000		9999	2490	0	0	0
2019/05/15 02:51:01	BASE	9.06	239	15.84	230	-3.8	77	-7.2	0	0	983.5	NA	0.0000		9999	2430	0	0	0
2019/05/15 02:52:02	BASE	8.64	238	15.84	230	-3.8	77	-7.2	0	0	983.5	NA	0.0000		9999	2430	0	0	0
2019/05/15 02:53:02	BASE	8.24	242	12.96	229	-3.8	77	-7.2	0	0	983.5	NA	0.0000		9999	2330	0	0	0
2019/05/15 02:54:02	BASE	7.87	246	10.55	241	-3.8	77	-7.2	0	0	983.5	NA	0.0000		9999	2400	0	0	0
2019/05/15 02:55:02	BASE	8.02	236	10.55	241	-3.8	77	-7.2	0	0	983.5	NA	0.0000		9999	2430	0	0	0
2019/05/15 02:56:02	BASE	8.62	224	10.55	241	-3.8	77	-7.2	0	0	983.5	NA	0.0000		9999	2400	0	0	0
2019/05/15 02:57:01	BASE	9.30	218	10.91	221	-3.7	77	-7.1	0	0	983.5	NA	0.0000		9999	2430	0	0	0
2019/05/15 02:58:00	BASE	10.74	217	12.45	219	-3.7	78	-7.1	0	0	983.5	NA	0.0000		9999	2430	0	0	0
2019/05/15 02:59:00	BASE	11.94	219	13.63	217	-3.7	78	-7.0	0	0	983.5	NA	0.0000		9999	2430	0	0	0
2019/05/15 03:00:01	BASE	11.59	221	13.63	217	-3.7	78	-6.9	0	0	983.5	NA	0.0000		9999	2430	0	0	0
2019/05/15 03:01:01	BASE	10.19	221	13.63	217	-3.7	78	-6.9	0	0	983.5	NA	0.0000		9999	2430	0	0	0
2019/05/15 03:02:02	BASE	10.74	225	13.63	217	-3.7	78	-6.9	0	0	983.5	NA	0.0000		9999	2360	0	0	0
2019/05/15 03:03:02	BASE	11.09	225	13.63	217	-3.7	78	-6.9	0	0	983.5	NA	0.0000		9999	2460	0	0	0
2019/05/15 03:04:01	BASE	11.08	227	13.63	217	-3.7	78	-6.9	0	0	983.5	NA	0.0000		9999	2590	0	0	0
2019/05/15 03:05:03	BASE	11.39	229	13.63	217	-3.7	78	-7.0	0	0	983.6	NA	0.0000		9999	2720	0	0	0
2019/05/15 03:06:01	BASE	10.91	228	13.63	217	-3.7	78	-7.0	0	0	983.7	NA	0.0000		9999	2530	0	0	0
2019/05/15 03:07:01	BASE	10.07	231	13.63	217	-3.7	78	-7.0	0	0	983.7	NA	0.0000		9999	2330	0	0	0
2019/05/15 03:08:01	BASE	7.86	238	13.63	217	-3.7	78	-7.1	0	0	983.7	NA	0.0000		9999	2360	0	0	0
2019/05/15 03:09:01	BASE	5.01	237	13.58	226	-3.8	77	-7.2	0	0	983.7	NA	0.0000		9999	2400	0	0	0
2019/05/15 03:10:02	BASE	3.30	233	13.58	226	-3.8	77	-7.3	0	0	983.7	NA	0.0000		9999	2360	0	0	0
2019/05/15 03:11:01	BASE	3.33	238	13.58	226	-3.8	76	-7.3	0	0	983.7	NA	0.0000		9999	2330	0	0	0
2019/05/15 03:12:01	BASE	4.11	243	12.81	231	-3.8	76	-7.4	0	0	983.7	NA	0.0000		9999	2300	0	0	0
2019/05/15 03:13:01	BASE	5.00	246	12.81	231	-3.8	76	-7.3	0	0	983.7	NA	0.0000		9999	2260	0	0	0
2019/05/15 03:14:01	BASE	6.22	251	12.24	228	-3.8	76	-7.3	0	0	983.7	NA	0.0000		9999	2400	0	0	0
2019/05/15 03:15:01	BASE	6.62	252	11.73	230	-3.7	77	-7.2	0	0	983.7	NA	0.0000		9999	2360	0	0	0
2019/05/15 03:16:01	BASE	6.36	251	10.24	233	-3.7	77	-7.2	0	0	983.7	NA	0.0000		9999	2560	0	0	0
2019/05/15 03:17:01	BASE	6.62	253	8.54	246	-3.7	77	-7.1	0	0	983.8	NA	0.0000		9999	2590	0	0	0
2019/05/15 03:18:01	BASE	7.63	244	10.24	227	-3.7	77	-7.1	0	0	983.7	NA	0.0000		9999	2530	0	0	0
2019/05/15 03:19:01	BASE	9.92	226	12.60	219	-3.7	77	-7.1	0	0	983.7	NA	0.0000		9999	2530	0	0	0
2019/05/15 03:20:01	BASE	10.29	216	12.60	219	-3.7	78	-7.0	0	0	983.8	NA	0.0000		9999	2530	0	0	0
2019/05/15 03:21:00	BASE	8.67	219	12.60	219	-3.7	78	-7.0	0	0	983.9	NA	0.0000		9999	2430	0	0	0
2019/05/15 03:22:01	BASE	7.38	228	12.60	219	-3.7	77	-7.1	0	0	983.9	NA	0.0000		9999	2400	0	0	0
2019/05/15 03:23:00	BASE	6.39	236	12.60	219	-3.7	77	-7.1	0	0	983.8	NA	0.0000		9999	2330	0	0	0
2019/05/15 03:24:00	BASE	6.09	240	12.60	219	-3.7	77	-7.2	0	0	983.8	NA	0.0000		9999	2430	0	0	0
2019/05/15 03:25:02	BASE	5.76	246	12.60	219	-3.7	76	-7.3	0	0	983.8	NA	0.0000		9999	2560	0	0	0
2019/05/15 03:26:01	BASE	6.90	257	12.60	219	-3.7	76	-7.3	0	0	983.7	NA	0.0000		9999	2490	0	0	0
2019/05/15 03:27:00	BASE	9.50	257	12.60	219	-3.7	76	-7.3	0	0	983.7	NA	0.0000		9999	2590	0	0	0
2019/05/15 03:28:01	BASE	9.10	249	12.60	219	-3.7	76	-7.3	0	0	983.8	NA	0.0000		9999	2360	0	0	0
2019/05/15 03:29:01	BASE	7.11	247	12.14	217	-3.7	76	-7.3	0	0	983.9	NA	0.0000		9999	2330	0	0	0
2019/05/15 03:30:01	BASE	6.09	250	11.52	248	-3.7	76	-7.3	0	0	983.9	NA	0.0000		9999	2490	0	0	0
2019/05/15 03:31:01	BASE	5.61	255	11.52	248	-3.7	76	-7.3	0	0	983.9	NA	0.0000		9999	2460	0	0	0
2019/05/15 03:32:02	BASE	6.21	258	11.52	248	-3.7	76	-7.3	0	0	983.9	NA	0.0000		9999	2460	0	0	0
2019/05/15 03:33:01	BASE	7.39	253	11.52	248	-3.7	76	-7.3	0	0	983.9	NA	0.0000		9999	2490	0	0	0
2019/05/15 03:34:01	BASE	7.70	253	11.52	248	-3.7	76	-7.3	0	0	983.9	NA	0.0000		9999	2460	0	0	0
2019/05/15 03:35:01	BASE	7.07	262	11.52	248	-3.6	76	-7.3	0	0	983.9	NA	0.0000		9999	2460	0	0	0
2019/05/15 03:36:02	BASE	8.21	249	11.68	248	-3.6	76	-7.2	0	0	983.9	NA	0.0000		9999	2460	0	0	0
2019/05/15 03:37:01	BASE	8.92	229	11.68	248	-3.6	76	-7.2	0	0	983.9	NA	0.0000		9999	2490	0	0	0
2019/05/15 03:38:01	BASE	7.90	235	11.68	248	-3.6	76	-7.2	0	0	983.9	NA	0.0000		9999	2330	0	0	0
2019/05/15 03:39:01	BASE	8.38	250	11.68	248	-3.6	76	-7.2	0	0	983.9	NA	0.0000		9999	2430	0	0	0
2019/05/15 03:40:01	BASE	7.81	253	11.68	248	-3.6	76	-7.2	0	0	984.0	NA	0.0000		9999	2490	0	0	0
2019/05/15 03:41:01	BASE	6.13	252	11.68	248	-3.7	76	-7.3	0	0	984.0	NA	0.0000		9999	2460	0	0	0
2019/05/15 03:42:01	BASE	5.66	247	11.68	248	-3.7	75	-7.4	0	0	984.0	NA	0.0000		9999	2530	0	0	0
2019/05/15 03:43:01	BASE	6.64	245	11.68	248	-3.7	75	-7.5	0	0	983.9	NA	0.0000		9999	2530	0	0	0
2019/05/15 03:44:01	BASE	8.30	239	11.68	248	-3.7	75	-7.5	0	0	984.0	NA	0.0000		9999	2490	0	0	0
2019/05/15 03:45:01	BASE	7.58	230	11.68	248	-3.7	75	-7.5	0	0	984.0	NA	0.0000		9999	2530	0	0	0
2019/05/15 03:46:02	BASE	6.09	240	10.44	259	-3.7	74	-7.6	0	0	984.0	NA	0.0000		9999	2490	0	0	0
2019/05/15 03:47:01	BASE	6.29	246	10.44	259	-3.7	75	-7.5	0	0	984.0	NA	0.0000		9999	2560	0	0	0
2019/05/15 03:48:00	BASE	7.61	242	10.44	259	-3.7	75	-7.5	0	0	984.0	NA	0.0000		9999	2560	0	0	0
2019/05/15 03:49:01	BASE	8.46	250	10.91	263	-3.6	75	-7.5	0	0	984.0	NA	0.0000		9999	2620	0	0	0
2019/05/15 03:50:01	BASE	8.83	257	10.91	263	-3.6	75	-7.4	0	0	984.0	NA	0.0000		9999	2620	0	0	0
2019/05/15 03:51:01	BASE	8.85	257	10.91	263	-3.6	75	-7.3	0	0	984.0	NA	0.0000		9999	2620	0	0	0
2019/05/15 03:52:02	BASE	8.29	264	10.91	263	-3.6	76	-7.3	0	0	984.0	NA	0.0000		9999	2590	0	0	0
2019/05/15 03:53:01	BASE	8.36	266	10.91	263	-3.6	76	-7.3	0	0	984.0	NA	0.0000		9999	2690	0	0	0
2019/05/15 03:54:01	BASE	9.27	257	11.78	248	-3.6	76	-7.3	0	0	984.0	NA	0.0000		9999	2660	0	0	0
2019/05/15 03:55:02	BASE	10.19	246	11.78	248	-3.6	76	-7.3	0	0	984.0	NA	0.0000		9999	2660	0	0	0
2019/05/15 03:56:01	BASE	10.71	238	13.07	234	-3.6	75	-7.3	0	0	984.0	NA	0.0000		9999	2660	0	0	0
2019/05/15 03:57:00	BASE	10.45	238	13.07	234	-3.5	75	-7.3	0	0	984.0	NA	0.0000		9999	2620	0	0	0
2019/05/15 03:58:01	BASE	10.70	239	13.27	233	-3.5	75	-7.2	0	0	984.0	NA	0.0000		9999	2620	0	0	0
2019/05/15 03:59:01	BASE	10.61	234	13.27	233	-3.5	76	-7.2	0	0	984.1	NA	0.0000		9999	2620	0	0	0
2019/05/15 04:00:02	BASE	9.37	233	13.27	233	-3.6	76	-7.2	0	0	984.1	NA	0.0000		9999	2720	0	0	0
2019/05/15 04:01:28	BASE	9.77	236	13.27	233	-3.6	76	-7.2	0	0	984.1	NA	0.0000		9999	2790	0	0	0
2019/05/15 04:02:00	BASE	9.51	237	13.27	233	-3.6	76	-7.3	0	0	M	NA	0.0000		9999	2850	0	0	0
2019/05/15 04:03:00	BASE	8.30	240	13.27	233	-3.7	76	-7.4	0	0	984.2	NA	0.0000		9999	2590	0	0	0
2019/05/15 04:04:00	BASE	8.64	244	13.27	233	-3.7	75	-7.4	0	0	984.2	NA	0.0000		9999	2660	0	0	0
2019/05/15 04:05:00	BASE	9.31	248	13.27	233	-3.7	75	-7.5	0	0	984.2	NA	0.0000		9999	2660	0	0	0
2019/05/15 04:06:00	BASE	8.97	251	13.27	233	-3.7	75	-7.6	0	0	984.3	NA	0.0000		9999	2620	0	0	0
2019/05/15 04:07:00	BASE	9.23	245	13.27	233	-3.7	74	-7.7	0	0	984.3	NA	0.0000		9999	2590	0	0	0
2019/05/15 04:08:00	BASE	9.36	236	13.17	235	-3.7	74	-7.7	0	0	984.3	NA	0.0000		9999	2530	0	0	0
2019/05/15 04:09:00	BASE	8.85	229	11.83	233	-3.7	74	-7.7	0	0	984.3	NA	0.0000		9999	2590	0	0	0
2019/05/15 04:10:00	BASE	8.16	231	11.83	233	-3.7	74	-7.7	0	0	984.3	NA	0.0000		9999	2530	0	0	0
2019/05/15 04:11:00	BASE	7.73	239	11.68	252	-3.7	74	-7.7	0	0	984.3	NA	0.0000		9999	2530	0	0	0
2019/05/15 04:12:00	BASE	6.35	240	11.68	252	-3.7	74	-7.7	0	0	984.4	NA	0.0000		9999	2530	0	0	0
2019/05/15 04:13:00	BASE	6.29	233	11.68	252	-3.7	74	-7.7	0	0	984.5	NA	0.0000		9999	2560	0	0	0
2019/05/15 04:14:00	BASE	7.73	240	10.96	233	-3.7	74	-7.7	0	0	984.5	NA	0.0000		9999	2560	0	0	0
2019/05/15 04:15:00	BASE	7.83	250	10.96	233	-3.7	74	-7.7	0	0	984.5	NA	0.0000		9999	2590	0	0	0
2019/05/15 04:16:00	BASE	7.45	246	10.96	233	-3.7	74	-7.6	0	0	984.5	NA	0.0000		9999	2590	0	0	0
2019/05/15 04:17:00	BASE	7.31	245	10.96	233	-3.6	74	-7.5	0	0	984.6	NA	0.0000		9999	2620	0	0	0
2019/05/15 04:18:00	BASE	9.13	242	15.12	251	-3.6	75	-7.5	0	0	984.5	NA	0.0000		9999	2720	0	0	0
2019/05/15 04:19:00	BASE	11.97	235	15.84	226	-3.7	75	-7.4	0	0	984.5	NA	0.0000		9999	2620	0	0	0
2019/05/15 04:20:00	BASE	13.32	237	15.84	226	-3.7	75	-7.4	0	0	984.5	NA	0.0000		9999	2660	0	0	0
2019/05/15 04:21:00	BASE	13.67	241	15.84	226	-3.7	75	-7.4	0	0	984.5	NA	0.0000		9999	2460	0	0	0
2019/05/15 04:22:00	BASE	12.23	239	15.84	226	-3.7	75	-7.5	0	0	984.6	NA	0.0000		9999	2660	0	0	0
2019/05/15 04:23:00	BASE	9.43	237	15.84	226	-3.8	75	-7.6	0	0	984.7	NA	0.0000		9999	2690	0	0	0
2019/05/15 04:24:00	BASE	7.33	241	15.84	226	-3.8	74	-7.7	0	0	984.7	NA	0.0000		9999	2590	0	0	0
2019/05/15 04:25:00	BASE	6.42	241	15.84	226	-3.8	73	-7.9	0	0	984.7	NA	0.0000		9999	2620	0	0	0
2019/05/15 04:26:00	BASE	7.05	242	15.84	226	-3.8	73	-8.0	0	0	984.7	NA	0.0000		9999	2620	0	0	0
2019/05/15 04:27:00	BASE	8.83	249	15.84	226	-3.8	72	-8.0	0	0	984.7	NA	0.0000		9999	2620	0	0	0
2019/05/15 04:28:00	BASE	9.92	256	15.84	226	-3.8	72	-8.0	0	0	984.7	NA	0.0000		9999	2660	0	0	0
2019/05/15 04:29:00	BASE	9.54	258	14.76	239	-3.8	73	-7.9	0	0	984.7	NA	0.0000		9999	2720	0	0	0
2019/05/15 04:30:00	BASE	8.18	258	14.15	246	-3.8	73	-7.9	0	0	984.7	NA	0.0000		9999	2590	0	0	0
2019/05/15 04:31:00	BASE	7.66	260	12.45	237	-3.8	74	-7.8	0	0	984.8	NA	0.0000		9999	2490	0	0	0
2019/05/15 04:32:00	BASE	8.47	260	12.04	242	-3.8	74	-7.8	0	0	984.8	NA	0.0000		9999	2530	0	0	0
2019/05/15 04:33:00	BASE	8.04	258	12.04	242	-3.8	74	-7.8	0	0	984.8	NA	0.0000		9999	2560	0	0	0
2019/05/15 04:34:00	BASE	6.87	256	12.04	242	-3.8	74	-7.8	0	0	984.8	NA	0.0000		9999	2460	0	0	0
2019/05/15 04:35:00	BASE	6.42	255	12.04	242	-3.8	74	-7.7	0	0	984.9	NA	0.0000		9999	2360	0	0	0
2019/05/15 04:36:00	BASE	6.41	255	12.04	242	-3.8	74	-7.7	0	0	984.9	NA	0.0000		9999	2330	0	0	0
2019/05/15 04:37:00	BASE	7.90	249	11.68	255	-3.8	75	-7.6	0	0	984.9	NA	0.0000		9999	2400	0	0	0
2019/05/15 04:38:00	BASE	9.80	238	12.04	225	-3.8	75	-7.5	0	0	984.9	NA	0.0000		9999	2430	0	0	0
2019/05/15 04:39:00	BASE	10.17	236	12.04	225	-3.7	76	-7.4	0	0	984.9	NA	0.0000		9999	2400	0	0	0
2019/05/15 04:40:00	BASE	9.99	241	12.19	250	-3.7	76	-7.3	0	0	984.9	NA	0.0000		9999	2430	0	0	0
2019/05/15 04:41:00	BASE	12.05	237	16.62	231	-3.7	76	-7.2	0	0	984.8	NA	0.0000		9999	2560	0	0	0
2019/05/15 04:42:00	BASE	12.90	237	16.62	231	-3.7	77	-7.2	0	0	984.9	NA	0.0000		9999	2530	0	0	0
2019/05/15 04:43:00	BASE	11.01	247	16.62	231	-3.7	77	-7.2	0	0	984.9	NA	0.0000		9999	2460	0	0	0
2019/05/15 04:44:00	BASE	10.95	246	16.62	231	-3.8	77	-7.2	0	0	984.9	NA	0.0000		9999	2490	0	0	0
2019/05/15 04:45:00	BASE	11.12	238	16.62	231	-3.8	77	-7.1	0	0	984.9	NA	0.0000		9999	2400	0	0	0
2019/05/15 04:46:00	BASE	10.75	233	16.62	231	-3.8	77	-7.2	0	0	985.0	NA	0.0000		9999	2430	0	0	0
2019/05/15 04:47:00	BASE	10.03	236	16.62	231	-3.8	77	-7.2	0	0	985.1	NA	0.0000		9999	2430	0	0	0
2019/05/15 04:48:00	BASE	9.61	240	16.62	231	-3.8	77	-7.2	0	0	985.1	NA	0.0000		9999	2360	0	0	0
2019/05/15 04:49:00	BASE	9.78	238	16.62	231	-3.8	77	-7.3	0	0	985.1	NA	0.0000		9999	2530	0	0	0
2019/05/15 04:50:00	BASE	11.08	239	16.62	231	-3.8	77	-7.3	0	0	985.1	NA	0.0000		9999	2490	0	0	0
2019/05/15 04:51:00	BASE	12.49	240	14.97	234	-3.8	77	-7.3	0	0	985.1	NA	0.0000		9999	2530	0	0	0
2019/05/15 04:52:00	BASE	11.72	240	14.61	243	-3.9	77	-7.4	0	0	985.2	NA	0.0000		9999	2490	0	0	0
2019/05/15 04:53:00	BASE	10.36	241	14.61	243	-3.9	77	-7.4	0	0	985.2	NA	0.0000		9999	2560	0	0	0
2019/05/15 04:54:00	BASE	8.77	244	14.61	243	-4.0	76	-7.5	0	0	985.3	NA	0.0000		9999	2620	0	0	0
2019/05/15 04:55:00	BASE	8.04	242	14.61	243	-4.0	76	-7.7	0	0	985.3	NA	0.0000		9999	2620	0	0	0
2019/05/15 04:56:00	BASE	8.36	239	14.61	243	-4.0	75	-7.7	0	0	985.3	NA	0.0000		9999	2660	0	0	0
2019/05/15 04:57:00	BASE	7.96	236	14.61	243	-4.0	75	-7.8	0	0	985.3	NA	0.0000		9999	2690	0	0	0
2019/05/15 04:58:01	BASE	6.97	233	14.61	243	-4.0	75	-7.9	0	0	985.3	NA	0.0000		9999	2530	0	0	0
2019/05/15 04:59:00	BASE	6.86	244	14.61	243	-4.0	75	-7.9	0	0	985.3	NA	0.0000		9999	2460	0	0	0
2019/05/15 05:00:01	BASE	6.69	260	14.04	239	-4.0	74	-7.9	0	0	985.2	NA	0.0000		9999	2460	0	0	0
2019/05/15 05:01:00	BASE	8.11	235	12.76	238	-4.0	74	-7.8	0	0	985.3	NA	0.0000		9999	2460	0	0	0
2019/05/15 05:02:00	BASE	10.14	221	12.55	220	-3.9	74	-7.8	0	0	985.3	NA	0.0000		9999	2590	0	0	0
2019/05/15 05:03:00	BASE	10.43	237	12.55	220	-3.9	75	-7.8	0	0	985.3	NA	0.0000		9999	2460	0	0	0
2019/05/15 05:04:00	BASE	10.40	246	12.55	220	-3.9	75	-7.7	0	0	985.4	NA	0.0000		9999	2560	0	0	0
2019/05/15 05:05:00	BASE	9.13	252	12.55	220	-3.9	75	-7.7	0	0	985.4	NA	0.0000		9999	2530	0	0	0
2019/05/15 05:06:00	BASE	9.67	244	13.12	231	-4.0	75	-7.7	0	0	985.4	NA	0.0000		9999	2530	0	0	0
2019/05/15 05:07:00	BASE	10.78	233	13.12	231	-4.0	75	-7.8	0	0	985.4	NA	0.0000		9999	2620	0	0	0
2019/05/15 05:08:00	BASE	10.37	227	13.12	231	-4.0	75	-7.8	0	0	985.4	NA	0.0000		9999	2560	0	0	0
2019/05/15 05:09:00	BASE	11.14	221	14.04	226	-4.0	75	-7.8	0	0	985.4	NA	0.0000		9999	2620	0	0	0
2019/05/15 05:10:00	BASE	12.34	225	14.51	227	-4.0	75	-7.9	0	0	985.4	NA	0.0000		9999	2660	0	0	0
2019/05/15 05:11:00	BASE	12.76	226	14.51	227	-4.0	74	-7.9	0	0	985.4	NA	0.0000		9999	2620	0	0	0
2019/05/15 05:12:00	BASE	12.43	215	14.51	227	-4.0	74	-7.9	0	0	985.4	NA	0.0000		9999	2620	0	0	0
2019/05/15 05:13:00	BASE	11.84	212	14.51	227	-4.0	74	-8.0	0	0	985.5	NA	0.0000		9999	2620	0	0	0
2019/05/15 05:14:00	BASE	12.35	223	14.82	229	-4.0	74	-8.0	0	0	985.5	NA	0.0000		9999	2620	0	0	0
2019/05/15 05:15:00	BASE	13.84	230	15.54	239	-4.0	74	-8.0	0	0	985.4	NA	0.0000		9999	2590	0	0	0
2019/05/15 05:16:00	BASE	13.61	231	15.54	239	-4.0	74	-8.0	0	0	985.5	NA	0.0000		9999	2560	0	0	0
2019/05/15 05:17:00	BASE	12.30	227	15.54	239	-4.0	74	-8.0	0	0	985.6	NA	0.0000		9999	2620	0	0	0
2019/05/15 05:18:00	BASE	12.43	221	15.54	239	-4.0	74	-7.9	0	0	985.5	NA	0.0000		9999	2720	0	0	0
2019/05/15 05:19:00	BASE	11.54	219	15.54	239	-4.0	75	-7.9	0	0	985.6	NA	0.0000		9999	2690	0	0	0
2019/05/15 05:20:01	BASE	10.01	217	15.54	239	-4.0	75	-7.9	0	0	985.6	NA	0.0000		9999	2620	0	0	0
2019/05/15 05:21:00	BASE	9.61	215	15.54	239	-4.1	75	-7.9	0	0	985.7	NA	0.0000		9999	2660	0	0	0
2019/05/15 05:22:01	BASE	9.22	213	15.54	239	-4.1	74	-8.0	0	0	985.7	NA	0.0000		9999	2530	0	0	0
2019/05/15 05:23:00	BASE	9.76	215	15.54	239	-4.1	74	-8.0	0	0	985.7	NA	0.0000		9999	2590	0	0	0
2019/05/15 05:24:00	BASE	9.37	219	15.54	239	-4.1	74	-8.0	0	0	985.7	NA	0.0000		9999	2620	0	0	0
2019/05/15 05:25:00	BASE	7.41	218	14.76	217	-4.1	74	-8.0	0	0	985.8	NA	0.0000		9999	2590	0	0	0
2019/05/15 05:26:00	BASE	6.31	218	14.76	217	-4.1	74	-7.9	0	0	985.8	NA	0.0000		9999	2560	0	0	0
2019/05/15 05:27:00	BASE	7.40	219	14.76	217	-4.0	75	-7.9	0	0	985.8	NA	0.0000		9999	2490	0	0	0
2019/05/15 05:28:00	BASE	9.24	218	11.83	217	-4.0	75	-7.9	0	0	985.8	NA	0.0000		9999	2490	0	0	0
2019/05/15 05:29:00	BASE	10.03	221	11.83	217	-4.0	75	-7.8	0	0	985.8	NA	0.0000		9999	2430	0	0	0
2019/05/15 05:30:00	BASE	10.02	231	12.14	244	-4.0	75	-7.7	0	0	985.8	NA	0.0000		9999	2560	0	0	0
2019/05/15 05:31:00	BASE	10.85	233	14.82	230	-4.0	75	-7.7	0	0	985.8	NA	0.0000		9999	2460	0	0	0
2019/05/15 05:32:00	BASE	12.53	232	15.02	239	-3.9	76	-7.6	0	0	985.8	NA	0.0000		9999	2530	0	0	0
2019/05/15 05:33:00	BASE	13.03	232	15.02	239	-3.9	76	-7.6	0	0	985.8	NA	0.0000		9999	2590	0	0	0
2019/05/15 05:34:00	BASE	12.66	229	15.02	239	-3.9	76	-7.5	0	0	985.8	NA	0.0000		9999	2590	0	0	0
2019/05/15 05:35:00	BASE	12.85	230	16.26	229	-3.9	76	-7.5	0	0	985.7	NA	0.0000		9999	2590	0	0	0
2019/05/15 05:36:00	BASE	14.31	228	16.31	222	-3.9	76	-7.5	0	0	985.7	NA	0.0000		9999	2460	0	0	0
2019/05/15 05:37:00	BASE	15.39	228	16.31	222	-4.0	76	-7.6	0	0	985.8	NA	0.0000		9999	2430	0	0	0
2019/05/15 05:38:00	BASE	14.58	229	16.46	228	-4.1	76	-7.6	0	0	985.8	NA	0.0000		9999	2400	0	0	0
2019/05/15 05:39:00	BASE	11.14	229	16.46	228	-4.1	76	-7.7	0	0	985.9	NA	0.0000		9999	2330	0	0	0
2019/05/15 05:40:00	BASE	7.23	234	16.46	228	-4.2	76	-7.8	0	0	985.8	NA	0.0000		9999	2260	0	0	0
2019/05/15 05:41:00	BASE	6.84	228	16.46	228	-4.2	76	-7.9	0	0	985.8	NA	0.0000		9999	2300	0	0	0
2019/05/15 05:42:00	BASE	8.08	222	16.46	228	-4.2	75	-7.9	0	0	985.8	NA	0.0000		9999	2400	0	0	0
2019/05/15 05:43:00	BASE	8.19	228	16.46	228	-4.3	75	-8.0	0	0	985.8	NA	0.0000		9999	2360	0	0	0
2019/05/15 05:44:01	BASE	7.97	226	16.46	228	-4.2	75	-8.0	0	0	985.8	NA	0.0000		9999	2430	0	0	0
2019/05/15 05:45:01	BASE	10.69	223	16.46	228	-4.2	75	-8.0	0	0	985.7	NA	0.0000		9999	2460	0	0	0
2019/05/15 05:46:01	BASE	12.94	238	16.46	228	-4.2	75	-7.9	0	0	985.8	NA	0.0000		9999	2430	0	0	0
2019/05/15 05:47:01	BASE	11.63	251	16.46	228	-4.1	75	-7.8	0	0	985.8	NA	0.0000		9999	2400	0	0	0
2019/05/15 05:48:01	BASE	10.99	246	15.48	233	-4.1	76	-7.8	0	0	985.8	NA	0.0000		9999	2460	0	0	0
2019/05/15 05:49:01	BASE	12.80	234	15.48	233	-4.1	76	-7.7	0	0	985.8	NA	0.0000		9999	2490	0	0	0
2019/05/15 05:50:01	BASE	14.11	229	15.48	233	-4.1	76	-7.7	0	0	985.8	NA	0.0000		9999	2460	0	0	0
2019/05/15 05:51:01	BASE	13.04	231	15.48	233	-4.1	76	-7.7	0	0	985.9	NA	0.0000		9999	2530	0	0	0
2019/05/15 05:52:01	BASE	12.79	238	15.48	233	-4.2	76	-7.8	0	0	985.9	NA	0.0000		9999	2490	0	0	0
2019/05/15 05:53:00	BASE	11.70	240	15.48	233	-4.2	76	-7.8	0	0	986.0	NA	0.0000		9999	2590	0	0	0
2019/05/15 05:54:00	BASE	9.31	237	15.48	233	-4.3	76	-7.9	0	0	986.0	NA	0.0000		9999	2720	0	0	0
2019/05/15 05:55:00	BASE	8.94	233	15.43	237	-4.3	76	-7.9	0	0	986.0	NA	0.0000		9999	2490	0	0	0
2019/05/15 05:56:00	BASE	8.67	231	15.43	237	-4.4	76	-8.0	0	0	986.1	NA	0.0000		9999	2560	0	0	0
2019/05/15 05:57:00	BASE	8.79	230	15.43	237	-4.4	76	-8.1	0	0	986.1	NA	0.0000		9999	2560	0	0	0
2019/05/15 05:58:01	BASE	9.58	235	15.43	237	-4.5	75	-8.2	0	0	986.1	NA	0.0000		9999	2590	0	0	0
2019/05/15 05:59:00	BASE	9.88	240	15.43	237	-4.5	75	-8.3	0	0	986.1	NA	0.0000		9999	2720	0	0	0
2019/05/15 06:00:00	BASE	9.47	244	15.43	237	-4.5	74	-8.4	0	0	986.0	NA	0.0000		9999	2590	0	0	0
2019/05/15 06:01:00	BASE	9.20	247	15.43	237	-4.5	74	-8.4	0	0	986.0	NA	0.0000		9999	2590	0	0	0
2019/05/15 06:02:00	BASE	9.53	246	12.04	242	-4.5	74	-8.4	0	0	986.1	NA	0.0000		9999	2620	0	0	0
2019/05/15 06:03:00	BASE	8.53	239	12.04	242	-4.4	74	-8.4	0	0	986.1	NA	0.0000		9999	2530	0	0	0
2019/05/15 06:04:00	BASE	7.49	228	12.04	242	-4.4	74	-8.4	0	0	986.2	NA	0.0000		9999	2530	0	0	0
2019/05/15 06:05:00	BASE	7.52	226	12.04	242	-4.4	74	-8.3	0	0	986.2	NA	0.0000		9999	2660	0	0	0
2019/05/15 06:06:00	BASE	8.01	238	12.04	242	-4.4	74	-8.4	0	0	986.2	NA	0.0000		9999	2530	0	0	0
2019/05/15 06:07:00	BASE	8.25	248	12.04	242	-4.4	74	-8.4	0	0	986.2	NA	0.0000		9999	2590	0	0	0
2019/05/15 06:08:00	BASE	7.76	248	12.04	242	-4.4	74	-8.4	0	0	986.2	NA	0.0000		9999	2530	0	0	0
2019/05/15 06:09:00	BASE	7.49	239	10.80	254	-4.4	74	-8.4	0	0	986.2	NA	0.0000		9999	2530	0	0	0
2019/05/15 06:10:00	BASE	7.19	233	10.80	254	-4.4	74	-8.4	0	0	986.3	NA	0.0000		9999	2430	0	0	0
2019/05/15 06:11:01	BASE	6.76	233	10.55	244	-4.3	74	-8.3	0	0	986.3	NA	0.0000		9999	2430	0	0	0
2019/05/15 06:12:01	BASE	5.67	231	9.72	244	-4.3	74	-8.3	0	0	986.3	NA	0.0000		9999	2400	0	0	0
2019/05/15 06:13:01	BASE	5.64	237	10.19	248	-4.3	74	-8.2	0	0	986.2	NA	0.0000		9999	2430	0	0	0
2019/05/15 06:14:00	BASE	9.21	236	13.74	221	-4.3	74	-8.2	0	0	986.2	NA	0.0000		9999	2400	0	0	0
2019/05/15 06:15:00	BASE	11.09	238	13.74	221	-4.3	74	-8.2	0	0	986.2	NA	0.0000		9999	2400	0	0	0
2019/05/15 06:16:00	BASE	10.14	250	13.74	221	-4.2	74	-8.1	0	0	986.3	NA	0.0000		9999	2460	0	0	0
2019/05/15 06:17:00	BASE	10.47	243	13.74	221	-4.2	75	-8.0	0	0	986.2	NA	0.0000		9999	2430	0	0	0
2019/05/15 06:18:00	BASE	11.19	235	13.74	221	-4.2	75	-8.0	0	0	986.3	NA	0.0000		9999	2460	0	0	0
2019/05/15 06:19:00	BASE	8.73	236	13.74	221	-4.2	75	-8.0	0	0	986.3	NA	0.0000		9999	2360	0	0	0
2019/05/15 06:20:00	BASE	5.32	247	13.74	221	-4.3	75	-8.1	0	0	986.3	NA	0.0000		9999	2360	0	0	0
2019/05/15 06:21:00	BASE	5.01	252	13.74	221	-4.3	75	-8.2	0	0	986.3	NA	0.0000		9999	2490	0	0	0
2019/05/15 06:22:00	BASE	5.56	238	13.74	221	-4.4	74	-8.3	0	0	986.3	NA	0.0000		9999	2430	0	0	0
2019/05/15 06:23:00	BASE	6.65	227	13.74	221	-4.4	74	-8.3	0	0	986.3	NA	0.0000		9999	2490	0	0	0
2019/05/15 06:24:00	BASE	8.88	228	13.12	231	-4.4	74	-8.3	0	0	986.3	NA	0.0000		9999	2490	0	0	0
2019/05/15 06:25:00	BASE	11.23	229	13.27	228	-4.4	74	-8.3	0	0	986.3	NA	0.0000		9999	2490	0	0	0
2019/05/15 06:26:00	BASE	11.76	228	13.27	228	-4.3	74	-8.3	0	0	986.3	NA	0.0000		9999	2560	0	0	0
2019/05/15 06:27:00	BASE	11.69	231	13.99	233	-4.3	74	-8.2	0	0	986.3	NA	0.0000		9999	2560	0	0	0
2019/05/15 06:28:00	BASE	12.27	232	13.99	233	-4.3	74	-8.2	0	0	986.3	NA	0.0000		9999	2590	0	0	0
2019/05/15 06:29:00	BASE	11.09	235	13.99	233	-4.3	74	-8.1	0	0	986.4	NA	0.0000		9999	2560	0	0	0
2019/05/15 06:30:00	BASE	9.54	242	13.99	233	-4.3	75	-8.1	0	0	986.4	NA	0.0000		9999	2590	0	0	0
2019/05/15 06:31:00	BASE	8.77	242	13.99	233	-4.3	75	-8.1	0	0	986.4	NA	0.0000		9999	2530	0	0	0
2019/05/15 06:32:00	BASE	8.81	242	13.99	233	-4.3	75	-8.2	0	0	986.4	NA	0.0000		9999	2460	0	0	0
2019/05/15 06:33:00	BASE	8.82	242	13.99	233	-4.4	74	-8.2	0	0	986.4	NA	0.0000		9999	2560	0	0	0
2019/05/15 06:34:00	BASE	8.45	242	13.99	233	-4.4	74	-8.3	0	0	986.4	NA	0.0000		9999	2430	0	0	0
2019/05/15 06:35:00	BASE	8.58	245	13.99	233	-4.4	74	-8.3	0	0	986.4	NA	0.0000		9999	2490	0	0	0
2019/05/15 06:36:00	BASE	9.44	249	13.99	233	-4.4	74	-8.3	0	0	986.4	NA	0.0000		9999	2530	0	0	0
2019/05/15 06:37:00	BASE	10.58	246	13.74	223	-4.3	74	-8.2	0	0	986.4	NA	0.0000		9999	2490	0	0	0
2019/05/15 06:38:00	BASE	11.41	239	14.92	235	-4.3	74	-8.2	0	0	986.4	NA	0.0000		9999	2460	0	0	0
2019/05/15 06:39:00	BASE	9.78	243	14.92	235	-4.3	74	-8.2	0	0	986.5	NA	0.0000		9999	2720	0	0	0
2019/05/15 06:40:00	BASE	7.33	247	14.92	235	-4.4	74	-8.3	0	0	986.5	NA	0.0000		9999	2660	0	0	0
2019/05/15 06:41:00	BASE	6.17	237	14.92	235	-4.4	74	-8.3	0	0	986.5	NA	0.0000		9999	2560	0	0	0
2019/05/15 06:42:00	BASE	6.35	226	14.92	235	-4.4	74	-8.4	0	0	986.5	NA	0.0000		9999	2560	0	0	0
2019/05/15 06:43:00	BASE	7.93	225	14.92	235	-4.4	73	-8.5	0	0	986.5	NA	0.0000		9999	2560	0	0	0
2019/05/15 06:44:00	BASE	8.61	233	14.92	235	-4.4	73	-8.5	0	0	986.6	NA	0.0000		9999	2590	0	0	0
2019/05/15 06:45:00	BASE	8.15	241	14.92	235	-4.3	73	-8.4	0	0	986.6	NA	0.0000		9999	2620	0	0	0
2019/05/15 06:46:00	BASE	7.02	247	14.92	235	-4.3	73	-8.3	0	0	986.6	NA	0.0000		9999	2430	0	0	0
2019/05/15 06:47:00	BASE	6.54	253	14.92	235	-4.3	74	-8.3	0	0	986.6	NA	0.0000		9999	2620	0	0	0
2019/05/15 06:48:00	BASE	7.22	256	10.24	272	-4.3	74	-8.2	0	0	986.6	NA	0.0000		9999	2560	0	0	0
2019/05/15 06:49:00	BASE	8.36	255	10.65	254	-4.3	74	-8.2	0	0	986.6	NA	0.0000		9999	2560	0	0	0
2019/05/15 06:50:00	BASE	9.90	250	13.38	243	-4.2	74	-8.1	0	0	986.6	NA	0.0000		9999	2590	0	0	0
2019/05/15 06:51:00	BASE	11.31	245	13.38	243	-4.2	74	-8.1	0	0	986.6	NA	0.0000		9999	2590	0	0	0
2019/05/15 06:52:00	BASE	10.25	234	13.38	243	-4.2	74	-8.1	0	0	986.7	NA	0.0000		9999	2430	0	0	0
2019/05/15 06:53:00	BASE	8.70	221	13.38	243	-4.2	74	-8.1	0	0	986.6	NA	0.0000		9999	2460	0	0	0
2019/05/15 06:54:00	BASE	8.71	217	13.38	243	-4.2	74	-8.2	0	0	986.6	NA	0.0000		9999	2590	0	0	0
2019/05/15 06:55:00	BASE	9.21	229	13.38	243	-4.3	74	-8.2	0	0	986.6	NA	0.0000		9999	2590	0	0	0
2019/05/15 06:56:00	BASE	9.95	240	13.38	243	-4.3	73	-8.3	0	0	986.7	NA	0.0000		9999	2530	0	0	0
2019/05/15 06:57:00	BASE	9.86	242	13.38	243	-4.3	73	-8.3	0	0	986.7	NA	0.0000		9999	2490	0	0	0
2019/05/15 06:58:00	BASE	9.43	248	13.38	243	-4.2	73	-8.4	0	0	986.7	NA	0.0000		9999	2460	0	0	0
2019/05/15 06:59:00	BASE	9.43	248	13.38	243	-4.2	73	-8.4	0	0	986.7	NA	0.0000		9999	2560	0	0	0
2019/05/15 07:00:01	BASE	8.33	248	12.81	244	-4.3	73	-8.4	0	0	986.7	NA	0.0000		9999	2620	0	0	0
2019/05/15 07:01:01	BASE	7.26	253	12.14	243	-4.3	73	-8.4	0	0	986.7	NA	0.0000		9999	2590	0	0	0
2019/05/15 07:02:01	BASE	7.57	254	12.14	243	-4.3	73	-8.5	0	0	986.7	NA	0.0000		9999	2490	0	0	0
2019/05/15 07:03:01	BASE	6.67	259	12.14	243	-4.3	72	-8.5	0	0	986.7	NA	0.0000		9999	2560	0	0	0
2019/05/15 07:04:01	BASE	5.41	251	12.14	243	-4.3	72	-8.6	0	0	986.7	NA	0.0000		9999	2560	0	0	0
2019/05/15 07:05:01	BASE	6.21	232	11.78	236	-4.3	72	-8.6	0	0	986.7	NA	0.0000		9999	2620	0	0	0
2019/05/15 07:06:00	BASE	7.45	229	11.01	250	-4.3	72	-8.5	0	0	986.7	NA	0.0000		9999	2660	0	0	0
2019/05/15 07:07:00	BASE	9.76	228	13.89	233	-4.2	72	-8.5	0	0	986.6	NA	0.0000		9999	2660	0	0	0
2019/05/15 07:08:00	BASE	11.30	227	13.89	233	-4.2	73	-8.4	0	0	986.6	NA	0.0000		9999	2660	0	0	0
2019/05/15 07:09:00	BASE	11.16	229	13.89	233	-4.2	73	-8.3	0	0	986.6	NA	0.0000		9999	2590	0	0	0
2019/05/15 07:10:00	BASE	10.02	226	13.89	233	-4.2	73	-8.3	0	0	986.7	NA	0.0000		9999	2560	0	0	0
2019/05/15 07:11:00	BASE	8.04	228	13.89	233	-4.2	73	-8.3	0	0	986.8	NA	0.0000		9999	2530	0	0	0
2019/05/15 07:12:00	BASE	7.80	241	13.89	233	-4.2	73	-8.4	0	0	986.8	NA	0.0000		9999	2530	0	0	0
2019/05/15 07:13:00	BASE	8.44	251	13.89	233	-4.2	73	-8.4	0	0	986.9	NA	0.0000		9999	2560	0	0	0
2019/05/15 07:14:00	BASE	9.42	256	13.89	233	-4.2	73	-8.4	0	0	986.9	NA	0.0000		9999	2560	0	0	0
2019/05/15 07:15:00	BASE	9.89	261	13.89	233	-4.2	73	-8.4	0	0	987.0	NA	0.0000		9999	2430	0	0	0
2019/05/15 07:16:00	BASE	8.71	259	13.89	233	-4.2	73	-8.4	0	0	987.0	NA	0.0000		9999	2560	0	0	0
2019/05/15 07:17:00	BASE	8.19	255	12.66	230	-4.2	73	-8.3	0	0	987.1	NA	0.0000		9999	2560	0	0	0
2019/05/15 07:18:00	BASE	8.64	261	12.35	227	-4.2	74	-8.2	0	0	987.1	NA	0.0000		9999	2560	0	0	0
2019/05/15 07:19:00	BASE	8.58	264	12.19	257	-4.2	74	-8.1	0	0	987.1	NA	0.0000		9999	2490	0	0	0
2019/05/15 07:20:00	BASE	7.91	261	12.19	257	-4.2	74	-8.1	0	0	987.1	NA	0.0000		9999	2530	0	0	0
2019/05/15 07:21:00	BASE	7.17	259	12.19	257	-4.2	74	-8.1	0	0	987.1	NA	0.0000		9999	2560	0	0	0
2019/05/15 07:22:00	BASE	6.73	256	12.19	257	-4.2	74	-8.1	0	0	987.1	NA	0.0000		9999	2490	0	0	0
2019/05/15 07:23:00	BASE	6.15	251	12.19	257	-4.2	74	-8.1	0	0	987.1	NA	0.0000		9999	2430	0	0	0
2019/05/15 07:24:00	BASE	5.85	240	11.01	252	-4.2	74	-8.1	0	0	987.1	NA	0.0000		9999	2530	0	0	0
2019/05/15 07:25:00	BASE	7.47	236	11.68	239	-4.2	74	-8.1	0	0	987.1	NA	0.0000		9999	2460	0	0	0
2019/05/15 07:26:00	BASE	8.78	250	11.68	239	-4.2	75	-8.0	0	0	987.1	NA	0.0000		9999	2360	0	0	0
2019/05/15 07:27:00	BASE	9.53	248	11.83	223	-4.1	75	-7.9	0	0	987.0	NA	0.0000		9999	2430	0	0	0
2019/05/15 07:28:00	BASE	10.97	228	12.60	223	-4.1	76	-7.8	0	0	987.1	NA	0.0000		9999	2400	0	0	0
2019/05/15 07:29:00	BASE	13.03	219	16.98	220	-4.1	76	-7.7	0	0	987.0	NA	0.0000		9999	2400	0	0	0
2019/05/15 07:30:00	BASE	13.91	222	16.98	220	-4.1	76	-7.7	0	0	987.1	NA	0.0000		9999	2490	0	0	0
2019/05/15 07:31:00	BASE	11.98	226	16.98	220	-4.1	76	-7.7	0	0	987.2	NA	0.0000		9999	2560	0	0	0
2019/05/15 07:32:00	BASE	9.73	226	16.98	220	-4.2	76	-7.8	0	0	987.3	NA	0.0000		9999	2490	0	0	0
2019/05/15 07:33:00	BASE	8.32	232	16.98	220	-4.2	76	-7.9	0	0	987.3	NA	0.0000		9999	2360	0	0	0
2019/05/15 07:34:00	BASE	7.59	241	16.98	220	-4.2	75	-7.9	0	0	987.3	NA	0.0000		9999	2530	0	0	0
2019/05/15 07:35:00	BASE	8.04	253	16.98	220	-4.2	75	-8.0	0	0	987.3	NA	0.0000		9999	2460	0	0	0
2019/05/15 07:36:00	BASE	8.71	253	16.98	220	-4.2	75	-8.0	0	0	987.3	NA	0.0000		9999	2530	0	0	0
2019/05/15 07:37:00	BASE	7.25	253	16.98	220	-4.2	75	-8.1	0	0	987.3	NA	0.0000		9999	2490	0	0	0
2019/05/15 07:38:00	BASE	8.08	254	16.98	220	-4.2	75	-8.1	0	0	987.3	NA	0.0000		9999	2490	0	0	0
2019/05/15 07:39:00	BASE	10.73	250	15.43	226	-4.2	75	-8.0	0	0	987.3	NA	0.0000		9999	2490	0	0	0
2019/05/15 07:40:00	BASE	10.53	257	13.43	259	-4.3	75	-8.1	0	0	987.3	NA	0.0000		9999	2590	0	0	0
2019/05/15 07:41:00	BASE	10.34	257	13.43	259	-4.3	75	-8.1	0	0	987.4	NA	0.0000		9999	2530	0	0	0
2019/05/15 07:42:00	BASE	10.43	257	13.43	259	-4.3	75	-8.0	0	0	987.4	NA	0.0000		9999	2590	0	0	0
2019/05/15 07:43:00	BASE	9.98	248	13.43	259	-4.3	75	-8.0	0	0	987.4	NA	0.0000		9999	2460	0	0	0
2019/05/15 07:44:00	BASE	10.22	234	13.43	259	-4.3	75	-8.1	0	0	987.4	NA	0.0000		9999	2490	0	0	0
2019/05/15 07:45:00	BASE	9.87	232	13.43	259	-4.3	75	-8.1	0	0	987.4	NA	0.0000		9999	2430	0	0	0
2019/05/15 07:46:00	BASE	8.68	232	13.43	259	-4.3	75	-8.2	0	0	987.4	NA	0.0000		9999	2590	0	0	0
2019/05/15 07:47:00	BASE	8.38	228	13.43	259	-4.3	74	-8.2	0	0	987.4	NA	0.0000		9999	2490	0	0	0
2019/05/15 07:48:00	BASE	8.57	224	13.43	259	-4.4	74	-8.3	0	0	987.4	NA	0.0000		9999	2530	0	0	0
2019/05/15 07:49:00	BASE	8.65	225	13.02	255	-4.4	73	-8.4	0	0	987.4	NA	0.0000		9999	2430	0	0	0
2019/05/15 07:50:00	BASE	9.99	230	13.02	235	-4.4	73	-8.4	0	0	987.5	NA	0.0000		9999	2460	0	0	0
2019/05/15 07:51:00	BASE	10.50	235	13.02	235	-4.4	73	-8.4	0	0	987.6	NA	0.0000		9999	2530	0	0	0
2019/05/15 07:52:00	BASE	9.28	239	13.02	235	-4.4	74	-8.4	0	0	987.6	NA	0.0000		9999	2430	0	0	0
2019/05/15 07:53:00	BASE	8.20	249	13.02	235	-4.4	74	-8.3	0	0	987.6	NA	0.0000		9999	2430	0	0	0
2019/05/15 07:54:00	BASE	7.64	256	13.02	235	-4.4	74	-8.3	0	0	987.6	NA	0.0000		9999	2430	0	0	0
2019/05/15 07:55:00	BASE	7.82	255	13.02	235	-4.4	74	-8.3	0	0	987.6	NA	0.0000		9999	2400	0	0	0
2019/05/15 07:56:00	BASE	7.78	252	13.02	235	-4.4	74	-8.3	0	0	987.6	NA	0.0000		9999	2400	0	0	0
2019/05/15 07:57:00	BASE	7.15	250	13.02	235	-4.4	74	-8.3	0	0	987.7	NA	0.0000		9999	2400	0	0	0
2019/05/15 07:58:00	BASE	6.57	250	13.02	235	-4.4	74	-8.2	0	0	987.7	NA	0.0000		9999	2400	0	0	0
2019/05/15 07:59:00	BASE	7.04	251	13.02	235	-4.4	75	-8.2	0	0	987.7	NA	0.0000		9999	2400	0	0	0
2019/05/15 08:00:00	BASE	8.08	247	12.35	241	-4.4	75	-8.2	0	0	987.7	NA	0.0000		9999	2400	0	0	0
2019/05/15 08:01:00	BASE	8.60	240	10.13	233	-4.4	75	-8.1	0	0	987.7	NA	0.0000		9999	2330	0	0	0
2019/05/15 08:02:00	BASE	7.71	239	9.62	248	-4.4	75	-8.1	0	0	987.7	NA	0.0000		9999	2330	0	0	0
2019/05/15 08:03:00	BASE	6.32	240	9.62	248	-4.4	75	-8.1	0	0	987.7	NA	0.0000		9999	2400	0	0	0
2019/05/15 08:04:00	BASE	6.02	242	9.62	248	-4.4	75	-8.2	0	0	987.7	NA	0.0000		9999	2400	0	0	0
2019/05/15 08:05:00	BASE	6.80	242	12.04	234	-4.3	75	-8.2	0	0	987.7	NA	0.0000		9999	2400	0	0	0
2019/05/15 08:06:00	BASE	9.33	238	13.68	218	-4.3	75	-8.2	0	0	987.7	NA	0.0000		9999	2430	0	0	0
2019/05/15 08:07:00	BASE	10.06	235	13.68	218	-4.3	75	-8.1	0	0	987.7	NA	0.0000		9999	2360	0	0	0
2019/05/15 08:08:00	BASE	8.66	233	13.68	218	-4.3	75	-8.1	0	0	987.7	NA	0.0000		9999	2260	0	0	0
2019/05/15 08:09:00	BASE	7.41	231	13.68	218	-4.3	75	-8.1	0	0	987.8	NA	0.0000		9999	2400	0	0	0
2019/05/15 08:10:00	BASE	6.42	244	13.68	218	-4.3	75	-8.1	0	0	987.8	NA	0.0000		9999	2230	0	0	0
2019/05/15 08:11:00	BASE	6.16	250	13.68	218	-4.4	75	-8.1	0	0	987.8	NA	0.0000		9999	2330	0	0	0
2019/05/15 08:12:00	BASE	6.44	239	13.68	218	-4.4	75	-8.1	0	0	987.8	NA	0.0000		9999	2330	0	0	0
2019/05/15 08:13:00	BASE	6.60	242	13.68	218	-4.4	75	-8.1	0	0	987.8	NA	0.0000		9999	2330	0	0	0
2019/05/15 08:14:00	BASE	6.07	245	13.68	218	-4.3	75	-8.1	0	0	987.8	NA	0.0000		9999	2300	0	0	0
2019/05/15 08:15:00	BASE	6.17	251	13.68	218	-4.3	75	-8.1	0	0	987.9	NA	0.0000		9999	2300	0	0	0
2019/05/15 08:16:00	BASE	6.02	261	10.65	242	-4.3	75	-8.0	0	0	987.9	NA	0.0000		9999	2330	0	0	0
2019/05/15 08:17:00	BASE	7.27	269	11.01	268	-4.3	76	-8.0	0	0	987.8	NA	0.0000		9999	2360	0	0	0
2019/05/15 08:18:00	BASE	9.18	271	11.01	268	-4.3	76	-8.0	0	0	987.8	NA	0.0000		9999	2330	0	0	0
2019/05/15 08:19:00	BASE	8.71	261	11.01	268	-4.3	76	-7.9	0	0	987.8	NA	0.0000		9999	2330	0	0	0
2019/05/15 08:20:00	BASE	9.12	250	13.22	245	-4.3	76	-7.9	0	0	987.8	NA	0.0000		9999	2330	0	0	0
2019/05/15 08:21:00	BASE	11.39	244	13.48	241	-4.3	76	-7.8	0	0	987.8	NA	0.0000		9999	2330	0	0	0
2019/05/15 08:22:00	BASE	12.16	244	13.58	245	-4.3	77	-7.8	0	0	987.8	NA	0.0000		9999	2430	0	0	0
2019/05/15 08:23:00	BASE	11.21	243	13.58	245	-4.3	77	-7.8	0	0	987.8	NA	0.0000		9999	2360	0	0	0
2019/05/15 08:24:00	BASE	10.25	236	13.58	245	-4.3	77	-7.7	0	0	987.9	NA	0.0000		9999	2230	0	0	0
2019/05/15 08:25:00	BASE	9.52	232	13.58	245	-4.3	77	-7.8	0	0	987.9	NA	0.0000		9999	2260	0	0	0
2019/05/15 08:26:00	BASE	7.98	239	13.58	245	-4.4	77	-7.9	0	0	987.9	NA	0.0000		9999	2300	0	0	0
2019/05/15 08:27:00	BASE	6.12	240	13.58	245	-4.4	76	-7.9	0	0	987.9	NA	0.0000		9999	2330	0	0	0
2019/05/15 08:28:00	BASE	5.40	238	13.58	245	-4.4	76	-7.9	0	0	987.9	NA	0.0000		9999	2360	0	0	0
2019/05/15 08:29:00	BASE	6.58	241	13.58	245	-4.4	76	-7.9	0	0	987.9	NA	0.0000		9999	2360	0	0	0
2019/05/15 08:30:00	BASE	8.10	244	13.58	245	-4.3	76	-7.9	0	0	987.9	NA	0.0000		9999	2360	0	0	0
2019/05/15 08:31:00	BASE	9.02	251	13.58	245	-4.3	76	-7.9	0	0	987.8	NA	0.0000		9999	2400	0	0	0
2019/05/15 08:32:00	BASE	9.53	255	11.99	257	-4.3	76	-7.9	0	0	987.8	NA	0.0000		9999	2400	0	0	0
2019/05/15 08:33:00	BASE	9.48	252	11.99	257	-4.3	76	-7.8	0	0	987.8	NA	0.0000		9999	2430	0	0	0
2019/05/15 08:34:00	BASE	9.47	253	11.99	257	-4.3	77	-7.8	0	0	987.9	NA	0.0000		9999	2230	0	0	0
2019/05/15 08:35:00	BASE	9.03	261	11.99	257	-4.3	77	-7.8	0	0	987.9	NA	0.0000		9999	2360	0	0	0
2019/05/15 08:36:00	BASE	8.88	259	11.99	257	-4.3	77	-7.7	0	0	987.8	NA	0.0000		9999	2300	0	0	0
2019/05/15 08:37:00	BASE	9.78	252	12.24	252	-4.3	77	-7.7	0	0	987.8	NA	0.0000		9999	2330	0	0	0
2019/05/15 08:38:00	BASE	10.27	249	12.24	252	-4.3	77	-7.7	0	0	987.9	NA	0.0000		9999	2260	0	0	0
2019/05/15 08:39:00	BASE	9.33	250	12.24	252	-4.3	77	-7.7	0	0	987.9	NA	0.0000		9999	2400	0	0	0
2019/05/15 08:40:00	BASE	9.25	251	12.24	252	-4.3	77	-7.7	0	0	987.9	NA	0.0000		9999	2460	0	0	0
2019/05/15 08:41:00	BASE	9.27	243	12.24	252	-4.3	77	-7.7	0	0	987.9	NA	0.0000		9999	2300	0	0	0
2019/05/15 08:42:00	BASE	7.80	226	12.24	252	-4.3	77	-7.7	0	0	987.9	NA	0.0000		9999	2230	0	0	0
2019/05/15 08:43:00	BASE	6.21	225	12.24	252	-4.3	77	-7.7	0	0	987.9	NA	0.0000		9999	2330	0	0	0
2019/05/15 08:44:00	BASE	5.73	236	12.24	252	-4.3	77	-7.8	0	0	987.9	NA	0.0000		9999	2400	0	0	0
2019/05/15 08:45:00	BASE	5.21	244	12.24	252	-4.4	77	-7.9	0	0	987.9	NA	0.0000		9999	2400	0	0	0
2019/05/15 08:46:00	BASE	4.21	252	12.24	252	-4.4	76	-8.0	0	0	987.9	NA	0.0000		9999	2460	0	0	0
2019/05/15 08:47:00	BASE	4.13	267	11.94	248	-4.4	76	-8.0	0	0	987.9	NA	0.0000		9999	2460	0	0	0
2019/05/15 08:48:00	BASE	4.90	267	11.78	233	-4.4	75	-8.1	0	0	987.9	NA	0.0000		9999	2430	0	0	0
2019/05/15 08:49:00	BASE	5.74	258	11.78	233	-4.4	75	-8.1	0	0	987.9	NA	0.0000		9999	2430	0	0	0
2019/05/15 08:50:00	BASE	6.02	256	11.78	233	-4.4	75	-8.2	0	0	987.9	NA	0.0000		9999	2490	0	0	0
2019/05/15 08:51:00	BASE	5.76	249	7.61	223	-4.4	75	-8.1	0	0	987.9	NA	0.0000		9999	2430	0	0	0
2019/05/15 08:52:00	BASE	5.89	233	9.16	220	-4.3	75	-8.1	0	0	987.9	NA	0.0000		9999	2490	0	0	0
2019/05/15 08:53:00	BASE	7.10	220	9.16	220	-4.3	75	-8.0	0	0	987.9	NA	0.0000		9999	2300	0	0	0
2019/05/15 08:54:00	BASE	8.08	214	9.16	220	-4.3	76	-7.9	0	0	987.9	NA	0.0000		9999	2400	0	0	0
2019/05/15 08:55:00	BASE	9.05	216	11.47	225	-4.3	76	-7.9	0	0	987.8	NA	0.0000		9999	2430	0	0	0
2019/05/15 08:56:00	BASE	10.32	220	12.14	222	-4.3	76	-7.9	0	0	987.8	NA	0.0000		9999	2430	0	0	0
2019/05/15 08:57:00	BASE	11.11	223	13.12	228	-4.3	76	-7.9	0	0	987.9	NA	0.0000		9999	2460	0	0	0
2019/05/15 08:58:00	BASE	9.98	230	13.12	228	-4.3	76	-7.9	0	0	987.9	NA	0.0000		9999	2460	0	0	0
2019/05/15 08:59:00	BASE	9.18	224	13.12	228	-4.3	76	-7.9	0	0	987.9	NA	0.0000		9999	2400	0	0	0
2019/05/15 09:00:00	BASE	9.36	213	13.12	228	-4.3	76	-7.9	0	0	987.9	NA	0.0000		9999	2300	0	0	0
2019/05/15 09:01:00	BASE	8.49	223	13.12	228	-4.3	76	-7.9	0	0	988.0	NA	0.0000		9999	2170	0	0	0
2019/05/15 09:02:00	BASE	7.53	242	13.12	228	-4.3	76	-8.0	0	0	988.0	NA	0.0000		9999	2330	0	0	0
2019/05/15 09:03:00	BASE	7.23	250	13.12	228	-4.4	76	-8.0	0	0	988.0	NA	0.0000		9999	2330	0	0	0
2019/05/15 09:04:00	BASE	7.24	252	13.12	228	-4.4	75	-8.1	0	0	988.1	NA	0.0000		9999	2260	0	0	0
2019/05/15 09:05:00	BASE	6.46	247	13.12	228	-4.4	75	-8.1	0	0	988.1	NA	0.0000		9999	2300	0	0	0
2019/05/15 09:06:00	BASE	5.12	234	13.12	228	-4.4	75	-8.1	0	0	988.1	NA	0.0000		9999	2260	0	0	0
2019/05/15 09:07:00	BASE	4.01	230	10.91	238	-4.4	75	-8.2	0	0	988.2	NA	0.0000		9999	2230	0	0	0
2019/05/15 09:08:00	BASE	3.69	247	10.55	213	-4.4	75	-8.2	0	0	988.2	NA	0.0000		9999	2400	0	0	0
2019/05/15 09:09:00	BASE	4.14	255	10.39	215	-4.4	75	-8.2	0	0	988.2	NA	0.0000		9999	2400	0	0	0
2019/05/15 09:10:00	BASE	5.08	248	10.39	215	-4.4	75	-8.2	0	0	988.2	NA	0.0000		9999	2230	0	0	0
2019/05/15 09:11:00	BASE	6.44	243	9.00	239	-4.4	75	-8.1	0	0	988.2	NA	0.0000		9999	2430	0	0	0
2019/05/15 09:12:00	BASE	7.47	245	9.00	239	-4.4	75	-8.1	0	0	988.2	NA	0.0000		9999	2430	0	0	0
2019/05/15 09:13:00	BASE	7.15	249	9.00	239	-4.4	76	-8.0	0	0	988.2	NA	0.0000		9999	2430	0	0	0
2019/05/15 09:14:00	BASE	8.39	243	13.02	244	-4.4	76	-8.0	0	0	988.2	NA	0.0000		9999	2400	0	0	0
2019/05/15 09:15:00	BASE	11.10	237	14.10	242	-4.4	76	-8.0	0	0	988.2	NA	0.0000		9999	2400	0	0	0
2019/05/15 09:16:00	BASE	10.89	234	14.10	242	-4.4	76	-8.0	0	0	988.2	NA	0.0000		9999	2430	0	0	0
2019/05/15 09:17:00	BASE	7.89	235	14.10	242	-4.4	76	-8.0	0	0	988.2	NA	0.0000		9999	2260	0	0	0
2019/05/15 09:18:00	BASE	8.00	230	14.10	242	-4.4	76	-8.1	0	0	988.2	NA	0.0000		9999	2230	0	0	0
2019/05/15 09:19:00	BASE	9.36	222	14.10	242	-4.4	75	-8.1	0	0	988.2	NA	0.0000		9999	2330	0	0	0
2019/05/15 09:20:00	BASE	8.24	224	14.10	242	-4.4	75	-8.2	0	0	988.2	NA	0.0000		9999	2460	0	0	0
2019/05/15 09:21:00	BASE	8.40	228	14.10	242	-4.4	75	-8.2	0	0	988.3	NA	0.0000		9999	2460	0	0	0
2019/05/15 09:22:00	BASE	9.46	228	14.10	242	-4.3	75	-8.2	0	0	988.3	NA	0.0000		9999	2400	0	0	0
2019/05/15 09:23:00	BASE	9.42	223	14.10	242	-4.3	75	-8.2	0	0	988.3	NA	0.0000		9999	2430	0	0	0
2019/05/15 09:24:00	BASE	7.65	218	14.10	242	-4.3	74	-8.2	0	0	988.3	NA	0.0000		9999	2490	0	0	0
2019/05/15 09:25:00	BASE	6.76	206	11.68	234	-4.3	74	-8.2	0	0	988.3	NA	0.0000		9999	2490	0	0	0
2019/05/15 09:26:00	BASE	8.60	198	13.48	194	-4.4	74	-8.2	0	0	988.2	NA	0.0000		9999	2490	0	0	0
2019/05/15 09:27:00	BASE	9.50	210	13.48	194	-4.4	74	-8.3	0	0	988.3	NA	0.0000		9999	2490	0	0	0
2019/05/15 09:28:00	BASE	7.65	221	13.48	194	-4.4	74	-8.3	0	0	988.4	NA	0.0000		9999	2400	0	0	0
2019/05/15 09:29:00	BASE	5.74	227	13.48	194	-4.4	74	-8.4	0	0	988.4	NA	0.0000		9999	2360	0	0	0
2019/05/15 09:30:00	BASE	5.08	240	13.48	194	-4.4	74	-8.4	0	0	988.4	NA	0.0000		9999	2360	0	0	0
2019/05/15 09:31:00	BASE	4.95	239	13.48	194	-4.5	74	-8.4	0	0	988.4	NA	0.0000		9999	2490	0	0	0
2019/05/15 09:32:00	BASE	6.68	237	13.48	194	-4.5	74	-8.4	0	0	988.4	NA	0.0000		9999	2430	0	0	0
2019/05/15 09:33:00	BASE	8.80	249	13.48	194	-4.4	74	-8.4	0	0	988.4	NA	0.0000		9999	2360	0	0	0
2019/05/15 09:34:00	BASE	9.46	254	13.48	194	-4.4	74	-8.3	0	0	988.4	NA	0.0000		9999	2400	0	0	0
2019/05/15 09:35:00	BASE	8.65	255	13.48	194	-4.4	74	-8.3	0	0	988.5	NA	0.0000		9999	2430	0	0	0
2019/05/15 09:36:00	BASE	7.51	257	11.11	252	-4.4	75	-8.3	0	0	988.5	NA	0.0000		9999	2400	0	0	0
2019/05/15 09:37:00	BASE	7.16	252	11.11	252	-4.4	75	-8.2	0	0	988.5	NA	0.0000		9999	2490	0	0	0
2019/05/15 09:38:00	BASE	6.52	254	11.11	252	-4.5	75	-8.2	0	0	988.5	NA	0.0000		9999	2590	0	0	0
2019/05/15 09:39:00	BASE	6.35	256	11.11	252	-4.5	75	-8.2	0	0	988.5	NA	0.0000		9999	2560	0	0	0
2019/05/15 09:40:00	BASE	6.63	255	11.11	252	-4.5	75	-8.3	0	0	988.5	NA	0.0000		9999	2560	0	0	0
2019/05/15 09:41:00	BASE	8.12	257	11.11	247	-4.5	75	-8.3	0	0	988.5	NA	0.0000		9999	2530	0	0	0
2019/05/15 09:42:00	BASE	8.94	258	11.11	247	-4.5	75	-8.3	0	0	988.5	NA	0.0000		9999	2490	0	0	0
2019/05/15 09:43:00	BASE	7.87	257	11.11	247	-4.5	74	-8.4	0	0	988.5	NA	0.0000		9999	2400	0	0	0
2019/05/15 09:44:00	BASE	6.46	260	11.11	247	-4.6	74	-8.5	0	0	988.5	NA	0.0000		9999	2530	0	0	0
2019/05/15 09:45:00	BASE	5.45	260	11.11	247	-4.6	74	-8.6	0	0	988.5	NA	0.0000		9999	2620	0	0	0
2019/05/15 09:46:00	BASE	4.49	259	11.11	247	-4.6	73	-8.6	0	0	988.5	NA	0.0000		9999	2530	0	0	0
2019/05/15 09:47:00	BASE	4.39	258	11.11	247	-4.6	73	-8.6	0	0	988.5	NA	0.0000		9999	2460	0	0	0
2019/05/15 09:48:00	BASE	5.34	253	11.11	247	-4.5	73	-8.7	0	0	988.5	NA	0.0000		9999	2530	0	0	0
2019/05/15 09:49:00	BASE	6.01	247	11.11	247	-4.5	73	-8.6	0	0	988.5	NA	0.0000		9999	2530	0	0	0
2019/05/15 09:50:00	BASE	5.86	233	11.11	247	-4.6	73	-8.6	0	0	988.5	NA	0.0000		9999	2460	0	0	0
2019/05/15 09:51:00	BASE	4.90	224	9.11	265	-4.5	74	-8.5	0	0	988.5	NA	0.0000		9999	2430	0	0	0
2019/05/15 09:52:00	BASE	4.58	225	8.85	254	-4.5	74	-8.5	0	0	988.5	NA	0.0000		9999	2460	0	0	0
2019/05/15 09:53:00	BASE	5.93	230	9.98	236	-4.5	74	-8.5	0	0	988.5	NA	0.0000		9999	2460	0	0	0
2019/05/15 09:54:00	BASE	8.24	232	10.55	228	-4.5	74	-8.4	0	0	988.5	NA	0.0000		9999	2460	0	0	0
2019/05/15 09:55:00	BASE	7.60	232	10.55	228	-4.5	74	-8.4	0	0	988.5	NA	0.0000		9999	2400	0	0	0
2019/05/15 09:56:00	BASE	6.03	231	10.55	228	-4.5	74	-8.4	0	0	988.5	NA	0.0000		9999	2400	0	0	0
2019/05/15 09:57:00	BASE	6.01	234	10.55	228	-4.5	74	-8.4	0	0	988.5	NA	0.0000		9999	2460	0	0	0
2019/05/15 09:58:00	BASE	5.21	240	10.55	228	-4.5	74	-8.4	0	0	988.5	NA	0.0000		9999	2490	0	0	0
2019/05/15 09:59:00	BASE	5.22	239	10.55	228	-4.5	74	-8.5	0	0	988.5	NA	0.0000		9999	2560	0	0	0
2019/05/15 10:00:00	BASE	6.79	239	10.55	228	-4.5	74	-8.5	0	0	988.5	NA	0.0000		9999	2460	0	0	0
2019/05/15 10:01:00	BASE	7.95	246	10.55	228	-4.5	74	-8.5	0	0	988.5	NA	0.0000		9999	2460	0	0	0
2019/05/15 10:02:00	BASE	8.75	239	11.06	220	-4.5	73	-8.5	0	0	988.5	NA	0.0000		9999	2460	0	0	0
2019/05/15 10:03:00	BASE	9.57	226	11.06	220	-4.5	73	-8.6	0	0	988.5	NA	0.0000		9999	2490	0	0	0
2019/05/15 10:04:00	BASE	10.02	220	11.06	220	-4.6	73	-8.6	0	0	988.5	NA	0.0000		9999	2430	0	0	0
2019/05/15 10:05:00	BASE	9.36	208	11.06	220	-4.6	73	-8.7	0	0	988.5	NA	0.0000		9999	2400	0	0	0
2019/05/15 10:06:00	BASE	8.47	202	11.06	220	-4.6	73	-8.8	0	0	988.5	NA	0.0000		9999	2490	0	0	0
2019/05/15 10:07:00	BASE	8.38	205	11.06	220	-4.6	72	-8.8	0	0	988.5	NA	0.0000		9999	2560	0	0	0
2019/05/15 10:08:00	BASE	9.08	205	11.06	220	-4.6	72	-8.8	0	0	988.5	NA	0.0000		9999	2490	0	0	0
2019/05/15 10:09:00	BASE	8.78	201	11.06	220	-4.6	72	-8.8	0	0	988.5	NA	0.0000		9999	2490	0	0	0
2019/05/15 10:10:00	BASE	7.69	213	11.06	220	-4.6	73	-8.7	0	0	988.5	NA	0.0000		9999	2400	0	0	0
2019/05/15 10:11:00	BASE	6.74	221	11.06	220	-4.6	73	-8.7	0	0	988.5	NA	0.0000		9999	2400	0	0	0
2019/05/15 10:12:00	BASE	6.56	221	10.96	203	-4.5	73	-8.7	0	0	988.5	NA	0.0000		9999	2430	0	0	0
2019/05/15 10:13:00	BASE	7.42	221	10.96	203	-4.6	73	-8.7	0	0	988.5	NA	0.0000		9999	2560	0	0	0
2019/05/15 10:14:00	BASE	6.84	217	10.96	203	-4.6	73	-8.7	0	0	988.5	NA	0.0000		9999	2490	0	0	0
2019/05/15 10:15:00	BASE	5.32	219	10.96	203	-4.5	73	-8.7	0	0	988.6	NA	0.0000		9999	2430	0	0	0
2019/05/15 10:16:00	BASE	4.85	225	10.96	203	-4.6	73	-8.7	0	0	988.6	NA	0.0000		9999	2560	0	0	0
2019/05/15 10:17:00	BASE	4.96	228	10.96	203	-4.6	72	-8.8	0	0	988.5	NA	0.0000		9999	2560	0	0	0
2019/05/15 10:18:00	BASE	5.66	228	9.16	195	-4.6	72	-8.8	0	0	988.5	NA	0.0000		9999	2530	0	0	0
2019/05/15 10:19:00	BASE	5.71	231	8.80	218	-4.6	72	-8.9	0	0	988.6	NA	0.0000		9999	2690	0	0	0
2019/05/15 10:20:00	BASE	5.67	226	8.80	218	-4.6	72	-8.9	0	0	988.7	NA	0.0000		9999	2660	0	0	0
2019/05/15 10:21:00	BASE	5.81	223	8.80	218	-4.6	72	-8.8	0	0	988.7	NA	0.0000		9999	2560	0	0	0
2019/05/15 10:22:00	BASE	4.85	224	8.80	218	-4.5	72	-8.8	0	0	988.6	NA	0.0000		9999	2460	0	0	0
2019/05/15 10:23:00	BASE	3.26	212	8.33	217	-4.5	72	-8.8	0	0	988.7	NA	0.0000		9999	2430	0	0	0
2019/05/15 10:24:00	BASE	3.04	205	8.33	217	-4.5	72	-8.8	0	0	988.7	NA	0.0000		9999	2560	0	0	0
2019/05/15 10:25:00	BASE	4.80	214	8.33	217	-4.5	72	-8.8	0	0	988.6	NA	0.0000		9999	2560	0	0	0
2019/05/15 10:26:00	BASE	5.48	242	8.33	217	-4.5	72	-8.7	0	0	988.7	NA	0.0000		9999	2560	0	0	0
2019/05/15 10:27:00	BASE	4.93	270	8.33	217	-4.5	73	-8.7	0	0	988.6	NA	0.0000		9999	2560	0	0	0
2019/05/15 10:28:00	BASE	3.95	267	8.33	217	-4.5	73	-8.6	0	0	988.7	NA	0.0000		9999	2590	0	0	0
2019/05/15 10:29:00	BASE	5.45	247	8.33	217	-4.5	73	-8.6	0	0	988.5	NA	0.0000		9999	2530	0	0	0
2019/05/15 10:30:00	BASE	8.58	228	10.55	232	-4.5	73	-8.6	0	0	988.5	NA	0.0000		9999	2490	0	0	0
2019/05/15 10:31:00	BASE	9.64	229	10.80	240	-4.5	73	-8.5	0	0	988.5	NA	0.0000		9999	2490	0	0	0
2019/05/15 10:32:00	BASE	9.13	238	10.80	240	-4.5	73	-8.5	0	0	988.6	NA	0.0000		9999	2490	0	0	0
2019/05/15 10:33:00	BASE	8.36	247	10.80	240	-4.5	73	-8.5	0	0	988.7	NA	0.0000		9999	2530	0	0	0
2019/05/15 10:34:00	BASE	7.22	249	10.80	240	-4.5	73	-8.6	0	0	988.7	NA	0.0000		9999	2460	0	0	0
2019/05/15 10:35:00	BASE	5.25	248	10.80	240	-4.6	73	-8.6	0	0	988.7	NA	0.0000		9999	2530	0	0	0
2019/05/15 10:36:00	BASE	3.80	253	10.80	240	-4.6	73	-8.7	0	0	988.7	NA	0.0000		9999	2530	0	0	0
2019/05/15 10:37:00	BASE	2.97	260	10.80	240	-4.6	73	-8.7	0	0	988.7	NA	0.0000		9999	2360	0	0	0
2019/05/15 10:38:00	BASE	2.39	268	10.80	240	-4.6	73	-8.8	0	0	988.7	NA	0.0000		9999	2360	0	0	0
2019/05/15 10:39:00	BASE	2.50	255	10.80	240	-4.6	73	-8.8	0	0	988.7	NA	0.0000		9999	2490	0	0	0
2019/05/15 10:40:00	BASE	3.23	228	10.80	240	-4.6	72	-8.8	0	0	988.7	NA	0.0000		9999	2530	0	0	0
2019/05/15 10:41:00	BASE	3.21	212	9.62	246	-4.6	72	-8.9	0	0	988.7	NA	0.0000		9999	2490	0	0	0
2019/05/15 10:42:00	BASE	2.57	218	9.62	246	-4.6	72	-8.9	0	0	988.7	NA	0.0000		9999	2490	0	0	0
2019/05/15 10:43:00	BASE	2.57	224	7.82	249	-4.6	72	-8.9	0	0	988.7	NA	0.0000		9999	2530	0	0	0
2019/05/15 10:44:00	BASE	4.12	218	8.23	233	-4.6	72	-8.9	0	0	988.7	NA	0.0000		9999	2490	0	0	0
2019/05/15 10:45:00	BASE	6.40	228	8.23	233	-4.6	72	-8.8	0	0	988.7	NA	0.0000		9999	2460	0	0	0
2019/05/15 10:46:00	BASE	5.84	246	8.23	233	-4.6	72	-8.8	0	0	988.7	NA	0.0000		9999	2490	0	0	0
2019/05/15 10:47:00	BASE	4.41	249	8.23	233	-4.6	73	-8.7	0	0	988.7	NA	0.0000		9999	2460	0	0	0
2019/05/15 10:48:00	BASE	4.32	246	8.23	233	-4.6	73	-8.7	0	0	988.7	NA	0.0000		9999	2490	0	0	0
2019/05/15 10:49:00	BASE	4.15	249	8.23	233	-4.6	73	-8.7	0	0	988.7	NA	0.0000		9999	2490	0	0	0
2019/05/15 10:50:00	BASE	6.15	245	9.21	239	-4.6	73	-8.7	0	0	988.8	NA	0.0000		9999	2490	0	0	0
2019/05/15 10:51:00	BASE	8.37	232	9.21	227	-4.6	73	-8.7	0	0	988.7	NA	0.0000		9999	2490	0	0	0
2019/05/15 10:52:00	BASE	8.17	220	9.21	227	-4.6	73	-8.6	0	0	988.7	NA	0.0000		9999	2490	0	0	0
2019/05/15 10:53:00	BASE	7.65	222	9.21	227	-4.6	73	-8.6	0	0	988.7	NA	0.0000		9999	2400	0	0	0
2019/05/15 10:54:00	BASE	7.27	228	9.21	227	-4.6	73	-8.6	0	0	988.7	NA	0.0000		9999	2690	0	0	0
2019/05/15 10:55:00	BASE	7.09	222	9.21	227	-4.6	73	-8.6	0	0	988.7	NA	0.0000		9999	2490	0	0	0
2019/05/15 10:56:00	BASE	5.94	212	9.21	227	-4.6	73	-8.6	0	0	988.7	NA	0.0000		9999	2560	0	0	0
2019/05/15 10:57:00	BASE	3.49	211	9.21	227	-4.6	73	-8.7	0	0	988.7	NA	0.0000		9999	2430	0	0	0
2019/05/15 10:58:00	BASE	2.15	220	9.21	227	-4.6	73	-8.8	0	0	988.7	NA	0.0000		9999	2360	0	0	0
2019/05/15 10:59:00	BASE	1.57	228	9.21	227	-4.7	73	-8.8	0	0	988.7	NA	0.0000		9999	2230	0	0	0
2019/05/15 11:00:00	BASE	0.55	202	9.21	227	-4.7	72	-8.9	0	0	988.7	NA	0.0000		9999	2170	0	0	0
2019/05/15 11:01:00	BASE	0.00	189	8.39	218	-4.7	72	-8.9	0	0	988.7	NA	0.0000		9999	2170	0	0	0
2019/05/15 11:02:00	BASE	0.00	210	8.33	201	-4.6	72	-8.9	0	0	988.7	NA	0.0000		9999	2330	0	0	0
2019/05/15 11:03:00	BASE	0.78	230	8.33	201	-4.6	72	-8.9	0	0	988.7	NA	0.0000		9999	2330	0	0	0
2019/05/15 11:04:00	BASE	2.49	254	8.33	201	-4.6	72	-8.9	0	0	988.7	NA	0.0000		9999	2330	0	0	0
2019/05/15 11:05:00	BASE	3.17	260	6.69	212	-4.6	72	-8.8	0	0	988.7	NA	0.0000		9999	2330	0	0	0
2019/05/15 11:06:00	BASE	2.79	250	4.01	273	-4.6	73	-8.8	0	0	988.7	NA	0.0000		9999	2300	0	0	0
2019/05/15 11:07:00	BASE	2.99	246	4.68	247	-4.6	73	-8.8	0	0	988.7	NA	0.0000		9999	2170	0	0	0
2019/05/15 11:08:00	BASE	4.26	229	6.33	224	-4.6	73	-8.7	0	0	988.7	NA	0.0000		9999	2230	0	0	0
2019/05/15 11:09:00	BASE	5.93	219	7.92	228	-4.6	74	-8.6	0	0	988.7	NA	0.0000		9999	2230	0	0	0
2019/05/15 11:10:00	BASE	7.92	222	9.98	222	-4.5	74	-8.4	0	0	988.7	NA	0.0000		9999	2300	0	0	0
2019/05/15 11:11:00	BASE	8.97	225	9.98	222	-4.5	75	-8.3	0	0	988.7	NA	0.0000		9999	2230	0	0	0
2019/05/15 11:12:00	BASE	7.89	231	9.98	222	-4.4	75	-8.1	0	0	988.7	NA	0.0000		9999	2230	0	0	0
2019/05/15 11:13:00	BASE	8.06	227	10.44	223	-4.4	76	-8.0	0	0	988.7	NA	0.0000		9999	2260	0	0	0
2019/05/15 11:14:00	BASE	8.99	215	10.44	223	-4.4	76	-8.0	0	0	988.7	NA	0.0000		9999	2170	0	0	0
2019/05/15 11:15:01	BASE	8.57	207	10.44	223	-4.5	77	-8.0	0	0	988.7	NA	0.0000		9999	2230	0	0	0
2019/05/15 11:16:00	BASE	7.34	204	10.44	223	-4.5	77	-8.0	0	0	988.7	NA	0.0000		9999	2230	0	0	0
2019/05/15 11:17:00	BASE	6.84	205	10.44	223	-4.5	77	-8.0	0	0	988.8	NA	0.0000		9999	2260	0	0	0
2019/05/15 11:18:00	BASE	7.97	218	10.44	223	-4.5	77	-8.0	0	0	988.9	NA	0.0000		9999	2330	0	0	0
2019/05/15 11:19:00	BASE	8.77	225	10.44	223	-4.6	77	-8.0	0	0	988.8	NA	0.0000		9999	2230	0	0	0
2019/05/15 11:20:00	BASE	7.56	217	10.44	223	-4.6	77	-8.0	0	0	988.9	NA	0.0000		9999	2230	0	0	0
2019/05/15 11:21:00	BASE	7.40	218	11.94	230	-4.6	77	-8.1	0	0	988.9	NA	0.0000		9999	2170	0	0	0
2019/05/15 11:22:00	BASE	9.69	229	11.99	237	-4.6	76	-8.1	0	0	988.9	NA	0.0000		9999	2200	0	0	0
2019/05/15 11:23:00	BASE	10.50	238	11.99	237	-4.6	76	-8.1	0	0	988.9	NA	0.0000		9999	2260	0	0	0
2019/05/15 11:24:00	BASE	9.73	236	11.99	237	-4.6	76	-8.1	0	0	988.9	NA	0.0000		9999	2260	0	0	0
2019/05/15 11:25:00	BASE	8.72	234	11.99	237	-4.6	76	-8.1	0	0	988.9	NA	0.0000		9999	2260	0	0	0
2019/05/15 11:26:00	BASE	8.75	235	11.99	237	-4.6	77	-8.0	0	0	988.8	NA	0.0000		9999	2300	0	0	0
2019/05/15 11:27:00	BASE	8.86	240	11.99	237	-4.6	77	-8.0	0	0	988.9	NA	0.0000		9999	2330	0	0	0
2019/05/15 11:28:00	BASE	8.51	249	11.99	237	-4.6	77	-8.0	0	0	988.8	NA	0.0000		9999	2200	0	0	0
2019/05/15 11:29:00	BASE	8.35	244	11.99	237	-4.6	77	-8.1	0	0	988.8	NA	0.0000		9999	2130	0	0	0
2019/05/15 11:30:00	BASE	7.65	245	11.99	237	-4.7	77	-8.1	0	0	988.8	NA	0.0000		9999	2200	0	0	0
2019/05/15 11:31:00	BASE	6.26	255	11.99	237	-4.7	77	-8.1	0	0	988.9	NA	0.0000		9999	2360	0	0	0
2019/05/15 11:32:00	BASE	5.19	255	11.47	241	-4.7	77	-8.2	0	0	988.9	NA	0.0000		9999	2360	0	0	0
2019/05/15 11:33:00	BASE	5.32	246	10.75	234	-4.7	76	-8.2	0	0	988.9	NA	0.0000		9999	2400	0	0	0
2019/05/15 11:34:00	BASE	5.46	238	10.39	227	-4.7	76	-8.3	0	0	988.9	NA	0.0000		9999	2400	0	0	0
2019/05/15 11:35:00	BASE	4.91	232	10.39	227	-4.7	76	-8.3	0	0	988.9	NA	0.0000		9999	2400	0	0	0
2019/05/15 11:36:00	BASE	3.93	227	9.72	239	-4.7	76	-8.3	0	0	988.9	NA	0.0000		9999	2360	0	0	0
2019/05/15 11:37:00	BASE	3.41	228	9.72	239	-4.7	76	-8.3	0	0	989.0	NA	0.0000		9999	2400	0	0	0
2019/05/15 11:38:00	BASE	3.54	238	9.72	239	-4.7	76	-8.3	0	0	989.0	NA	0.0000		9999	2430	0	0	0
2019/05/15 11:39:00	BASE	4.70	240	7.67	241	-4.7	75	-8.4	0	0	989.0	NA	0.0000		9999	2490	0	0	0
2019/05/15 11:40:00	BASE	6.77	236	8.64	226	-4.7	75	-8.4	0	0	989.0	NA	0.0000		9999	2460	0	0	0
2019/05/15 11:41:00	BASE	8.06	236	9.83	234	-4.7	75	-8.4	0	0	989.0	NA	0.0000		9999	2400	0	0	0
2019/05/15 11:42:00	BASE	7.52	232	9.83	234	-4.7	75	-8.4	0	0	989.0	NA	0.0000		9999	2430	0	0	0
2019/05/15 11:43:00	BASE	6.89	229	9.83	234	-4.7	75	-8.5	0	0	989.0	NA	0.0000		9999	2460	0	0	0
2019/05/15 11:44:00	BASE	6.18	225	9.83	234	-4.7	75	-8.5	0	0	989.0	NA	0.0000		9999	2460	0	0	0
2019/05/15 11:45:00	BASE	5.14	227	9.83	234	-4.7	74	-8.6	0	0	989.0	NA	0.0000		9999	2460	0	0	0
2019/05/15 11:46:00	BASE	5.36	234	9.83	234	-4.7	74	-8.6	0	0	989.0	NA	0.0000		9999	2460	0	0	0
2019/05/15 11:47:00	BASE	5.93	235	9.83	234	-4.7	74	-8.6	0	0	989.0	NA	0.0000		9999	2460	0	0	0
2019/05/15 11:48:00	BASE	5.70	237	9.83	234	-4.7	74	-8.7	0	0	989.0	NA	0.0000		9999	2530	0	0	0
2019/05/15 11:49:00	BASE	5.24	227	9.83	234	-4.7	74	-8.7	0	0	989.0	NA	0.0000		9999	2360	0	0	0
2019/05/15 11:50:00	BASE	4.82	210	9.83	234	-4.7	73	-8.7	0	0	989.0	NA	0.0000		9999	2360	0	0	0
2019/05/15 11:51:00	BASE	3.57	209	7.87	237	-4.7	73	-8.8	0	0	989.1	NA	0.0000		9999	2430	0	0	0
2019/05/15 11:52:00	BASE	2.77	208	7.87	237	-4.7	73	-8.8	0	0	989.1	NA	0.0000		9999	2560	0	0	0
2019/05/15 11:53:00	BASE	3.26	209	7.05	234	-4.7	73	-8.9	0	0	989.1	NA	0.0000		9999	2560	0	0	0
2019/05/15 11:54:00	BASE	3.56	220	7.05	234	-4.7	72	-8.9	0	0	989.1	NA	0.0000		9999	2530	0	0	0
2019/05/15 11:55:00	BASE	3.02	232	7.05	234	-4.7	72	-8.9	0	0	989.1	NA	0.0000		9999	2490	0	0	0
2019/05/15 11:56:00	BASE	2.71	236	7.05	234	-4.7	72	-9.0	0	0	989.1	NA	0.0000		9999	2430	0	0	0
2019/05/15 11:57:00	BASE	2.84	238	6.12	210	-4.7	72	-9.0	0	0	989.1	NA	0.0000		9999	2530	0	0	0
2019/05/15 11:58:00	BASE	3.17	225	6.12	210	-4.7	72	-8.9	0	0	989.1	NA	0.0000		9999	2400	0	0	0
2019/05/15 11:59:00	BASE	2.95	210	5.92	206	-4.7	72	-8.9	0	0	989.1	NA	0.0000		9999	2460	0	0	0
2019/05/15 12:00:00	BASE	2.52	218	4.17	214	-4.6	72	-8.8	0	0	989.1	NA	0.0000		9999	2530	0	0	0
2019/05/15 12:01:00	BASE	2.69	233	4.17	214	-4.6	73	-8.8	0	0	989.0	NA	0.0000		9999	2530	0	0	0
2019/05/15 12:02:00	BASE	2.59	232	4.17	214	-4.6	73	-8.8	0	0	989.0	NA	0.0000		9999	2400	0	0	0
2019/05/15 12:03:00	BASE	2.51	234	4.17	214	-4.6	73	-8.7	0	0	989.0	NA	0.0000		9999	2400	0	0	0
2019/05/15 12:04:00	BASE	2.80	248	4.17	214	-4.6	73	-8.7	0	0	989.0	NA	0.0000		9999	2430	0	0	0
2019/05/15 12:05:00	BASE	3.59	239	5.56	221	-4.6	73	-8.7	0	0	989.0	NA	0.0000		9999	2490	0	0	0
2019/05/15 12:06:00	BASE	3.95	226	5.56	221	-4.6	73	-8.7	0	0	989.0	NA	0.0000		9999	2460	0	0	0
2019/05/15 12:07:00	BASE	3.69	236	5.56	221	-4.6	73	-8.7	0	0	989.0	NA	0.0000		9999	2530	0	0	0
2019/05/15 12:08:00	BASE	3.48	259	5.56	221	-4.6	73	-8.7	0	0	989.1	NA	0.0000		9999	2490	0	0	0
2019/05/15 12:09:00	BASE	3.71	275	5.56	221	-4.6	73	-8.7	0	0	989.1	NA	0.0000		9999	2460	0	0	0
2019/05/15 12:10:00	BASE	4.35	266	5.61	255	-4.6	73	-8.7	0	0	989.1	NA	0.0000		9999	2430	0	0	0
2019/05/15 12:11:00	BASE	5.58	259	8.85	247	-4.6	73	-8.7	0	0	989.0	NA	0.0000		9999	2460	0	0	0
2019/05/15 12:12:00	BASE	7.85	256	9.93	253	-4.6	73	-8.7	0	0	989.0	NA	0.0000		9999	2460	0	0	0
2019/05/15 12:13:00	BASE	8.41	250	9.93	253	-4.6	73	-8.7	0	0	989.0	NA	0.0000		9999	2430	0	0	0
2019/05/15 12:14:00	BASE	7.51	249	9.93	253	-4.6	73	-8.7	0	0	989.0	NA	0.0000		9999	2460	0	0	0
2019/05/15 12:15:00	BASE	7.57	243	9.93	253	-4.7	73	-8.8	0	0	989.0	NA	0.0000		9999	2490	0	0	0
2019/05/15 12:16:00	BASE	8.19	237	9.93	253	-4.7	73	-8.7	0	0	989.0	NA	0.0000		9999	2460	0	0	0
2019/05/15 12:17:00	BASE	8.71	230	9.98	227	-4.7	73	-8.7	0	0	989.0	NA	0.0000		9999	2460	0	0	0
2019/05/15 12:18:00	BASE	8.51	230	9.98	227	-4.6	74	-8.6	0	0	989.0	NA	0.0000		9999	2490	0	0	0
2019/05/15 12:19:00	BASE	7.70	239	9.98	227	-4.6	74	-8.6	0	0	989.0	NA	0.0000		9999	2460	0	0	0
2019/05/15 12:20:00	BASE	6.55	229	9.98	227	-4.6	74	-8.6	0	0	989.0	NA	0.0000		9999	2330	0	0	0
2019/05/15 12:21:00	BASE	5.39	205	9.98	227	-4.7	74	-8.7	0	0	989.0	NA	0.0000		9999	2360	0	0	0
2019/05/15 12:22:00	BASE	4.37	187	9.98	227	-4.7	73	-8.7	0	0	989.0	NA	0.0000		9999	2330	0	0	0
2019/05/15 12:23:00	BASE	3.49	174	9.98	227	-4.7	73	-8.8	0	0	989.0	NA	0.0000		9999	2330	0	0	0
2019/05/15 12:24:00	BASE	3.26	163	9.98	227	-4.7	73	-8.9	0	0	989.0	NA	0.0000		9999	2260	0	0	0
2019/05/15 12:25:00	BASE	4.22	180	9.98	227	-4.7	73	-8.9	0	0	989.0	NA	0.0000		9999	2300	0	0	0
2019/05/15 12:26:00	BASE	3.94	211	9.98	227	-4.7	72	-9.0	0	0	989.0	NA	0.0000		9999	2360	0	0	0
2019/05/15 12:27:00	BASE	2.48	217	9.21	246	-4.7	72	-9.0	0	0	989.0	NA	0.0000		9999	2330	0	0	0
2019/05/15 12:28:00	BASE	1.90	216	8.69	247	-4.7	72	-9.0	0	0	989.0	NA	0.0000		9999	2360	0	0	0
2019/05/15 12:29:00	BASE	1.94	208	7.31	211	-4.7	72	-8.9	0	0	989.0	NA	0.0000		9999	2400	0	0	0
2019/05/15 12:30:00	BASE	3.14	199	6.69	199	-4.7	72	-8.9	0	0	989.0	NA	0.0000		9999	2330	0	0	0
2019/05/15 12:31:00	BASE	5.33	216	7.36	237	-4.7	73	-8.8	0	0	989.0	NA	0.0000		9999	2330	0	0	0
2019/05/15 12:32:00	BASE	6.63	218	8.03	197	-4.6	73	-8.7	0	0	989.0	NA	0.0000		9999	2360	0	0	0
2019/05/15 12:33:00	BASE	6.79	213	8.39	224	-4.6	74	-8.6	0	0	989.0	NA	0.0000		9999	2360	0	0	0
2019/05/15 12:34:00	BASE	7.61	219	8.49	217	-4.6	74	-8.5	0	0	989.0	NA	0.0000		9999	2400	0	0	0
2019/05/15 12:35:00	BASE	7.44	214	8.49	217	-4.6	74	-8.5	0	0	989.0	NA	0.0000		9999	2400	0	0	0
2019/05/15 12:36:00	BASE	7.11	212	8.49	217	-4.6	74	-8.5	0	0	989.0	NA	0.0000		9999	2430	0	0	0
2019/05/15 12:37:00	BASE	7.08	208	8.49	217	-4.6	74	-8.5	0	0	989.0	NA	0.0000		9999	2490	0	0	0
2019/05/15 12:38:00	BASE	6.56	204	8.49	217	-4.7	74	-8.6	1	0	989.0	NA	0.0000		9999	2490	0	0	0
2019/05/15 12:39:00	BASE	7.24	212	9.62	233	-4.6	74	-8.6	1	0	989.0	NA	0.0000		9999	2460	0	0	0
2019/05/15 12:40:00	BASE	8.45	225	9.88	236	-4.6	74	-8.6	1	0	989.0	NA	0.0000		9999	2490	0	0	0
2019/05/15 12:41:00	BASE	7.74	232	9.88	236	-4.6	74	-8.6	1	0	989.0	NA	0.0000		9999	2330	0	0	0
2019/05/15 12:42:00	BASE	7.56	237	9.88	236	-4.6	74	-8.5	1	0	989.1	NA	0.0000		9999	2430	0	0	0
2019/05/15 12:43:00	BASE	7.61	243	9.88	236	-4.7	74	-8.5	1	0	989.1	NA	0.0000		9999	2400	0	0	0
2019/05/15 12:44:00	BASE	5.22	245	9.88	236	-4.7	74	-8.6	1	0	989.1	NA	0.0000		9999	2330	0	0	0
2019/05/15 12:45:00	BASE	3.04	228	9.88	236	-4.7	74	-8.6	1	0	989.0	NA	0.0000		9999	2260	0	0	0
2019/05/15 12:46:00	BASE	2.58	203	9.88	236	-4.7	74	-8.6	1	0	989.0	NA	0.0000		9999	2460	0	0	0
2019/05/15 12:47:00	BASE	5.31	203	9.88	236	-4.8	74	-8.7	1	0	989.0	NA	0.0000		9999	2200	0	0	0
2019/05/15 12:48:00	BASE	7.28	209	9.88	236	-4.8	74	-8.7	1	0	989.0	NA	0.0000		9999	2200	0	0	0
2019/05/15 12:49:00	BASE	5.98	211	9.88	236	-4.8	74	-8.7	1	0	989.1	NA	0.0000		9999	2170	0	0	0
2019/05/15 12:50:00	BASE	3.87	213	9.57	217	-4.8	74	-8.8	1	0	989.1	NA	0.0000		9999	2330	0	0	0
2019/05/15 12:51:00	BASE	2.70	207	9.57	217	-4.8	74	-8.8	1	0	989.1	NA	0.0000		9999	2400	0	0	0
2019/05/15 12:52:00	BASE	2.40	183	9.57	217	-4.8	73	-8.8	1	0	989.1	NA	0.0000		9999	2360	0	0	0
2019/05/15 12:53:00	BASE	2.08	171	9.57	217	-4.8	73	-8.9	1	0	989.0	NA	0.0000		9999	2360	0	0	0
2019/05/15 12:54:00	BASE	3.12	184	9.57	217	-4.8	73	-8.9	1	0	989.0	NA	0.0000		9999	2460	0	0	0
2019/05/15 12:55:00	BASE	3.60	198	9.57	217	-4.8	73	-8.9	1	0	989.1	NA	0.0000		9999	2360	0	0	0
2019/05/15 12:56:00	BASE	2.75	205	9.57	217	-4.8	73	-8.9	1	0	989.1	NA	0.0000		9999	2460	0	0	0
2019/05/15 12:57:00	BASE	1.99	200	7.56	202	-4.8	73	-8.9	1	0	989.1	NA	0.0000		9999	2330	0	0	0
2019/05/15 12:58:00	BASE	1.73	192	6.48	219	-4.8	73	-8.9	1	0	989.1	NA	0.0000		9999	2430	0	0	0
2019/05/15 12:59:00	BASE	1.28	184	5.35	200	-4.8	73	-8.9	1	0	989.1	NA	0.0000		9999	2400	0	0	0
2019/05/15 13:00:00	BASE	0.33	189	5.35	200	-4.8	73	-8.9	1	0	989.1	NA	0.0000		9999	2360	0	0	0
2019/05/15 13:01:00	BASE	0.00	155	5.35	200	-4.8	73	-8.9	1	0	989.1	NA	0.0000		9999	2330	0	0	0
2019/05/15 13:02:00	BASE	0.00	85	5.35	200	-4.7	73	-8.8	1	0	989.0	NA	0.0000		9999	2300	0	0	0
2019/05/15 13:03:00	BASE	0.00	25	5.35	200	-4.7	73	-8.8	1	0	989.0	NA	0.0000		9999	2360	0	0	0
2019/05/15 13:04:00	BASE	0.00	335	3.45	204	-4.7	73	-8.8	1	0	989.0	NA	0.0000		9999	2330	0	0	0
2019/05/15 13:05:00	BASE	0.05	286	3.40	197	-4.7	73	-8.8	1	0	989.0	NA	0.0000		9999	2330	0	0	0
2019/05/15 13:06:00	BASE	0.75	261	2.78	196	-4.7	73	-8.8	1	0	989.0	NA	0.0000		9999	2330	0	0	0
2019/05/15 13:07:00	BASE	1.32	249	2.26	187	-4.7	73	-8.8	2	0	989.0	NA	0.0000		9999	2330	0	0	0
2019/05/15 13:08:00	BASE	2.10	216	3.45	186	-4.7	73	-8.8	2	0	989.0	NA	0.0000		9999	2330	0	0	0
2019/05/15 13:09:00	BASE	2.69	189	3.45	186	-4.7	73	-8.7	2	0	989.0	NA	0.0000		9999	2300	0	0	0
2019/05/15 13:10:00	BASE	2.59	192	4.48	215	-4.6	73	-8.7	2	0	989.0	NA	0.0000		9999	2300	0	0	0
2019/05/15 13:11:00	BASE	3.75	203	5.92	194	-4.6	74	-8.6	2	0	988.9	NA	0.0000		9999	2300	0	0	0
2019/05/15 13:12:00	BASE	4.93	210	6.48	219	-4.6	74	-8.5	2	0	988.9	NA	0.0000		9999	2300	0	0	0
2019/05/15 13:13:00	BASE	5.50	214	6.53	215	-4.6	75	-8.4	2	0	988.9	NA	0.0000		9999	2300	0	0	0
2019/05/15 13:14:00	BASE	5.59	216	6.53	215	-4.6	75	-8.3	2	0	988.9	NA	0.0000		9999	2260	0	0	0
2019/05/15 13:15:00	BASE	5.75	222	7.00	226	-4.6	76	-8.2	2	0	988.9	NA	0.0000		9999	2260	0	0	0
2019/05/15 13:16:00	BASE	6.54	224	7.25	231	-4.6	76	-8.2	2	0	988.9	NA	0.0000		9999	2260	0	0	0
2019/05/15 13:17:00	BASE	6.76	223	7.25	226	-4.6	76	-8.2	2	0	988.9	NA	0.0000		9999	2260	0	0	0
2019/05/15 13:18:00	BASE	6.35	225	7.25	226	-4.6	76	-8.2	2	0	988.9	NA	0.0000		9999	2170	0	0	0
2019/05/15 13:19:00	BASE	5.84	233	7.25	226	-4.6	76	-8.2	2	0	988.9	NA	0.0000		9999	2100	0	0	0
2019/05/15 13:20:00	BASE	6.37	227	8.18	213	-4.6	76	-8.2	2	0	988.9	NA	0.0000		9999	2170	0	0	0
2019/05/15 13:21:00	BASE	6.66	213	8.18	213	-4.6	76	-8.2	2	0	988.9	NA	0.0000		9999	2300	0	0	0
2019/05/15 13:22:00	BASE	5.15	214	8.18	213	-4.6	76	-8.2	2	0	989.0	NA	0.0000		9999	2260	0	0	0
2019/05/15 13:23:00	BASE	4.43	219	8.18	213	-4.6	76	-8.3	2	0	989.0	NA	0.0000		9999	2170	0	0	0
2019/05/15 13:24:00	BASE	4.03	213	8.18	213	-4.7	76	-8.3	3	0	989.0	NA	0.0000		9999	2230	0	0	0
2019/05/15 13:25:00	BASE	3.03	204	8.18	213	-4.7	75	-8.4	3	0	989.0	NA	0.0000		9999	2200	0	0	0
2019/05/15 13:26:00	BASE	2.91	193	8.18	213	-4.8	75	-8.5	3	0	989.0	NA	0.0000		9999	2300	0	0	0
2019/05/15 13:27:00	BASE	2.52	175	8.18	213	-4.8	75	-8.6	3	0	988.9	NA	0.0000		9999	2330	0	0	0
2019/05/15 13:28:00	BASE	1.85	165	8.18	213	-4.8	74	-8.7	3	0	988.9	NA	0.0000		9999	2400	0	0	0
2019/05/15 13:29:00	BASE	1.69	174	8.18	213	-4.8	74	-8.7	3	0	988.9	NA	0.0000		9999	2400	0	0	0
2019/05/15 13:30:00	BASE	1.44	183	6.84	212	-4.8	74	-8.7	3	0	988.9	NA	0.0000		9999	2330	0	0	0
2019/05/15 13:31:00	BASE	0.91	205	5.61	215	-4.8	75	-8.6	3	0	988.9	NA	0.0000		9999	2360	0	0	0
2019/05/15 13:32:00	BASE	0.29	242	5.61	215	-4.8	75	-8.6	3	0	988.9	NA	0.0000		9999	2330	0	0	0
2019/05/15 13:33:00	BASE	0.00	274	5.09	213	-4.8	75	-8.6	3	0	988.9	NA	0.0000		9999	2330	0	0	0
2019/05/15 13:34:00	BASE	0.64	288	3.81	217	-4.8	75	-8.6	3	0	988.9	NA	0.0000		9999	2300	0	0	0
2019/05/15 13:35:00	BASE	2.30	296	4.06	291	-4.8	75	-8.6	3	0	988.9	NA	0.0000		9999	2260	0	0	0
2019/05/15 13:36:00	BASE	3.35	316	4.22	320	-4.8	75	-8.6	3	0	988.9	NA	0.0000		9999	2330	0	0	0
2019/05/15 13:37:00	BASE	3.50	310	4.84	291	-4.8	75	-8.6	4	0	988.9	NA	0.0000		9999	2330	0	0	0
2019/05/15 13:38:00	BASE	4.40	280	6.69	239	-4.7	75	-8.5	4	0	988.9	NA	0.0000		9999	2300	0	0	0
2019/05/15 13:39:00	BASE	4.90	268	6.69	239	-4.7	75	-8.5	4	0	989.0	NA	0.0000		9999	2330	0	0	0
2019/05/15 13:40:00	BASE	5.35	268	7.10	268	-4.7	75	-8.5	4	0	989.0	NA	0.0000		9999	2360	0	0	0
2019/05/15 13:41:00	BASE	5.40	266	7.10	268	-4.7	75	-8.5	4	0	989.0	NA	0.0000		9999	2330	0	0	0
2019/05/15 13:42:00	BASE	4.33	266	7.10	268	-4.7	75	-8.5	4	0	989.0	NA	0.0000		9999	2300	0	0	0
2019/05/15 13:43:00	BASE	4.81	265	7.10	268	-4.8	75	-8.5	4	0	989.0	NA	0.0000		9999	2260	0	0	0
2019/05/15 13:44:00	BASE	5.73	259	7.10	268	-4.8	75	-8.5	4	0	989.0	NA	0.0000		9999	2230	0	0	0
2019/05/15 13:45:00	BASE	5.34	252	7.10	268	-4.8	75	-8.6	4	0	989.0	NA	0.0000		9999	2300	0	0	0
2019/05/15 13:46:00	BASE	3.70	251	7.10	268	-4.8	75	-8.6	4	0	989.0	NA	0.0000		9999	2300	0	0	0
2019/05/15 13:47:00	BASE	2.70	266	7.10	268	-4.8	75	-8.6	5	0	989.0	NA	0.0000		9999	2330	0	0	0
2019/05/15 13:48:00	BASE	2.60	279	7.10	268	-4.8	75	-8.6	5	0	989.0	NA	0.0000		9999	2230	0	0	0
2019/05/15 13:49:00	BASE	1.36	250	7.10	268	-4.8	75	-8.6	5	0	989.0	NA	0.0000		9999	2230	0	0	0
2019/05/15 13:50:00	BASE	0.21	180	6.28	262	-4.8	75	-8.6	5	0	988.9	NA	0.0000		9999	2230	0	0	0
2019/05/15 13:51:00	BASE	0.17	126	6.28	262	-4.8	75	-8.6	5	0	989.0	NA	0.0000		9999	2300	0	0	0
2019/05/15 13:52:00	BASE	0.81	113	6.28	262	-4.8	74	-8.7	5	0	988.9	NA	0.0000		9999	2300	0	0	0
2019/05/15 13:53:00	BASE	0.82	124	6.02	251	-4.8	74	-8.7	5	0	989.0	NA	0.0000		9999	2260	0	0	0
2019/05/15 13:54:00	BASE	0.19	155	6.02	251	-4.8	74	-8.7	5	0	989.0	NA	0.0000		9999	2300	0	0	0
2019/05/15 13:55:00	BASE	0.50	157	3.40	273	-4.8	74	-8.7	4	0	989.0	NA	0.0000		9999	2260	0	0	0
2019/05/15 13:56:00	BASE	1.36	139	3.40	273	-4.8	74	-8.7	4	0	989.0	NA	0.0000		9999	2260	0	0	0
2019/05/15 13:57:00	BASE	1.68	116	2.68	285	-4.8	74	-8.7	4	0	988.9	NA	0.0000		9999	2230	0	0	0
2019/05/15 13:58:00	BASE	1.33	88	2.37	104	-4.8	74	-8.6	4	0	988.9	NA	0.0000		9999	2230	0	0	0
2019/05/15 13:59:00	BASE	1.33	39	2.37	104	-4.8	75	-8.6	5	0	988.9	NA	0.0000		9999	2200	0	0	0
2019/05/15 14:00:00	BASE	1.73	8	2.37	104	-4.8	75	-8.5	5	0	988.9	NA	0.0000		9999	2170	0	0	0
2019/05/15 14:01:00	BASE	1.71	9	2.37	104	-4.8	76	-8.4	5	0	988.9	NA	0.0000		9999	2130	0	0	0
2019/05/15 14:02:00	BASE	1.33	13	2.37	104	-4.8	76	-8.4	5	0	988.9	NA	0.0000		9999	2100	2660	0	0
2019/05/15 14:03:00	BASE	0.52	15	2.37	104	-4.8	76	-8.4	6	0	989.0	NA	0.0000		9999	2230	0	0	0
2019/05/15 14:04:00	BASE	0.30	358	2.37	104	-4.8	76	-8.4	6	0	989.0	NA	0.0000		9999	2260	0	0	0
2019/05/15 14:05:00	BASE	0.66	312	2.37	104	-4.8	76	-8.4	6	0	988.9	NA	0.0000		9999	2260	0	0	0
2019/05/15 14:06:00	BASE	0.80	268	2.37	104	-4.8	75	-8.4	6	0	988.9	NA	0.0000		9999	2230	0	0	0
2019/05/15 14:07:00	BASE	1.53	230	2.98	226	-4.7	75	-8.4	6	0	988.9	NA	0.0000		9999	2260	0	0	0
2019/05/15 14:08:00	BASE	2.95	220	5.45	241	-4.7	75	-8.4	5	0	988.8	NA	0.0000		9999	2260	0	0	0
2019/05/15 14:09:00	BASE	4.90	228	6.48	227	-4.7	76	-8.3	5	0	988.8	NA	0.0000		9999	2230	0	0	0
2019/05/15 14:10:00	BASE	5.36	225	6.48	227	-4.7	76	-8.3	5	0	988.7	NA	0.0000		9999	2200	0	0	0
2019/05/15 14:11:00	BASE	3.90	224	6.48	227	-4.7	76	-8.3	5	0	988.8	NA	0.0000		9999	2230	0	0	0
2019/05/15 14:12:00	BASE	2.74	230	6.48	227	-4.7	76	-8.3	5	0	988.8	NA	0.0000		9999	2200	0	0	0
2019/05/15 14:13:00	BASE	3.17	248	6.48	227	-4.7	76	-8.3	5	0	988.8	NA	0.0000		9999	2200	0	0	0
2019/05/15 14:14:00	BASE	4.06	260	6.48	227	-4.7	76	-8.3	5	0	988.9	NA	0.0000		9999	2230	0	0	0
2019/05/15 14:15:00	BASE	3.82	259	6.48	227	-4.7	76	-8.3	6	0	988.9	NA	0.0000		9999	2230	0	0	0
2019/05/15 14:16:00	BASE	3.23	256	6.48	227	-4.7	76	-8.2	6	0	988.9	NA	0.0000		9999	2170	0	0	0
2019/05/15 14:17:00	BASE	3.79	254	6.48	227	-4.7	76	-8.3	6	0	988.9	NA	0.0000		9999	2200	0	0	0
2019/05/15 14:18:00	BASE	4.06	263	6.48	227	-4.7	76	-8.3	6	0	989.0	NA	0.0000		9999	2230	0	0	0
2019/05/15 14:19:00	BASE	3.42	278	5.50	250	-4.8	76	-8.3	6	0	989.0	NA	0.0000		9999	2260	0	0	0
2019/05/15 14:20:00	BASE	3.68	272	5.50	250	-4.8	76	-8.3	6	0	989.0	NA	0.0000		9999	2230	0	0	0
2019/05/15 14:21:00	BASE	4.31	253	5.50	250	-4.7	76	-8.3	6	0	988.9	NA	0.0000		9999	2300	0	0	0
2019/05/15 14:22:00	BASE	4.32	254	5.50	250	-4.7	76	-8.3	7	0	988.9	NA	0.0000		9999	2260	0	0	0
2019/05/15 14:23:00	BASE	3.42	257	5.50	250	-4.7	76	-8.3	7	0	989.0	NA	0.0000		9999	2230	0	0	0
2019/05/15 14:24:00	BASE	2.91	246	5.35	257	-4.7	76	-8.2	7	0	989.0	NA	0.0000		9999	2170	0	0	0
2019/05/15 14:25:00	BASE	2.83	239	5.35	257	-4.7	76	-8.2	7	0	988.9	NA	0.0000		9999	2170	0	0	0
2019/05/15 14:26:00	BASE	2.88	237	5.35	257	-4.7	77	-8.2	8	0	988.9	NA	0.0000		9999	2200	0	0	0
2019/05/15 14:27:00	BASE	2.72	240	5.25	248	-4.7	77	-8.1	8	0	988.9	NA	0.0000		9999	2200	0	0	0
2019/05/15 14:28:00	BASE	2.53	242	5.25	248	-4.7	77	-8.1	8	0	988.9	NA	0.0000		9999	2230	0	0	0
2019/05/15 14:29:00	BASE	3.78	230	6.12	219	-4.7	77	-8.1	8	0	988.9	NA	0.0000		9999	2230	0	0	0
2019/05/15 14:30:00	BASE	4.47	224	6.12	219	-4.7	77	-8.1	7	0	989.0	NA	0.0000		9999	2260	0	0	0
2019/05/15 14:31:00	BASE	3.52	225	6.12	219	-4.7	77	-8.2	7	0	989.0	NA	0.0000		9999	2130	0	0	0
2019/05/15 14:32:00	BASE	3.65	233	6.12	219	-4.7	77	-8.2	7	0	989.0	NA	0.0000		9999	2200	0	0	0
2019/05/15 14:33:00	BASE	4.86	243	6.12	245	-4.7	76	-8.2	6	0	989.0	NA	0.0000		9999	2260	0	0	0
2019/05/15 14:34:00	BASE	4.72	247	6.12	245	-4.7	76	-8.3	6	0	988.9	NA	0.0000		9999	2230	0	0	0
2019/05/15 14:35:00	BASE	3.46	256	6.12	245	-4.7	76	-8.3	6	0	988.8	NA	0.0000		9999	2260	0	0	0
2019/05/15 14:36:00	BASE	2.61	259	6.12	245	-4.7	76	-8.3	6	0	988.8	NA	0.0000		9999	2230	0	0	0
2019/05/15 14:37:00	BASE	2.28	239	6.12	245	-4.7	76	-8.3	6	0	988.7	NA	0.0000		9999	2200	0	0	0
2019/05/15 14:38:00	BASE	2.52	205	6.12	245	-4.7	76	-8.3	6	0	988.7	NA	0.0000		9999	2260	0	0	0
2019/05/15 14:39:00	BASE	2.74	186	6.12	245	-4.7	76	-8.3	6	0	988.9	NA	0.0000		9999	2230	0	0	0
2019/05/15 14:40:00	BASE	2.32	190	6.12	245	-4.7	76	-8.2	5	0	988.9	NA	0.0000		9999	2230	0	0	0
2019/05/15 14:41:00	BASE	2.10	195	6.12	245	-4.7	77	-8.2	6	0	988.9	NA	0.0000		9999	2230	0	0	0
2019/05/15 14:42:00	BASE	2.26	200	6.12	245	-4.7	77	-8.2	6	0	988.9	NA	0.0000		9999	2230	0	0	0
2019/05/15 14:43:00	BASE	2.11	204	4.68	235	-4.7	77	-8.1	6	0	988.9	NA	0.0000		9999	2230	0	0	0
2019/05/15 14:44:00	BASE	1.98	204	3.45	245	-4.7	77	-8.2	7	0	988.9	NA	0.0000		9999	2260	0	0	0
2019/05/15 14:45:00	BASE	2.03	207	3.14	181	-4.7	77	-8.2	7	0	988.9	NA	0.0000		9999	2260	0	0	0
2019/05/15 14:46:00	BASE	2.16	222	3.14	181	-4.7	76	-8.2	7	0	989.0	NA	0.0000		9999	2260	0	0	0
2019/05/15 14:47:00	BASE	2.61	249	3.70	277	-4.7	76	-8.2	7	0	989.0	NA	0.0000		9999	2230	0	0	0
2019/05/15 14:48:00	BASE	2.99	270	3.70	277	-4.7	76	-8.3	8	0	989.1	NA	0.0000		9999	2230	0	0	0
2019/05/15 14:49:00	BASE	2.83	286	3.70	277	-4.7	76	-8.3	8	0	989.1	NA	0.0000		9999	2230	0	0	0
2019/05/15 14:50:00	BASE	2.42	280	3.70	277	-4.7	76	-8.3	8	0	989.1	NA	0.0000		9999	2260	0	0	0
2019/05/15 14:51:00	BASE	2.53	280	3.70	277	-4.7	76	-8.3	8	0	989.1	NA	0.0000		9999	2230	0	0	0
2019/05/15 14:52:00	BASE	3.16	272	5.56	228	-4.7	76	-8.3	9	0	989.1	NA	0.0000		9999	2230	0	0	0
2019/05/15 14:53:00	BASE	4.29	242	5.71	230	-4.7	76	-8.3	9	0	989.1	NA	0.0000		9999	2230	0	0	0
2019/05/15 14:54:00	BASE	4.84	234	5.71	230	-4.7	76	-8.2	9	0	989.1	NA	0.0000		9999	2230	0	0	0
2019/05/15 14:55:00	BASE	4.39	229	5.71	230	-4.7	76	-8.2	9	0	989.1	NA	0.0000		9999	2230	0	0	0
2019/05/15 14:56:00	BASE	4.03	230	5.71	230	-4.6	76	-8.2	9	0	989.1	NA	0.0000		9999	2200	0	0	0
2019/05/15 14:57:00	BASE	4.88	229	7.20	222	-4.6	76	-8.2	9	0	989.0	NA	0.0000		9999	2230	0	0	0
2019/05/15 14:58:00	BASE	6.02	226	7.20	222	-4.6	76	-8.1	9	0	989.0	NA	0.0000		9999	2200	0	0	0
2019/05/15 14:59:00	BASE	5.99	231	7.20	222	-4.6	77	-8.1	9	0	989.0	NA	0.0000		9999	2230	0	0	0
2019/05/15 15:00:00	BASE	5.90	237	7.20	222	-4.6	77	-8.1	9	0	988.9	NA	0.0000		9999	2230	0	0	0
2019/05/15 15:01:00	BASE	5.84	244	7.20	222	-4.6	77	-8.0	9	0	988.9	NA	0.0000		9999	2230	0	0	0
2019/05/15 15:02:00	BASE	5.76	248	7.20	222	-4.6	77	-8.1	8	0	988.9	NA	0.0000		9999	2260	0	0	0
2019/05/15 15:03:00	BASE	5.90	244	7.20	222	-4.7	77	-8.1	8	0	988.9	NA	0.0000		9999	2230	0	0	0
2019/05/15 15:04:00	BASE	6.07	245	7.31	247	-4.7	77	-8.1	9	0	988.9	NA	0.0000		9999	2230	0	0	0
2019/05/15 15:05:00	BASE	6.37	251	7.31	247	-4.7	77	-8.1	9	0	989.0	NA	0.0000		9999	2230	0	0	0
2019/05/15 15:06:00	BASE	5.81	250	7.31	247	-4.7	77	-8.1	10	0	989.0	NA	0.0000		9999	2230	0	0	0
2019/05/15 15:07:00	BASE	5.03	256	7.31	247	-4.7	77	-8.1	10	0	989.0	NA	0.0000		9999	2230	0	0	0
2019/05/15 15:08:00	BASE	4.86	265	7.31	247	-4.7	77	-8.1	10	0	989.0	NA	0.0000		9999	2230	0	0	0
2019/05/15 15:09:00	BASE	5.03	263	7.31	247	-4.7	77	-8.2	11	0	988.9	NA	0.0000		9999	2230	0	0	0
2019/05/15 15:10:01	BASE	5.58	261	7.31	247	-4.7	77	-8.2	11	0	989.0	NA	0.0000		9999	2260	0	0	0
2019/05/15 15:11:00	BASE	6.08	256	7.41	246	-4.7	77	-8.1	11	0	989.0	NA	0.0000		9999	2260	0	0	0
2019/05/15 15:12:00	BASE	6.92	254	8.03	265	-4.7	77	-8.1	11	0	988.9	NA	0.0000		9999	2300	0	0	0
2019/05/15 15:13:00	BASE	6.57	258	8.03	265	-4.7	77	-8.1	11	0	989.0	NA	0.0000		9999	2260	0	0	0
2019/05/15 15:14:00	BASE	5.65	254	8.03	265	-4.7	77	-8.2	11	0	989.0	NA	0.0000		9999	2260	0	0	0
2019/05/15 15:15:00	BASE	6.03	249	8.03	265	-4.7	77	-8.2	11	0	988.9	NA	0.0000		9999	2300	0	0	0
2019/05/15 15:16:00	BASE	6.17	255	8.03	265	-4.7	77	-8.2	10	0	988.9	NA	0.0000		9999	2300	0	0	0
2019/05/15 15:17:00	BASE	5.63	260	8.03	265	-4.7	77	-8.2	10	0	988.9	NA	0.0000		9999	2360	0	0	0
2019/05/15 15:18:00	BASE	5.26	260	8.03	265	-4.7	77	-8.2	10	0	988.9	NA	0.0000		9999	2300	0	0	0
2019/05/15 15:19:00	BASE	4.69	260	8.03	265	-4.7	77	-8.2	10	0	988.9	NA	0.0000		9999	2260	0	0	0
2019/05/15 15:20:00	BASE	3.97	260	8.03	265	-4.7	77	-8.1	10	0	988.9	NA	0.0000		9999	2200	0	0	0
2019/05/15 15:21:00	BASE	3.72	260	8.03	265	-4.7	77	-8.2	10	0	988.9	NA	0.0000		9999	2330	0	0	0
2019/05/15 15:22:00	BASE	3.45	265	7.15	261	-4.7	77	-8.2	11	0	988.9	NA	0.0000		9999	2330	0	0	0
2019/05/15 15:23:00	BASE	3.58	268	7.15	261	-4.7	76	-8.2	12	0	988.9	NA	0.0000		9999	2200	0	0	0
2019/05/15 15:24:00	BASE	3.99	268	7.15	261	-4.7	76	-8.3	12	0	988.9	NA	0.0000		9999	2300	0	0	0
2019/05/15 15:25:00	BASE	3.88	266	6.94	265	-4.7	76	-8.3	13	0	988.9	NA	0.0000		9999	2360	0	0	0
2019/05/15 15:26:00	BASE	4.14	264	6.02	250	-4.7	76	-8.3	13	0	988.9	NA	0.0000		9999	2460	0	0	0
2019/05/15 15:27:00	BASE	4.13	262	6.02	250	-4.7	76	-8.3	13	0	988.9	NA	0.0000		9999	2330	2760	0	0
2019/05/15 15:28:00	BASE	3.50	268	5.35	255	-4.7	76	-8.3	13	0	988.9	NA	0.0000		9999	2430	0	0	0
2019/05/15 15:29:00	BASE	3.59	273	5.35	255	-4.7	76	-8.3	13	0	988.8	NA	0.0000		9999	2430	0	0	0
2019/05/15 15:30:00	BASE	4.07	267	5.35	255	-4.7	76	-8.3	13	0	988.7	NA	0.0000		9999	2200	0	0	0
2019/05/15 15:31:00	BASE	3.83	266	5.35	255	-4.7	76	-8.3	13	0	988.7	NA	0.0000		9999	2230	0	0	0
2019/05/15 15:32:00	BASE	3.33	273	5.35	255	-4.7	76	-8.3	12	0	988.8	NA	0.0000		9999	2300	0	0	0
2019/05/15 15:33:00	BASE	3.32	267	5.04	259	-4.7	76	-8.3	12	0	988.8	NA	0.0000		9999	2300	0	0	0
2019/05/15 15:34:00	BASE	3.42	263	5.04	259	-4.7	76	-8.3	11	0	988.8	NA	0.0000		9999	2300	0	0	0
2019/05/15 15:35:00	BASE	3.30	269	5.04	259	-4.7	76	-8.3	11	0	988.7	NA	0.0000		9999	2300	0	0	0
2019/05/15 15:36:00	BASE	2.86	269	4.78	257	-4.7	76	-8.3	10	0	988.7	NA	0.0000		9999	2260	0	0	0
2019/05/15 15:37:00	BASE	2.17	268	4.78	257	-4.7	76	-8.3	9	0	988.7	NA	0.0000		9999	2260	0	0	0
2019/05/15 15:38:00	BASE	2.50	262	4.78	257	-4.7	76	-8.3	9	0	988.7	NA	0.0000		9999	2200	0	0	0
2019/05/15 15:39:00	BASE	3.05	264	4.78	257	-4.7	76	-8.3	9	0	988.7	NA	0.0000		9999	2230	0	0	0
2019/05/15 15:40:00	BASE	2.47	273	4.78	257	-4.7	76	-8.3	8	0	988.7	NA	0.0000		9999	2200	0	0	0
2019/05/15 15:41:00	BASE	2.03	269	4.78	257	-4.7	76	-8.3	8	0	988.7	NA	0.0000		9999	2200	0	0	0
2019/05/15 15:42:00	BASE	2.43	269	4.78	257	-4.7	76	-8.3	8	0	988.6	NA	0.0000		9999	2170	0	0	0
2019/05/15 15:43:00	BASE	2.05	268	4.27	256	-4.7	76	-8.3	7	0	988.7	NA	0.0000		9999	2130	0	0	0
2019/05/15 15:44:00	BASE	1.65	256	4.06	253	-4.7	76	-8.3	7	0	988.7	NA	0.0000		9999	2200	0	0	0
2019/05/15 15:45:00	BASE	2.14	258	4.06	253	-4.8	76	-8.3	7	0	988.6	NA	0.0000		9999	2200	0	0	0
2019/05/15 15:46:00	BASE	2.79	273	4.06	253	-4.8	76	-8.3	6	0	988.7	NA	0.0000		9999	2170	0	0	0
2019/05/15 15:47:00	BASE	3.13	276	4.06	253	-4.8	76	-8.3	6	0	988.7	NA	0.0000		9999	2170	0	0	0
2019/05/15 15:48:00	BASE	3.58	260	4.68	256	-4.7	76	-8.3	6	0	988.7	NA	0.0000		9999	2230	0	0	0
2019/05/15 15:49:04	BASE	4.04	244	4.68	256	-4.7	76	-8.3	6	0	M	NA	0.0000		9999	2230	0	0	0
2019/05/15 15:50:00	BASE	2.89	251	4.68	256	-4.7	76	-8.3	6	0	988.7	NA	0.0000		9999	2230	0	0	0
2019/05/15 15:51:00	BASE	1.93	262	4.68	256	-4.7	76	-8.3	6	0	988.7	NA	0.0000		9999	2330	0	0	0
2019/05/15 15:52:00	BASE	1.55	251	4.68	256	-4.8	76	-8.3	6	0	988.7	NA	0.0000		9999	2260	0	0	0
2019/05/15 15:53:00	BASE	1.73	241	4.68	256	-4.8	76	-8.4	6	0	988.7	NA	0.0000		9999	2300	0	0	0
2019/05/15 15:54:00	BASE	2.25	236	4.68	256	-4.8	76	-8.4	6	0	988.6	NA	0.0000		9999	2230	0	0	0
2019/05/15 15:55:00	BASE	3.21	222	4.68	256	-4.8	76	-8.3	6	0	988.5	NA	0.0000		9999	2260	0	0	0
2019/05/15 15:56:00	BASE	3.77	213	4.68	256	-4.8	76	-8.3	6	0	988.5	NA	0.0000		9999	2230	0	0	0
2019/05/15 15:57:00	BASE	3.49	210	4.68	256	-4.8	76	-8.3	7	0	988.5	NA	0.0000		9999	2200	0	0	0
2019/05/15 15:58:00	BASE	2.34	191	4.12	214	-4.8	76	-8.3	7	0	988.5	NA	0.0000		9999	2230	0	0	0
2019/05/15 15:59:00	BASE	2.47	189	4.32	208	-4.8	76	-8.3	7	0	988.5	NA	0.0000		9999	2230	0	0	0
2019/05/15 16:00:00	BASE	3.80	203	5.04	207	-4.8	76	-8.3	7	0	988.5	NA	0.0000		9999	2300	0	0	0
2019/05/15 16:01:00	BASE	3.47	212	5.04	207	-4.8	76	-8.4	7	0	988.5	NA	0.0000		9999	2300	0	0	0
2019/05/15 16:02:00	BASE	3.00	225	5.04	207	-4.8	76	-8.4	7	0	988.5	NA	0.0000		9999	2260	0	0	0
2019/05/15 16:03:00	BASE	3.73	219	5.35	211	-4.8	76	-8.4	7	0	988.6	NA	0.0000		9999	2260	0	0	0
2019/05/15 16:04:00	BASE	4.59	217	5.66	203	-4.7	76	-8.4	7	0	988.6	NA	0.0000		9999	2260	0	0	0
2019/05/15 16:05:00	BASE	4.73	219	5.66	203	-4.7	76	-8.3	7	0	988.7	NA	0.0000		9999	2230	0	0	0
2019/05/15 16:06:00	BASE	4.87	218	6.69	217	-4.7	76	-8.3	7	0	988.7	NA	0.0000		9999	2300	0	0	0
2019/05/15 16:07:00	BASE	5.44	216	6.69	217	-4.7	76	-8.2	7	0	988.7	NA	0.0000		9999	2300	0	0	0
2019/05/15 16:08:00	BASE	5.55	209	6.69	217	-4.7	76	-8.2	8	0	988.7	NA	0.0000		9999	2260	0	0	0
2019/05/15 16:09:00	BASE	5.79	207	6.69	217	-4.7	76	-8.3	9	0	988.7	NA	0.0000		9999	2300	0	0	0
2019/05/15 16:10:00	BASE	6.29	209	8.13	218	-4.7	76	-8.3	10	0	988.7	NA	0.0000		9999	2300	0	0	0
2019/05/15 16:11:00	BASE	6.31	216	8.13	218	-4.7	76	-8.3	12	0	988.7	NA	0.0000		9999	2300	0	0	0
2019/05/15 16:12:00	BASE	6.75	226	8.13	234	-4.7	76	-8.2	14	0	988.7	NA	0.0000		9999	2300	0	0	0
2019/05/15 16:13:00	BASE	7.52	230	8.49	229	-4.7	76	-8.2	17	0	988.7	NA	0.0000		9999	2330	0	0	0
2019/05/15 16:14:00	BASE	7.29	229	8.49	229	-4.6	76	-8.2	19	0	988.7	NA	0.0000		9999	2300	0	0	0
2019/05/15 16:15:00	BASE	6.72	221	8.49	229	-4.6	76	-8.2	22	0	988.7	NA	0.0000		9999	2260	0	0	0
2019/05/15 16:16:00	BASE	6.76	215	8.49	229	-4.7	76	-8.2	24	0	988.7	NA	0.0000		9999	2300	0	0	0
2019/05/15 16:17:00	BASE	6.82	209	8.49	229	-4.7	76	-8.3	25	0	988.7	NA	0.0000		9999	2300	0	0	0
2019/05/15 16:18:00	BASE	6.64	213	8.49	229	-4.7	76	-8.3	25	0	988.7	NA	0.0000	-SN	9999	2300	0	0	0
2019/05/15 16:19:00	BASE	5.99	224	8.49	229	-4.7	76	-8.3	25	0	988.7	NA	0.0000	-SN	9999	2330	0	0	0
2019/05/15 16:20:00	BASE	5.61	227	8.49	229	-4.7	76	-8.3	25	0	988.7	NA	0.0000	-SN	9999	2360	0	0	0
2019/05/15 16:21:00	BASE	5.54	226	8.49	229	-4.7	76	-8.3	25	0	988.7	NA	0.0000	-SN	9999	2360	0	0	0
2019/05/15 16:22:00	BASE	5.99	224	8.49	229	-4.7	76	-8.3	24	0	988.7	NA	0.0000	-SN	9999	2430	0	0	0
2019/05/15 16:23:00	BASE	6.13	222	8.18	213	-4.7	76	-8.3	24	0	988.7	NA	0.0000	-SN	9999	2330	0	0	0
2019/05/15 16:24:00	BASE	6.12	212	8.18	213	-4.7	76	-8.3	24	0	988.7	NA	0.0000	-SN	9999	2300	0	0	0
2019/05/15 16:25:00	BASE	6.47	207	7.72	204	-4.7	76	-8.3	25	0	988.7	NA	0.0000	-SN	9999	2230	0	0	0
2019/05/15 16:26:00	BASE	6.51	212	7.72	204	-4.7	76	-8.3	26	0	988.7	NA	0.0000	-SN	9999	2330	0	0	0
2019/05/15 16:27:00	BASE	7.50	218	8.80	219	-4.7	76	-8.3	28	0	988.7	NA	0.0000	-SN	9999	2330	0	0	0
2019/05/15 16:28:00	BASE	8.06	216	8.80	219	-4.7	76	-8.3	29	0	988.7	NA	0.0000	-SN	9999	2300	0	0	0
2019/05/15 16:29:00	BASE	7.27	216	8.80	219	-4.7	76	-8.4	29	0	988.7	NA	0.0000		9999	2330	0	0	0
2019/05/15 16:30:00	BASE	5.97	221	8.80	219	-4.7	75	-8.4	29	0	988.7	NA	0.0000		9999	2330	3050	0	0
2019/05/15 16:31:00	BASE	5.08	223	8.80	219	-4.7	75	-8.4	29	0	988.8	NA	0.0000		9999	2460	0	0	0
2019/05/15 16:32:00	BASE	4.85	224	8.80	219	-4.7	75	-8.5	29	0	988.9	NA	0.0000		9999	2400	0	0	0
2019/05/15 16:33:00	BASE	4.79	221	8.80	219	-4.7	75	-8.5	29	0	988.9	NA	0.0000		9999	2490	0	0	0
2019/05/15 16:34:00	BASE	4.74	214	8.80	219	-4.7	74	-8.6	28	0	988.9	NA	0.0000		9999	2460	0	0	0
2019/05/15 16:35:00	BASE	5.03	215	8.80	219	-4.7	74	-8.6	27	0	988.9	NA	0.0000		9999	2460	0	0	0
2019/05/15 16:36:00	BASE	5.63	221	8.80	219	-4.7	74	-8.6	27	0	988.9	NA	0.0000		9999	2430	0	0	0
2019/05/15 16:37:00	BASE	6.84	225	8.75	214	-4.7	74	-8.6	26	0	988.9	NA	0.0000		9999	2360	0	0	0
2019/05/15 16:38:00	BASE	6.99	223	8.59	228	-4.7	74	-8.6	26	0	988.9	NA	0.0000		9999	2400	0	0	0
2019/05/15 16:39:00	BASE	5.93	221	8.59	228	-4.7	74	-8.6	27	0	988.9	NA	0.0000		9999	2360	0	0	0
2019/05/15 16:40:00	BASE	5.43	218	8.59	228	-4.7	74	-8.6	27	0	988.9	NA	0.0000		9999	2330	0	0	0
2019/05/15 16:41:00	BASE	4.64	218	8.59	228	-4.7	74	-8.7	27	0	988.9	NA	0.0000		9999	2330	0	0	0
2019/05/15 16:42:00	BASE	4.30	219	8.59	228	-4.8	74	-8.7	27	0	989.0	NA	0.0000		9999	2230	0	0	0
2019/05/15 16:43:00	BASE	4.88	219	8.59	228	-4.8	74	-8.7	26	0	989.0	NA	0.0000		9999	2360	0	0	0
2019/05/15 16:44:00	BASE	6.04	213	8.59	228	-4.7	74	-8.7	26	0	989.0	NA	0.0000		9999	2400	0	0	0
2019/05/15 16:45:00	BASE	6.33	213	8.59	228	-4.7	74	-8.6	25	0	989.0	NA	0.0000		9999	2360	0	0	0
2019/05/15 16:46:00	BASE	5.83	214	8.59	228	-4.7	74	-8.6	24	0	988.9	NA	0.0000		9999	2460	0	0	0
2019/05/15 16:47:00	BASE	5.43	202	7.82	210	-4.7	74	-8.6	23	0	989.0	NA	0.0000		9999	2460	0	0	0
2019/05/15 16:48:00	BASE	5.90	198	8.80	192	-4.7	74	-8.6	23	0	989.0	NA	0.0000		9999	2360	0	0	0
2019/05/15 16:49:00	BASE	7.19	200	8.80	195	-4.6	74	-8.6	23	0	989.0	NA	0.0000		9999	2400	0	0	0
2019/05/15 16:50:00	BASE	7.74	203	9.05	207	-4.6	74	-8.6	24	0	989.0	NA	0.0000		9999	2490	0	0	0
2019/05/15 16:51:00	BASE	7.71	209	9.05	207	-4.6	74	-8.5	25	0	989.0	NA	0.0000		9999	2430	0	0	0
2019/05/15 16:52:00	BASE	7.36	210	9.05	207	-4.6	74	-8.6	26	0	989.0	NA	0.0000		9999	2360	0	0	0
2019/05/15 16:53:00	BASE	6.70	207	9.05	207	-4.7	74	-8.6	26	0	989.0	NA	0.0000		9999	2260	0	0	0
2019/05/15 16:54:00	BASE	5.92	202	9.05	207	-4.7	74	-8.6	26	0	989.0	NA	0.0000		9999	2260	0	0	0
2019/05/15 16:55:00	BASE	5.91	200	9.05	207	-4.7	74	-8.6	26	0	989.0	NA	0.0000		9999	2330	0	0	0
2019/05/15 16:56:00	BASE	6.04	201	9.05	207	-4.7	74	-8.6	24	0	989.0	NA	0.0000		9999	2360	0	0	0
2019/05/15 16:57:00	BASE	5.41	198	9.05	207	-4.7	74	-8.5	23	0	989.0	NA	0.0000		9999	2360	0	0	0
2019/05/15 16:58:00	BASE	4.69	190	9.05	207	-4.7	75	-8.5	21	0	989.0	NA	0.0000		9999	2360	0	0	0
2019/05/15 16:59:00	BASE	4.74	185	9.05	207	-4.7	75	-8.5	20	0	989.0	NA	0.0000		9999	2300	0	0	0
2019/05/15 17:00:00	BASE	6.24	189	8.85	191	-4.7	75	-8.5	19	0	989.0	NA	0.0000		9999	2300	0	0	0
2019/05/15 17:01:00	BASE	7.34	195	8.85	191	-4.7	75	-8.5	18	0	989.0	NA	0.0000		9999	2260	0	0	0
2019/05/15 17:02:00	BASE	7.25	198	8.85	191	-4.7	75	-8.5	16	0	989.0	NA	0.0000		9999	2230	0	0	0
2019/05/15 17:03:00	BASE	6.71	198	8.85	191	-4.7	75	-8.5	16	0	989.1	NA	0.0000		9999	2230	0	0	0
2019/05/15 17:04:00	BASE	5.52	194	8.85	191	-4.7	75	-8.5	15	0	989.1	NA	0.0000		9999	2330	0	0	0
2019/05/15 17:05:00	BASE	5.14	197	8.85	191	-4.7	75	-8.5	15	0	989.1	NA	0.0000		9999	2360	0	0	0
2019/05/15 17:06:00	BASE	4.74	202	8.85	191	-4.7	75	-8.4	15	0	989.1	NA	0.0000		9999	2360	0	0	0
2019/05/15 17:07:00	BASE	4.34	197	8.85	191	-4.7	75	-8.4	16	0	989.1	NA	0.0000		9999	2330	0	0	0
2019/05/15 17:08:00	BASE	5.01	193	8.85	191	-4.7	75	-8.4	16	0	989.1	NA	0.0000		9999	2260	0	0	0
2019/05/15 17:09:00	BASE	5.15	188	8.85	191	-4.6	75	-8.3	16	0	989.1	NA	0.0000		9999	2360	0	0	0
2019/05/15 17:10:00	BASE	4.81	175	8.28	202	-4.6	75	-8.3	16	0	989.1	NA	0.0000		9999	2360	0	0	0
2019/05/15 17:11:00	BASE	4.71	171	8.08	197	-4.6	75	-8.3	16	0	989.1	NA	0.0000		9999	2400	0	0	0
2019/05/15 17:12:00	BASE	5.26	181	6.74	189	-4.6	75	-8.3	16	0	989.1	NA	0.0000		9999	2360	0	0	0
2019/05/15 17:13:00	BASE	5.59	197	6.74	189	-4.6	75	-8.3	16	0	989.1	NA	0.0000		9999	2330	0	0	0
2019/05/15 17:14:00	BASE	5.14	210	6.74	189	-4.6	75	-8.3	15	0	989.1	NA	0.0000		9999	2400	0	0	0
2019/05/15 17:15:00	BASE	5.54	210	6.84	207	-4.6	75	-8.3	14	0	989.0	NA	0.0000		9999	2330	0	0	0
2019/05/15 17:16:00	BASE	6.10	203	7.05	201	-4.6	75	-8.3	14	0	989.0	NA	0.0000		9999	2330	0	0	0
2019/05/15 17:17:00	BASE	5.87	200	7.05	201	-4.6	75	-8.3	14	0	989.0	NA	0.0000		9999	2360	0	0	0
2019/05/15 17:18:00	BASE	6.19	204	7.77	209	-4.6	76	-8.2	14	0	989.0	NA	0.0000		9999	2300	0	0	0
2019/05/15 17:19:00	BASE	6.95	207	7.87	206	-4.6	76	-8.2	13	0	989.0	NA	0.0000		9999	2300	0	0	0
2019/05/15 17:20:00	BASE	7.13	211	7.87	206	-4.6	76	-8.2	14	0	989.0	NA	0.0000		9999	2330	0	0	0
2019/05/15 17:21:00	BASE	7.03	215	7.87	206	-4.6	76	-8.2	15	0	989.1	NA	0.0000		9999	2360	0	0	0
2019/05/15 17:22:00	BASE	6.63	214	7.87	206	-4.5	76	-8.1	15	0	989.1	NA	0.0000		9999	2560	0	0	0
2019/05/15 17:23:00	BASE	6.21	215	7.87	206	-4.5	76	-8.1	16	0	989.1	NA	0.0000		9999	2490	0	0	0
2019/05/15 17:24:00	BASE	6.57	217	8.08	218	-4.5	76	-8.1	17	0	989.1	NA	0.0000		9999	2460	0	0	0
2019/05/15 17:25:03	BASE	6.82	217	8.08	218	-4.5	76	-8.1	17	0	M	NA	0.0000		9999	2460	0	0	0
2019/05/15 17:26:00	BASE	6.00	220	8.08	218	-4.5	76	-8.1	18	0	989.0	NA	0.0000		9999	2530	0	0	0
2019/05/15 17:27:00	BASE	5.56	220	8.08	218	-4.5	76	-8.1	19	0	989.0	NA	0.0000		9999	2720	0	0	0
2019/05/15 17:28:00	BASE	5.65	219	8.08	218	-4.5	76	-8.2	19	0	989.0	NA	0.0000		9999	2490	0	0	0
2019/05/15 17:29:00	BASE	5.66	218	8.08	218	-4.6	75	-8.3	19	0	989.0	NA	0.0000		9999	2620	0	0	0
2019/05/15 17:30:00	BASE	5.35	218	8.08	218	-4.6	75	-8.4	19	0	989.0	NA	0.0000		9999	2530	0	0	0
2019/05/15 17:31:00	BASE	5.11	214	8.08	218	-4.6	74	-8.5	19	0	989.0	NA	0.0000		9999	2560	0	0	0
2019/05/15 17:32:00	BASE	5.30	207	8.08	218	-4.6	74	-8.6	19	0	989.0	NA	0.0000		9999	2530	0	0	0
2019/05/15 17:33:00	BASE	5.45	207	8.08	218	-4.6	74	-8.6	19	0	989.0	NA	0.0000		9999	2460	0	0	0
2019/05/15 17:34:00	BASE	5.10	208	6.94	218	-4.6	73	-8.7	20	0	989.0	NA	0.0000		9999	2260	0	0	0
2019/05/15 17:35:00	BASE	4.71	203	6.94	218	-4.6	73	-8.7	20	0	989.0	NA	0.0000		9999	2430	0	0	0
2019/05/15 17:36:00	BASE	4.37	192	6.94	218	-4.6	73	-8.7	20	0	989.0	NA	0.0000		9999	2360	0	0	0
2019/05/15 17:37:00	BASE	3.57	188	6.94	218	-4.6	73	-8.7	19	0	989.0	NA	0.0000		9999	2330	0	0	0
2019/05/15 17:38:00	BASE	2.75	202	6.69	213	-4.6	73	-8.7	18	0	989.0	NA	0.0000		9999	2400	0	0	0
2019/05/15 17:39:00	BASE	2.52	214	6.02	208	-4.6	73	-8.7	16	0	989.0	NA	0.0000		9999	2360	0	0	0
2019/05/15 17:40:00	BASE	2.25	223	6.02	208	-4.6	73	-8.7	16	0	989.0	NA	0.0000		9999	2430	0	0	0
2019/05/15 17:41:00	BASE	2.03	228	6.02	208	-4.6	73	-8.7	16	0	989.0	NA	0.0000		9999	2430	0	0	0
2019/05/15 17:42:00	BASE	2.29	221	6.02	208	-4.6	73	-8.7	17	0	989.0	NA	0.0000		9999	2430	0	0	0
2019/05/15 17:43:00	BASE	2.80	219	5.76	217	-4.6	73	-8.7	17	0	989.0	NA	0.0000		9999	2430	0	0	0
2019/05/15 17:44:00	BASE	3.45	224	4.99	197	-4.6	73	-8.7	17	0	988.9	NA	0.0000		9999	2360	0	0	0
2019/05/15 17:45:00	BASE	3.42	222	4.89	190	-4.6	73	-8.7	17	0	988.9	NA	0.0000		9999	2360	0	0	0
2019/05/15 17:46:00	BASE	2.55	219	4.27	228	-4.6	73	-8.7	17	0	988.9	NA	0.0000		9999	2330	0	0	0
2019/05/15 17:47:00	BASE	2.60	220	4.27	228	-4.6	73	-8.7	16	0	988.9	NA	0.0000		9999	2170	0	0	0
2019/05/15 17:48:00	BASE	3.76	222	5.14	222	-4.6	73	-8.7	15	0	988.9	NA	0.0000		9999	2230	0	0	0
2019/05/15 17:49:00	BASE	4.36	223	5.14	222	-4.6	73	-8.7	15	0	988.9	NA	0.0000		9999	2130	0	0	0
2019/05/15 17:50:00	BASE	4.36	220	5.14	222	-4.6	73	-8.6	15	0	988.9	NA	0.0000		9999	2130	0	0	0
2019/05/15 17:51:00	BASE	4.24	216	5.14	222	-4.6	74	-8.6	15	0	988.9	NA	0.0000		9999	2170	0	0	0
2019/05/15 17:52:00	BASE	3.87	215	5.14	222	-4.6	74	-8.6	15	0	988.9	NA	0.0000		9999	2200	0	0	0
2019/05/15 17:53:00	BASE	3.36	208	5.14	222	-4.6	74	-8.5	16	0	988.9	NA	0.0000		9999	2130	0	0	0
2019/05/15 17:54:00	BASE	2.62	193	5.14	222	-4.6	74	-8.5	16	0	988.9	NA	0.0000		9999	2100	0	0	0
2019/05/15 17:55:00	BASE	1.90	180	5.14	222	-4.6	74	-8.5	16	0	988.9	NA	0.0000		9999	2130	0	0	0
2019/05/15 17:56:00	BASE	1.68	170	5.14	222	-4.6	74	-8.5	16	0	988.9	NA	0.0000		9999	2200	0	0	0
2019/05/15 17:57:00	BASE	2.19	171	5.14	222	-4.6	75	-8.4	17	0	988.9	NA	0.0000		9999	2170	0	0	0
2019/05/15 17:58:00	BASE	2.99	188	5.04	221	-4.6	75	-8.4	17	0	988.9	NA	0.0000		9999	2200	0	0	0
2019/05/15 17:59:00	BASE	3.44	210	5.04	221	-4.6	75	-8.4	17	0	988.9	NA	0.0000		9999	2170	0	0	0
2019/05/15 18:00:00	BASE	3.16	217	4.32	218	-4.6	75	-8.3	17	0	988.9	NA	0.0000		9999	2170	0	0	0
2019/05/15 18:01:00	BASE	2.73	210	4.22	217	-4.6	75	-8.3	17	0	988.9	NA	0.0000		9999	2170	0	0	0
2019/05/15 18:02:00	BASE	3.02	203	4.53	194	-4.6	75	-8.3	17	0	988.9	NA	0.0000		9999	2100	0	0	0
2019/05/15 18:03:00	BASE	3.70	201	4.58	195	-4.6	75	-8.3	18	0	988.9	NA	0.0000		9999	2170	0	0	0
2019/05/15 18:04:00	BASE	4.26	209	5.14	229	-4.6	76	-8.2	17	0	988.9	NA	0.0000		9999	2200	0	0	0
2019/05/15 18:05:00	BASE	4.61	212	5.81	195	-4.5	76	-8.2	17	0	988.9	NA	0.0000		9999	2170	0	0	0
2019/05/15 18:06:00	BASE	6.08	209	8.95	205	-4.5	76	-8.1	16	0	988.8	NA	0.0000		9999	2170	0	0	0
2019/05/15 18:07:00	BASE	7.75	205	8.95	205	-4.5	76	-8.0	16	0	988.8	NA	0.0000		9999	2100	0	0	0
2019/05/15 18:08:00	BASE	6.85	204	8.95	205	-4.5	77	-8.0	17	0	988.9	NA	0.0000		9999	2070	0	0	0
2019/05/15 18:09:00	BASE	4.66	218	8.95	205	-4.5	77	-7.9	17	0	988.9	NA	0.0000		9999	2130	0	0	0
2019/05/15 18:10:00	BASE	4.55	221	8.95	205	-4.5	77	-7.9	17	0	988.9	NA	0.0000		9999	2130	0	0	0
2019/05/15 18:11:00	BASE	5.78	207	8.95	205	-4.5	77	-7.9	17	0	988.9	NA	0.0000		9999	2170	0	0	0
2019/05/15 18:12:00	BASE	6.76	207	8.95	205	-4.5	77	-7.9	16	0	988.9	NA	0.0000		9999	2230	0	0	0
2019/05/15 18:13:00	BASE	6.44	212	8.95	205	-4.5	77	-7.9	15	0	988.9	NA	0.0000		9999	2200	0	0	0
2019/05/15 18:14:00	BASE	4.93	205	8.95	205	-4.5	77	-7.9	14	0	988.9	NA	0.0000		9999	2130	0	0	0
2019/05/15 18:15:00	BASE	4.74	197	8.95	205	-4.5	77	-7.9	14	0	988.9	NA	0.0000		9999	2070	0	0	0
2019/05/15 18:16:00	BASE	5.57	189	8.75	193	-4.5	77	-7.9	12	0	988.8	NA	0.0000		9999	2100	0	0	0
2019/05/15 18:17:00	BASE	5.71	188	7.87	216	-4.5	77	-7.9	11	0	988.9	NA	0.0000		9999	2100	0	0	0
2019/05/15 18:18:00	BASE	5.07	194	7.87	216	-4.5	77	-8.0	10	0	988.9	NA	0.0000		9999	2100	0	0	0
2019/05/15 18:19:00	BASE	5.12	206	7.87	216	-4.6	77	-8.0	10	0	988.8	NA	0.0000		9999	2200	0	0	0
2019/05/15 18:20:00	BASE	5.40	216	7.87	216	-4.6	77	-8.0	10	0	988.8	NA	0.0000		9999	2230	0	0	0
2019/05/15 18:21:00	BASE	5.34	219	7.87	216	-4.5	76	-8.1	9	0	988.8	NA	0.0000		9999	2230	0	0	0
2019/05/15 18:22:00	BASE	5.54	216	6.94	182	-4.5	76	-8.0	9	0	988.8	NA	0.0000		9999	2260	0	0	0
2019/05/15 18:23:00	BASE	5.21	208	6.94	182	-4.5	76	-8.0	9	0	988.7	NA	0.0000		9999	2230	0	0	0
2019/05/15 18:24:00	BASE	4.59	197	6.94	182	-4.5	77	-8.0	9	0	988.7	NA	0.0000		9999	2260	0	0	0
2019/05/15 18:25:00	BASE	4.16	193	6.94	182	-4.5	77	-7.9	8	0	988.7	NA	0.0000		9999	2230	0	0	0
2019/05/15 18:26:00	BASE	3.72	200	6.28	212	-4.5	77	-8.0	7	0	988.7	NA	0.0000		9999	2260	0	0	0
2019/05/15 18:27:00	BASE	2.65	203	6.28	212	-4.5	77	-8.0	7	0	988.7	NA	0.0000		9999	2260	0	0	0
2019/05/15 18:28:00	BASE	2.50	190	6.28	212	-4.5	77	-8.0	6	0	988.7	NA	0.0000		9999	2300	0	0	0
2019/05/15 18:29:00	BASE	4.19	191	6.28	212	-4.5	77	-8.0	6	0	988.7	NA	0.0000		9999	2300	0	0	0
2019/05/15 18:30:00	BASE	4.68	200	6.28	212	-4.5	76	-8.1	6	0	988.7	NA	0.0000		9999	2300	0	0	0
2019/05/15 18:31:00	BASE	4.35	202	6.28	212	-4.5	76	-8.1	6	0	988.7	NA	0.0000		9999	2330	0	0	0
2019/05/15 18:32:00	BASE	4.51	199	5.71	200	-4.6	76	-8.1	6	0	988.7	NA	0.0000		9999	2330	0	0	0
2019/05/15 18:33:00	BASE	4.67	196	5.71	200	-4.6	76	-8.1	6	0	988.7	NA	0.0000		9999	2300	0	0	0
2019/05/15 18:34:00	BASE	4.64	197	5.71	200	-4.6	76	-8.2	7	0	988.7	NA	0.0000		9999	2230	0	0	0
2019/05/15 18:35:00	BASE	4.35	196	5.71	200	-4.5	75	-8.2	7	0	988.7	NA	0.0000		9999	2230	0	0	0
2019/05/15 18:36:00	BASE	4.19	199	5.71	200	-4.5	75	-8.3	6	0	988.7	NA	0.0000		9999	2260	0	0	0
2019/05/15 18:37:00	BASE	4.21	200	5.71	200	-4.5	75	-8.3	6	0	988.7	NA	0.0000		9999	2300	0	0	0
2019/05/15 18:38:00	BASE	4.42	198	5.71	200	-4.5	75	-8.3	5	0	988.7	NA	0.0000		9999	2300	0	0	0
2019/05/15 18:39:00	BASE	5.57	200	7.05	204	-4.5	75	-8.2	5	0	988.7	NA	0.0000		9999	2260	0	0	0
2019/05/15 18:40:00	BASE	6.48	201	7.05	204	-4.5	75	-8.2	5	0	988.8	NA	0.0000		9999	2230	0	0	0
2019/05/15 18:41:00	BASE	6.83	205	8.59	218	-4.5	76	-8.1	5	0	988.8	NA	0.0000		9999	2230	0	0	0
2019/05/15 18:42:00	BASE	7.65	210	9.93	207	-4.5	76	-8.1	5	0	988.8	NA	0.0000		9999	2260	0	0	0
2019/05/15 18:43:00	BASE	7.96	212	9.93	207	-4.5	76	-8.1	5	0	988.7	NA	0.0000		9999	2260	0	0	0
2019/05/15 18:44:00	BASE	7.17	211	9.93	207	-4.5	76	-8.1	5	0	988.7	NA	0.0000		9999	2230	0	0	0
2019/05/15 18:45:00	BASE	7.10	206	9.93	207	-4.5	76	-8.1	5	0	988.8	NA	0.0000		9999	2230	0	0	0
2019/05/15 18:46:00	BASE	8.43	208	9.98	218	-4.5	76	-8.1	5	0	988.7	NA	0.0000		9999	2170	0	0	0
2019/05/15 18:47:00	BASE	8.51	207	9.98	218	-4.5	76	-8.1	5	0	988.8	NA	0.0000		9999	2200	0	0	0
2019/05/15 18:48:00	BASE	7.31	212	9.98	218	-4.5	76	-8.1	4	0	988.9	NA	0.0000		9999	2200	0	0	0
2019/05/15 18:49:00	BASE	6.17	216	9.98	218	-4.5	76	-8.1	4	0	988.9	NA	0.0000		9999	2100	0	0	0
2019/05/15 18:50:00	BASE	5.37	209	9.98	218	-4.5	76	-8.1	4	0	988.8	NA	0.0000		9999	2130	0	0	0
2019/05/15 18:51:00	BASE	6.05	202	9.98	218	-4.5	76	-8.1	4	0	988.8	NA	0.0000		9999	2200	0	0	0
2019/05/15 18:52:00	BASE	6.24	196	9.98	218	-4.5	76	-8.1	4	0	988.7	NA	0.0000		9999	2330	0	0	0
2019/05/15 18:53:00	BASE	6.91	201	10.34	214	-4.5	76	-8.1	4	0	988.7	NA	0.0000		9999	2330	0	0	0
2019/05/15 18:54:00	BASE	8.74	205	10.34	214	-4.5	76	-8.1	4	0	988.7	NA	0.0000		9999	2360	0	0	0
2019/05/15 18:55:00	BASE	8.61	203	10.34	214	-4.5	76	-8.1	4	0	988.8	NA	0.0000		9999	2330	0	0	0
2019/05/15 18:56:00	BASE	7.64	207	10.34	214	-4.5	76	-8.1	4	0	988.8	NA	0.0000		9999	2230	0	0	0
2019/05/15 18:57:00	BASE	7.05	215	10.34	214	-4.5	76	-8.1	4	0	988.9	NA	0.0000		9999	2200	0	0	0
2019/05/15 18:58:00	BASE	6.52	215	10.34	214	-4.5	76	-8.2	4	0	988.9	NA	0.0000		9999	2260	0	0	0
2019/05/15 18:59:00	BASE	5.43	217	10.34	214	-4.6	76	-8.2	4	0	988.9	NA	0.0000		9999	2260	0	0	0
2019/05/15 19:00:00	BASE	4.22	226	10.34	214	-4.6	75	-8.3	4	0	988.9	NA	0.0000		9999	2300	0	0	0
2019/05/15 19:01:00	BASE	3.34	234	10.34	214	-4.6	75	-8.4	4	0	988.9	NA	0.0000		9999	2400	0	0	0
2019/05/15 19:02:00	BASE	3.10	236	10.34	214	-4.6	74	-8.4	4	0	988.9	NA	0.0000		9999	2360	0	0	0
2019/05/15 19:03:00	BASE	3.68	223	10.03	198	-4.6	74	-8.5	4	0	988.9	NA	0.0000		9999	2330	0	0	0
2019/05/15 19:04:00	BASE	4.11	223	8.39	202	-4.6	74	-8.5	3	0	988.8	NA	0.0000		9999	2330	0	0	0
2019/05/15 19:05:00	BASE	3.83	222	7.72	203	-4.6	74	-8.5	3	0	988.7	NA	0.0000		9999	2300	0	0	0
2019/05/15 19:06:01	BASE	3.95	198	7.61	223	-4.6	74	-8.5	3	0	988.7	NA	0.0000		9999	2300	0	0	0
2019/05/15 19:07:00	BASE	4.59	178	7.31	217	-4.6	74	-8.5	3	0	988.7	NA	0.0000		9999	2300	0	0	0
2019/05/15 19:08:00	BASE	5.13	169	6.17	176	-4.6	74	-8.5	3	0	988.7	NA	0.0000		9999	2330	0	0	0
2019/05/15 19:09:00	BASE	5.07	171	6.17	176	-4.6	74	-8.5	3	0	988.7	NA	0.0000		9999	2300	0	0	0
2019/05/15 19:10:00	BASE	5.08	182	6.17	176	-4.6	74	-8.5	3	0	988.7	NA	0.0000		9999	2330	0	0	0
2019/05/15 19:11:00	BASE	6.09	178	8.39	167	-4.6	74	-8.5	3	0	988.7	NA	0.0000		9999	2360	0	0	0
2019/05/15 19:12:00	BASE	6.34	166	8.39	167	-4.6	74	-8.5	3	0	988.7	NA	0.0000		9999	2330	0	0	0
2019/05/15 19:13:00	BASE	6.14	161	8.39	167	-4.6	75	-8.4	3	0	988.7	NA	0.0000		9999	2330	0	0	0
2019/05/15 19:14:00	BASE	6.12	158	8.39	167	-4.6	75	-8.4	2	0	988.7	NA	0.0000		9999	2400	0	0	0
2019/05/15 19:15:00	BASE	5.77	154	8.39	167	-4.6	75	-8.4	2	0	988.7	NA	0.0000		9999	2360	0	0	0
2019/05/15 19:16:00	BASE	5.67	155	8.39	167	-4.6	75	-8.4	2	0	988.7	NA	0.0000		9999	2360	0	0	0
2019/05/15 19:17:00	BASE	5.27	149	8.39	167	-4.6	75	-8.4	2	0	988.7	NA	0.0000		9999	2300	0	0	0
2019/05/15 19:18:00	BASE	5.27	145	8.39	167	-4.6	75	-8.4	2	0	988.7	NA	0.0000		9999	2360	0	0	0
2019/05/15 19:19:00	BASE	6.18	159	8.39	167	-4.6	75	-8.4	2	0	988.7	NA	0.0000		9999	2360	0	0	0
2019/05/15 19:20:00	BASE	6.35	173	8.39	167	-4.6	75	-8.4	2	0	988.6	NA	0.0000		9999	2330	0	0	0
2019/05/15 19:21:00	BASE	6.62	174	8.33	174	-4.6	75	-8.3	2	0	988.7	NA	0.0000		9999	2360	0	0	0
2019/05/15 19:22:00	BASE	7.11	173	8.33	174	-4.6	75	-8.3	2	0	988.6	NA	0.0000		9999	2360	0	0	0
2019/05/15 19:23:00	BASE	6.99	168	8.33	174	-4.6	75	-8.4	2	0	988.7	NA	0.0000		9999	2400	0	0	0
2019/05/15 19:24:00	BASE	7.40	161	8.59	156	-4.6	75	-8.4	1	0	988.6	NA	0.0000		9999	2430	0	0	0
2019/05/15 19:25:00	BASE	7.53	156	8.59	156	-4.6	75	-8.4	1	0	988.7	NA	0.0000		9999	2260	0	0	0
2019/05/15 19:26:00	BASE	6.53	161	8.59	156	-4.6	75	-8.4	1	0	988.7	NA	0.0000		9999	2360	0	0	0
2019/05/15 19:27:00	BASE	5.50	168	8.59	156	-4.7	75	-8.4	1	0	988.7	NA	0.0000		9999	2330	0	0	0
2019/05/15 19:28:00	BASE	4.87	163	8.59	156	-4.7	75	-8.5	1	0	988.7	NA	0.0000		9999	2400	0	0	0
2019/05/15 19:29:00	BASE	4.00	157	8.59	156	-4.7	74	-8.6	1	0	988.7	NA	0.0000		9999	2360	0	0	0
2019/05/15 19:30:00	BASE	3.43	160	8.59	156	-4.7	74	-8.7	1	0	988.7	NA	0.0000		9999	2360	0	0	0
2019/05/15 19:31:00	BASE	3.60	164	8.59	156	-4.7	73	-8.7	1	0	988.7	NA	0.0000		9999	2360	0	0	0
2019/05/15 19:32:00	BASE	3.39	165	8.59	156	-4.7	73	-8.8	1	0	988.7	NA	0.0000		9999	2360	0	0	0
2019/05/15 19:33:00	BASE	3.20	167	8.59	156	-4.7	73	-8.8	1	0	988.7	NA	0.0000		9999	2430	0	0	0
2019/05/15 19:34:00	BASE	4.81	170	8.85	171	-4.7	73	-8.8	1	0	988.6	NA	0.0000		9999	2430	0	0	0
2019/05/15 19:35:00	BASE	6.74	173	8.85	171	-4.6	73	-8.7	1	0	988.5	NA	0.0000		9999	2360	0	0	0
2019/05/15 19:36:00	BASE	7.22	180	8.85	171	-4.6	73	-8.7	1	0	988.5	NA	0.0000		9999	2400	0	0	0
2019/05/15 19:37:00	BASE	6.96	183	8.85	171	-4.6	74	-8.6	1	0	988.5	NA	0.0000		9999	2400	0	0	0
2019/05/15 19:38:00	BASE	7.13	181	10.80	182	-4.6	74	-8.5	1	0	988.5	NA	0.0000		9999	2400	0	0	0
2019/05/15 19:39:00	BASE	8.28	187	10.80	182	-4.6	74	-8.5	1	0	988.5	NA	0.0000		9999	2330	0	0	0
2019/05/15 19:40:00	BASE	8.39	194	10.80	182	-4.7	75	-8.5	1	0	988.6	NA	0.0000		9999	2260	0	0	0
2019/05/15 19:41:00	BASE	7.31	196	10.80	182	-4.7	75	-8.5	1	0	988.7	NA	0.0000		9999	2260	0	0	0
2019/05/15 19:42:00	BASE	6.86	194	10.80	182	-4.7	75	-8.5	1	0	988.7	NA	0.0000		9999	2330	0	0	0
2019/05/15 19:43:00	BASE	6.07	189	10.80	182	-4.7	74	-8.6	1	0	988.7	NA	0.0000		9999	2400	0	0	0
2019/05/15 19:44:00	BASE	5.35	180	10.80	182	-4.7	74	-8.6	1	0	988.7	NA	0.0000		9999	2360	0	0	0
2019/05/15 19:45:00	BASE	5.53	170	10.80	182	-4.7	74	-8.6	0	0	988.7	NA	0.0000		9999	2300	0	0	0
2019/05/15 19:46:00	BASE	5.20	169	10.80	182	-4.7	74	-8.6	0	0	988.7	NA	0.0000		9999	2330	0	0	0
2019/05/15 19:47:00	BASE	4.66	171	10.80	182	-4.7	75	-8.5	0	0	988.7	NA	0.0000		9999	2170	0	0	0
2019/05/15 19:48:00	BASE	4.40	171	10.13	187	-4.7	75	-8.5	0	0	988.7	NA	0.0000		9999	2400	0	0	0
2019/05/15 19:49:00	BASE	4.07	180	9.05	197	-4.7	75	-8.5	0	0	988.7	NA	0.0000		9999	2430	0	0	0
2019/05/15 19:50:00	BASE	3.89	181	7.82	195	-4.7	74	-8.6	0	0	988.7	NA	0.0000		9999	2430	0	0	0
2019/05/15 19:51:00	BASE	4.09	180	7.82	195	-4.7	74	-8.6	0	0	988.6	NA	0.0000		9999	2490	0	0	0
2019/05/15 19:52:00	BASE	4.39	181	6.48	170	-4.7	74	-8.6	0	0	988.6	NA	0.0000		9999	2460	0	0	0
2019/05/15 19:53:00	BASE	5.46	182	7.25	192	-4.7	74	-8.6	0	0	988.6	NA	0.0000		9999	2360	0	0	0
2019/05/15 19:54:00	BASE	6.52	184	7.72	183	-4.7	74	-8.6	0	0	988.5	NA	0.0000		9999	2400	0	0	0
2019/05/15 19:55:00	BASE	6.34	179	7.72	183	-4.7	74	-8.6	0	0	988.5	NA	0.0000		9999	2300	0	0	0
2019/05/15 19:56:00	BASE	6.19	179	7.97	185	-4.8	74	-8.6	0	0	988.5	NA	0.0000		9999	2560	0	0	0
2019/05/15 19:57:00	BASE	6.36	183	7.97	185	-4.8	74	-8.6	0	0	988.6	NA	0.0000		9999	2300	0	0	0
2019/05/15 19:58:00	BASE	5.49	181	7.97	185	-4.8	74	-8.7	0	0	988.6	NA	0.0000		9999	2360	0	0	0
2019/05/15 19:59:00	BASE	3.94	171	7.97	185	-4.8	74	-8.7	0	0	988.7	NA	0.0000		9999	2330	0	0	0
2019/05/15 20:00:00	BASE	3.42	164	7.97	185	-4.8	74	-8.7	0	0	988.7	NA	0.0000		9999	2330	0	0	0
2019/05/15 20:01:00	BASE	3.42	167	7.97	185	-4.8	74	-8.7	0	0	988.7	NA	0.0000		9999	2200	0	0	0
2019/05/15 20:02:00	BASE	3.30	163	7.97	185	-4.8	74	-8.7	0	0	988.7	NA	0.0000		9999	2170	0	0	0
2019/05/15 20:03:00	BASE	3.62	158	7.97	185	-4.7	74	-8.6	0	0	988.7	NA	0.0000		9999	2230	0	0	0
2019/05/15 20:04:00	BASE	3.61	159	7.97	185	-4.7	74	-8.6	0	0	988.7	NA	0.0000		9999	2300	0	0	0
2019/05/15 20:05:00	BASE	2.96	156	7.97	185	-4.7	75	-8.5	0	0	988.7	NA	0.0000		9999	2300	0	0	0
2019/05/15 20:06:00	BASE	2.50	147	7.87	188	-4.7	75	-8.5	0	0	988.7	NA	0.0000		9999	2260	0	0	0
2019/05/15 20:07:00	BASE	2.06	151	5.61	191	-4.7	75	-8.5	0	0	988.7	NA	0.0000		9999	2300	0	0	0
2019/05/15 20:08:00	BASE	1.79	165	4.78	150	-4.7	75	-8.5	0	0	988.7	NA	0.0000		9999	2200	0	0	0
2019/05/15 20:09:00	BASE	1.80	175	4.78	150	-4.7	75	-8.5	0	0	988.7	NA	0.0000		9999	2170	0	0	0
2019/05/15 20:10:00	BASE	1.84	182	4.78	150	-4.7	75	-8.5	0	0	988.7	NA	0.0000		9999	2200	0	0	0
2019/05/15 20:11:01	BASE	2.17	173	4.78	150	-4.7	75	-8.5	0	0	988.7	NA	0.0000		9999	2200	0	0	0
2019/05/15 20:12:01	BASE	2.92	167	4.78	150	-4.7	75	-8.4	0	0	988.7	NA	0.0000		9999	2200	0	0	0
2019/05/15 20:13:01	BASE	3.79	178	4.89	187	-4.7	75	-8.4	0	0	988.7	NA	0.0000		9999	2230	0	0	0
2019/05/15 20:14:01	BASE	3.54	170	4.89	187	-4.7	76	-8.3	0	0	988.7	NA	0.0000		9999	2230	0	0	0
2019/05/15 20:15:01	BASE	2.92	141	4.89	187	-4.6	76	-8.3	0	0	988.7	NA	0.0000		9999	2260	0	0	0
2019/05/15 20:16:01	BASE	3.64	117	4.99	110	-4.6	76	-8.2	0	0	988.7	NA	0.0000		9999	2260	0	0	0
2019/05/15 20:17:01	BASE	4.15	109	4.99	110	-4.7	76	-8.2	0	0	988.7	NA	0.0000		9999	2260	0	0	0
2019/05/15 20:18:01	BASE	3.40	111	4.99	110	-4.7	76	-8.3	0	0	988.7	NA	0.0000		9999	2260	0	0	0
2019/05/15 20:19:01	BASE	2.50	117	4.99	110	-4.7	76	-8.3	0	0	988.7	NA	0.0000		9999	2260	0	0	0
2019/05/15 20:20:01	BASE	2.37	126	4.99	110	-4.8	76	-8.4	0	0	988.7	NA	0.0000		9999	2260	0	0	0
2019/05/15 20:21:01	BASE	2.56	138	4.99	110	-4.8	76	-8.4	0	0	988.7	NA	0.0000		9999	2300	0	0	0
2019/05/15 20:22:01	BASE	2.48	168	4.99	110	-4.8	76	-8.3	0	0	988.7	NA	0.0000		9999	2300	0	0	0
2019/05/15 20:23:01	BASE	2.60	191	5.40	200	-4.8	76	-8.3	0	0	988.7	NA	0.0000		9999	2330	0	0	0
2019/05/15 20:24:01	BASE	3.26	192	5.40	200	-4.8	77	-8.3	0	0	988.7	NA	0.0000		9999	2330	0	0	0
2019/05/15 20:25:01	BASE	4.64	191	6.12	193	-4.8	77	-8.2	0	0	988.7	NA	0.0000		9999	2260	0	0	0
2019/05/15 20:26:01	BASE	5.90	191	6.69	198	-4.7	77	-8.2	0	0	988.7	NA	0.0000		9999	2300	0	0	0
2019/05/15 20:27:01	BASE	6.91	195	8.85	204	-4.7	77	-8.2	0	0	988.7	NA	0.0000		9999	2260	0	0	0
2019/05/15 20:28:01	BASE	7.91	198	8.85	204	-4.7	77	-8.2	0	0	988.7	NA	0.0000		9999	2300	0	0	0
2019/05/15 20:29:01	BASE	7.73	201	8.85	204	-4.7	77	-8.2	0	0	988.7	NA	0.0000		9999	2300	0	0	0
2019/05/15 20:30:01	BASE	7.18	209	8.85	204	-4.7	76	-8.2	0	0	988.7	NA	0.0000		9999	2330	0	0	0
2019/05/15 20:31:01	BASE	7.71	216	8.85	225	-4.7	77	-8.2	0	0	988.7	NA	0.0000		9999	2300	0	0	0
2019/05/15 20:32:01	BASE	8.37	218	9.16	210	-4.7	76	-8.2	0	0	988.7	NA	0.0000		9999	2260	0	0	0
2019/05/15 20:33:01	BASE	7.73	223	9.16	210	-4.7	76	-8.3	0	0	988.7	NA	0.0000		9999	2260	0	0	0
2019/05/15 20:34:01	BASE	6.36	222	9.16	210	-4.8	76	-8.3	0	0	988.7	NA	0.0000		9999	2200	0	0	0
2019/05/15 20:35:01	BASE	4.78	218	9.16	210	-4.8	76	-8.3	0	0	988.7	NA	0.0000		9999	2130	0	0	0
2019/05/15 20:36:01	BASE	4.08	214	9.16	210	-4.8	76	-8.4	0	0	988.7	NA	0.0000		9999	2100	0	0	0
2019/05/15 20:37:01	BASE	3.29	200	9.16	210	-4.8	76	-8.5	0	0	988.7	NA	0.0000		9999	2130	0	0	0
2019/05/15 20:38:01	BASE	2.03	181	9.16	210	-4.8	75	-8.5	0	0	988.7	NA	0.0000		9999	2200	0	0	0
2019/05/15 20:39:00	BASE	1.84	149	9.16	210	-4.8	75	-8.5	0	0	988.7	NA	0.0000		9999	2170	0	0	0
2019/05/15 20:40:01	BASE	1.36	125	9.16	210	-4.8	75	-8.6	0	0	988.7	NA	0.0000		9999	2200	0	0	0
2019/05/15 20:41:00	BASE	0.92	109	9.16	210	-4.8	75	-8.6	0	0	988.8	NA	0.0000		9999	2200	0	0	0
2019/05/15 20:42:00	BASE	0.85	125	8.13	233	-4.8	75	-8.6	0	0	988.8	NA	0.0000		9999	2200	0	0	0
2019/05/15 20:43:01	BASE	1.13	144	6.94	209	-4.8	74	-8.7	0	0	988.9	NA	0.0000		9999	2200	0	0	0
2019/05/15 20:44:00	BASE	1.66	133	5.35	200	-4.8	74	-8.7	0	0	988.9	NA	0.0000		9999	2200	0	0	0
2019/05/15 20:45:01	BASE	1.92	132	5.35	200	-4.8	74	-8.7	0	0	988.9	NA	0.0000		9999	2170	0	0	0
2019/05/15 20:46:01	BASE	1.90	143	3.70	221	-4.8	74	-8.7	0	0	988.9	NA	0.0000		9999	2230	0	0	0
2019/05/15 20:47:00	BASE	1.21	161	2.52	104	-4.8	74	-8.6	0	0	988.9	NA	0.0000		9999	2260	0	0	0
2019/05/15 20:48:00	BASE	1.07	172	2.52	104	-4.8	75	-8.6	0	0	988.9	NA	0.0000		9999	2300	0	0	0
2019/05/15 20:49:00	BASE	1.66	187	2.42	134	-4.8	75	-8.6	0	0	989.0	NA	0.0000		9999	2300	0	0	0
2019/05/15 20:50:00	BASE	1.79	205	2.42	134	-4.8	75	-8.5	0	0	989.0	NA	0.0000		9999	2300	0	0	0
2019/05/15 20:51:00	BASE	1.88	213	5.30	287	-4.8	75	-8.5	0	0	989.0	NA	0.0000		9999	2260	0	0	0
2019/05/15 20:52:00	BASE	3.37	197	6.12	201	-4.8	76	-8.4	0	0	989.0	NA	0.0000		9999	2230	0	0	0
2019/05/15 20:53:00	BASE	4.91	196	6.12	201	-4.8	76	-8.4	0	0	989.0	NA	0.0000		9999	2230	0	0	0
2019/05/15 20:54:00	BASE	5.49	213	6.69	211	-4.8	76	-8.4	0	0	988.9	NA	0.0000		9999	2170	0	0	0
2019/05/15 20:55:00	BASE	6.02	214	7.25	222	-4.8	76	-8.3	0	0	988.9	NA	0.0000		9999	2170	0	0	0
2019/05/15 20:56:00	BASE	6.52	222	7.82	233	-4.7	76	-8.3	0	0	988.9	NA	0.0000		9999	2200	0	0	0
2019/05/15 20:57:00	BASE	6.41	229	7.82	233	-4.7	76	-8.3	0	0	988.9	NA	0.0000		9999	2230	0	0	0
2019/05/15 20:58:00	BASE	6.26	224	7.82	233	-4.7	76	-8.3	0	0	988.9	NA	0.0000		9999	2300	0	0	0
2019/05/15 20:59:00	BASE	7.26	218	9.21	219	-4.7	76	-8.3	0	0	988.9	NA	0.0000		9999	2360	0	0	0
2019/05/15 21:00:00	BASE	7.80	216	9.21	219	-4.7	76	-8.3	0	0	988.9	NA	0.0000		9999	2260	0	0	0
2019/05/15 21:01:00	BASE	7.06	218	9.21	219	-4.8	76	-8.4	0	0	989.0	NA	0.0000		9999	2200	0	0	0
2019/05/15 21:02:00	BASE	7.62	221	9.26	217	-4.8	76	-8.4	0	0	989.0	NA	0.0000		9999	2170	0	0	0
2019/05/15 21:03:00	BASE	8.36	222	9.26	217	-4.8	76	-8.4	0	0	989.0	NA	0.0000		9999	2300	0	0	0
2019/05/15 21:04:00	BASE	7.38	225	9.26	217	-4.8	75	-8.5	0	0	989.0	NA	0.0000		9999	2300	0	0	0
2019/05/15 21:05:00	BASE	6.99	231	9.26	217	-4.8	75	-8.5	0	0	989.0	NA	0.0000		9999	2200	0	0	0
2019/05/15 21:06:00	BASE	7.41	233	9.62	231	-4.8	75	-8.5	0	0	989.0	NA	0.0000		9999	2170	0	0	0
2019/05/15 21:07:00	BASE	7.74	232	9.62	231	-4.8	75	-8.6	0	0	989.0	NA	0.0000		9999	2030	0	0	0
2019/05/15 21:08:00	BASE	7.52	230	9.62	231	-4.8	75	-8.6	0	0	989.0	NA	0.0000		9999	2230	0	0	0
2019/05/15 21:09:00	BASE	6.50	231	9.62	231	-4.8	75	-8.6	0	0	989.0	NA	0.0000		9999	2230	0	0	0
2019/05/15 21:10:00	BASE	5.53	232	9.62	231	-4.8	75	-8.6	0	0	989.0	NA	0.0000		9999	2200	0	0	0
2019/05/15 21:11:00	BASE	5.54	229	9.62	231	-4.8	75	-8.6	0	0	989.0	NA	0.0000		9999	2230	0	0	0
2019/05/15 21:12:00	BASE	5.20	224	9.62	231	-4.9	75	-8.6	0	0	989.0	NA	0.0000		9999	2200	0	0	0
2019/05/15 21:13:00	BASE	3.94	225	9.62	231	-4.9	75	-8.6	0	0	989.0	NA	0.0000		9999	2200	0	0	0
2019/05/15 21:14:00	BASE	3.30	226	9.62	231	-4.9	75	-8.6	0	0	989.0	NA	0.0000		9999	2300	0	0	0
2019/05/15 21:15:00	BASE	3.83	222	9.62	231	-4.9	75	-8.6	0	0	989.0	NA	0.0000		9999	2300	0	0	0
2019/05/15 21:16:00	BASE	4.25	214	9.31	230	-4.9	75	-8.6	0	0	989.0	NA	0.0000		9999	2330	0	0	0
2019/05/15 21:17:00	BASE	5.38	203	7.92	231	-4.9	75	-8.6	0	0	988.9	NA	0.0000		9999	2330	0	0	0
2019/05/15 21:18:01	BASE	7.16	198	8.64	209	-4.8	75	-8.6	0	0	988.9	NA	0.0000		9999	2360	0	0	0
2019/05/15 21:19:00	BASE	7.37	204	8.64	209	-4.8	75	-8.6	0	0	988.9	NA	0.0000		9999	2360	0	0	0
2019/05/15 21:20:00	BASE	6.44	209	8.64	209	-4.8	75	-8.6	0	0	989.0	NA	0.0000		9999	2300	0	0	0
2019/05/15 21:21:00	BASE	4.89	213	8.64	209	-4.9	75	-8.6	0	0	989.0	NA	0.0000		9999	2300	0	0	0
2019/05/15 21:22:00	BASE	3.59	210	8.64	209	-4.9	75	-8.7	0	0	989.0	NA	0.0000		9999	2260	0	0	0
2019/05/15 21:23:00	BASE	3.23	195	8.64	209	-4.9	75	-8.8	0	0	989.0	NA	0.0000		9999	2260	0	0	0
2019/05/15 21:24:00	BASE	3.20	185	8.64	209	-5.0	74	-8.8	0	0	989.0	NA	0.0000		9999	2260	0	0	0
2019/05/15 21:25:00	BASE	3.79	174	8.64	209	-5.0	74	-8.8	0	0	989.0	NA	0.0000		9999	2230	0	0	0
2019/05/15 21:26:00	BASE	5.48	159	8.64	209	-5.0	74	-8.8	0	0	989.1	NA	0.0000		9999	2400	0	0	0
2019/05/15 21:27:00	BASE	6.34	155	8.64	209	-5.0	75	-8.8	0	0	989.1	NA	0.0000		9999	2360	0	0	0
2019/05/15 21:28:01	BASE	5.66	156	7.61	213	-5.0	75	-8.8	0	0	989.1	NA	0.0000		9999	2360	0	0	0
2019/05/15 21:29:00	BASE	4.77	156	7.56	153	-5.0	75	-8.7	0	0	989.1	NA	0.0000		9999	2360	0	0	0
2019/05/15 21:30:00	BASE	4.42	162	7.56	153	-5.0	75	-8.7	0	0	989.1	NA	0.0000		9999	2360	0	0	0
2019/05/15 21:31:01	BASE	4.74	174	7.56	153	-5.0	75	-8.7	0	0	989.1	NA	0.0000		9999	2430	0	0	0
2019/05/15 21:32:01	BASE	5.00	183	7.56	153	-5.0	75	-8.7	0	0	989.1	NA	0.0000		9999	2360	0	0	0
2019/05/15 21:33:01	BASE	5.40	191	7.56	153	-5.0	75	-8.7	0	0	989.1	NA	0.0000		9999	2260	0	0	0
2019/05/15 21:34:01	BASE	6.07	196	7.56	153	-5.0	75	-8.7	0	0	989.1	NA	0.0000		9999	2360	0	0	0
2019/05/15 21:35:01	BASE	6.69	191	7.67	191	-5.0	75	-8.8	0	0	989.1	NA	0.0000		9999	2490	0	0	0
2019/05/15 21:36:00	BASE	6.61	182	7.67	191	-5.0	75	-8.8	0	0	989.1	NA	0.0000		9999	0	0	0	0
2019/05/15 21:37:00	BASE	5.62	175	7.67	191	-5.0	74	-8.9	0	0	989.1	NA	0.0000		9999	0	0	0	0
2019/05/15 21:38:00	BASE	4.81	176	7.67	191	-5.0	74	-8.9	0	0	989.1	NA	0.0000		9999	2660	0	0	0
2019/05/15 21:39:00	BASE	4.65	180	7.67	191	-5.0	74	-8.9	0	0	989.1	NA	0.0000		9999	2530	0	0	0
2019/05/15 21:40:00	BASE	5.30	173	7.67	191	-5.0	74	-8.9	0	0	989.1	NA	0.0000		9999	2530	0	0	0
2019/05/15 21:43:00	BASE	M	M	10.70	230	-5.0	74	-8.9	0	0	M	NA	0.0000		9999	2490	0	0	0
2019/05/15 21:44:00	BASE	5.91	161	10.70	230	-5.0	74	-8.9	0	0	989.2	NA	0.0000		9999	2490	0	0	0
2019/05/15 21:45:00	BASE	5.27	161	10.70	230	-5.0	74	-8.9	0	0	989.2	NA	0.0000		9999	2530	0	0	0
2019/05/15 21:46:00	BASE	4.55	162	10.70	230	-5.0	74	-8.9	0	0	989.2	NA	0.0000		9999	2590	0	0	0
2019/05/15 21:47:00	BASE	4.42	162	10.70	230	-5.0	74	-9.0	0	0	989.2	NA	0.0000		9999	2560	0	0	0
2019/05/15 21:48:00	BASE	4.53	163	10.70	230	-5.0	73	-9.0	0	0	989.2	NA	0.0000		9999	2530	0	0	0
2019/05/15 21:49:00	BASE	4.89	170	10.70	230	-5.0	73	-9.0	0	0	989.1	NA	0.0000		9999	2560	0	0	0
2019/05/15 21:50:00	BASE	5.25	177	10.70	230	-5.0	73	-9.0	0	0	989.1	NA	0.0000		9999	2530	0	0	0
2019/05/15 21:51:00	BASE	5.26	177	7.20	161	-5.0	73	-9.0	0	0	989.1	NA	0.0000		9999	2530	0	0	0
2019/05/15 21:52:00	BASE	4.93	168	7.20	161	-5.0	73	-9.1	0	0	989.1	NA	0.0000		9999	2560	0	0	0
2019/05/15 21:53:00	BASE	4.74	156	7.20	161	-5.0	73	-9.1	0	0	989.1	NA	0.0000		9999	2590	0	0	0
2019/05/15 21:54:00	BASE	4.55	146	6.28	179	-5.0	73	-9.2	0	0	989.1	NA	0.0000		9999	2590	0	0	0
2019/05/15 21:55:00	BASE	3.96	141	6.28	179	-5.0	72	-9.2	0	0	989.1	NA	0.0000		9999	2660	0	0	0
2019/05/15 21:56:00	BASE	3.16	141	6.28	179	-5.0	72	-9.2	0	0	989.2	NA	0.0000		9999	0	0	0	0
2019/05/15 21:57:01	BASE	2.64	146	6.28	179	-5.0	72	-9.3	0	0	989.2	NA	0.0000		9999	2530	0	0	0
2019/05/15 21:58:00	BASE	2.39	157	6.28	179	-5.0	72	-9.3	0	0	989.2	NA	0.0000		9999	2560	0	0	0
2019/05/15 21:59:00	BASE	2.16	159	6.28	179	-5.0	72	-9.3	0	0	989.2	NA	0.0000		9999	2620	0	0	0
2019/05/15 22:00:00	BASE	2.06	155	5.81	175	-5.0	72	-9.2	0	0	989.2	NA	0.0000		9999	2590	0	0	0
2019/05/15 22:01:00	BASE	1.88	161	5.61	156	-5.0	72	-9.2	0	0	989.2	NA	0.0000		9999	2560	0	0	0
2019/05/15 22:02:00	BASE	1.92	172	5.50	152	-5.1	73	-9.2	0	0	989.2	NA	0.0000		9999	2620	0	0	0
2019/05/15 22:03:00	BASE	1.49	175	5.40	143	-5.1	73	-9.1	0	0	989.2	NA	0.0000		9999	2660	0	0	0
2019/05/15 22:04:00	BASE	0.97	165	4.17	144	-5.0	73	-9.1	0	0	989.2	NA	0.0000		9999	2530	0	0	0
2019/05/15 22:05:00	BASE	1.48	165	3.45	176	-5.0	73	-9.1	0	0	989.1	NA	0.0000		9999	2560	0	0	0
2019/05/15 22:06:00	BASE	2.24	170	3.45	176	-5.0	73	-9.1	0	0	989.1	NA	0.0000		9999	2560	0	0	0
2019/05/15 22:07:00	BASE	2.69	160	3.45	176	-5.0	73	-9.1	0	0	989.1	NA	0.0000		9999	2530	0	0	0
2019/05/15 22:08:00	BASE	3.01	163	3.76	179	-5.0	72	-9.2	0	0	989.1	NA	0.0000		9999	2530	0	0	0
2019/05/15 22:09:00	BASE	3.91	175	6.58	180	-5.0	72	-9.2	0	0	989.1	NA	0.0000		9999	2560	0	0	0
2019/05/15 22:10:00	BASE	5.23	184	7.00	195	-5.0	72	-9.2	0	0	989.1	NA	0.0000		9999	2530	0	0	0
2019/05/15 22:11:00	BASE	5.57	186	7.00	195	-5.0	72	-9.2	0	0	989.0	NA	0.0000		9999	2620	0	0	0
2019/05/15 22:12:00	BASE	4.58	171	7.00	195	-5.0	72	-9.2	0	0	989.0	NA	0.0000		9999	2620	0	0	0
2019/05/15 22:13:00	BASE	4.16	164	7.00	195	-5.0	72	-9.2	0	0	989.0	NA	0.0000		9999	2560	0	0	0
2019/05/15 22:14:00	BASE	4.38	168	7.00	195	-5.0	72	-9.2	0	0	988.9	NA	0.0000		9999	2590	0	0	0
2019/05/15 22:15:00	BASE	4.53	177	7.00	195	-5.0	72	-9.2	0	0	988.9	NA	0.0000		9999	2490	0	0	0
2019/05/15 22:16:00	BASE	4.68	179	7.00	195	-5.0	72	-9.2	0	0	988.9	NA	0.0000		9999	2590	0	0	0
2019/05/15 22:17:00	BASE	4.78	179	7.00	195	-5.0	72	-9.2	0	0	988.9	NA	0.0000		9999	2560	0	0	0
2019/05/15 22:18:00	BASE	4.56	187	7.00	195	-5.0	72	-9.2	0	0	988.9	NA	0.0000		9999	2530	0	0	0
2019/05/15 22:19:00	BASE	4.44	199	7.00	195	-5.0	72	-9.2	0	0	988.9	NA	0.0000		9999	2490	0	0	0
2019/05/15 22:20:00	BASE	5.09	209	7.15	216	-5.0	72	-9.2	0	0	988.9	NA	0.0000		9999	2430	0	0	0
2019/05/15 22:21:01	BASE	6.09	197	9.00	214	-5.0	72	-9.2	0	0	988.9	NA	0.0000		9999	2460	0	0	0
2019/05/15 22:22:01	BASE	5.83	172	9.00	214	-4.9	73	-9.1	0	0	989.0	NA	0.0000		9999	2490	0	0	0
2019/05/15 22:23:01	BASE	4.89	164	9.00	214	-4.9	73	-9.1	0	0	989.0	NA	0.0000		9999	2530	0	0	0
2019/05/15 22:24:01	BASE	4.27	162	9.00	214	-5.0	73	-9.0	0	0	989.0	NA	0.0000		9999	2490	0	0	0
2019/05/15 22:25:01	BASE	4.22	167	9.00	214	-5.0	73	-9.0	0	0	989.0	NA	0.0000		9999	0	0	0	0
2019/05/15 22:26:00	BASE	4.62	177	9.00	214	-5.0	74	-9.0	0	0	989.1	NA	0.0000		9999	0	0	0	0
2019/05/15 22:27:00	BASE	4.61	180	9.00	214	-5.1	74	-9.0	0	0	989.1	NA	0.0000		9999	0	0	0	0
2019/05/15 22:28:01	BASE	4.54	183	9.00	214	-5.1	74	-9.0	0	0	989.1	NA	0.0000		9999	0	0	0	0
2019/05/15 22:29:00	BASE	4.09	203	9.00	214	-5.1	74	-9.1	0	0	989.1	NA	0.0000		9999	0	0	0	0
2019/05/15 22:30:01	BASE	3.62	230	9.00	214	-5.1	74	-9.1	0	0	989.1	NA	0.0000		9999	0	0	0	0
2019/05/15 22:31:00	BASE	3.17	251	6.02	163	-5.1	73	-9.1	0	0	989.1	NA	0.0000		9999	2460	0	0	0
2019/05/15 22:32:01	BASE	2.43	270	5.45	169	-5.1	73	-9.2	0	0	989.1	NA	0.0000		9999	2530	0	0	0
2019/05/15 22:33:00	BASE	1.81	268	5.35	184	-5.1	72	-9.3	0	0	989.1	NA	0.0000		9999	2560	0	0	0
2019/05/15 22:34:00	BASE	1.53	256	5.35	184	-5.0	72	-9.3	0	0	989.1	NA	0.0000		9999	2560	0	0	0
2019/05/15 22:35:01	BASE	1.51	241	5.35	184	-5.0	72	-9.4	0	0	989.1	NA	0.0000		9999	2460	0	0	0
2019/05/15 22:36:01	BASE	0.91	210	5.20	189	-5.0	71	-9.5	0	0	989.1	NA	0.0000		9999	2460	0	0	0
2019/05/15 22:37:00	BASE	0.50	170	5.20	189	-5.1	71	-9.5	0	0	989.1	NA	0.0000		9999	2460	0	0	0
2019/05/15 22:38:01	BASE	1.48	149	4.48	240	-5.1	71	-9.5	0	0	989.1	NA	0.0000		9999	2430	0	0	0
2019/05/15 22:39:00	BASE	2.25	138	4.48	240	-5.1	72	-9.4	0	0	989.1	NA	0.0000		9999	2460	0	0	0
2019/05/15 22:40:01	BASE	2.17	131	3.45	262	-5.1	72	-9.4	0	0	989.2	NA	0.0000		9999	2490	0	0	0
2019/05/15 22:41:00	BASE	2.19	132	2.83	127	-5.1	72	-9.3	0	0	989.2	NA	0.0000		9999	2460	0	0	0
2019/05/15 22:42:00	BASE	2.68	136	3.96	147	-5.1	72	-9.3	0	0	989.2	NA	0.0000		9999	2400	0	0	0
2019/05/15 22:43:00	BASE	3.20	144	3.96	147	-5.1	72	-9.3	0	0	989.1	NA	0.0000		9999	2400	0	0	0
2019/05/15 22:44:01	BASE	3.19	151	3.96	147	-5.1	73	-9.2	0	0	989.1	NA	0.0000		9999	2430	0	0	0
2019/05/15 22:45:00	BASE	3.27	151	4.01	150	-5.1	73	-9.2	0	0	989.1	NA	0.0000		9999	2430	0	0	0
2019/05/15 22:46:01	BASE	3.37	147	4.01	150	-5.1	73	-9.1	0	0	989.1	NA	0.0000		9999	2490	0	0	0
2019/05/15 22:47:00	BASE	3.11	150	4.01	150	-5.0	73	-9.1	0	0	989.1	NA	0.0000		9999	2530	0	0	0
2019/05/15 22:48:00	BASE	2.73	157	4.01	150	-5.0	73	-9.1	0	0	989.1	NA	0.0000		9999	2460	0	0	0
2019/05/15 22:49:00	BASE	2.62	147	4.01	150	-5.0	73	-9.2	0	0	989.1	NA	0.0000		9999	2490	0	0	0
2019/05/15 22:50:01	BASE	3.28	134	4.42	137	-5.0	73	-9.2	0	0	989.1	NA	0.0000		9999	2460	0	0	0
2019/05/15 22:51:00	BASE	4.15	133	4.78	134	-5.1	73	-9.2	0	0	989.1	NA	0.0000		9999	2400	0	0	0
2019/05/15 22:52:00	BASE	4.44	134	4.78	134	-5.1	73	-9.2	0	0	989.1	NA	0.0000		9999	2430	0	0	0
2019/05/15 22:53:01	BASE	4.16	135	4.78	134	-5.1	73	-9.2	0	0	989.1	NA	0.0000		9999	2400	0	0	0
2019/05/15 22:54:01	BASE	4.71	139	6.48	145	-5.2	74	-9.1	0	0	989.0	NA	0.0000		9999	2330	0	0	0
2019/05/15 22:55:01	BASE	5.18	143	6.48	145	-5.2	74	-9.1	0	0	989.1	NA	0.0000		9999	2360	0	0	0
2019/05/15 22:56:00	BASE	4.74	145	6.48	145	-5.1	74	-9.0	0	0	989.1	NA	0.0000		9999	2360	0	0	0
2019/05/15 22:57:00	BASE	4.54	140	6.48	145	-5.1	74	-9.0	0	0	989.1	NA	0.0000		9999	2300	0	0	0
2019/05/15 22:58:00	BASE	4.39	132	6.48	145	-5.1	75	-8.9	0	0	989.1	NA	0.0000		9999	2260	0	0	0
2019/05/15 22:59:00	BASE	3.93	133	6.48	145	-5.1	75	-8.9	0	0	989.1	NA	0.0000		9999	2330	0	0	0
2019/05/15 23:00:01	BASE	3.18	130	6.48	145	-5.1	75	-8.9	0	0	989.1	NA	0.0000		9999	2360	0	0	0
2019/05/15 23:01:00	BASE	3.16	124	6.48	145	-5.2	75	-8.9	0	0	989.1	NA	0.0000		9999	2300	0	0	0
2019/05/15 23:02:01	BASE	3.47	122	6.48	145	-5.2	75	-8.9	0	0	989.1	NA	0.0000		9999	2330	0	0	0
2019/05/15 23:03:00	BASE	3.70	116	6.48	145	-5.2	75	-8.9	0	0	989.1	NA	0.0000		9999	2260	0	0	0
2019/05/15 23:04:01	BASE	4.70	121	6.43	127	-5.2	75	-8.9	0	0	989.1	NA	0.0000		9999	2100	0	0	0
2019/05/15 23:05:01	BASE	5.27	129	6.43	127	-5.2	75	-8.9	0	0	989.1	NA	0.0000		9999	2200	0	0	0
2019/05/15 23:06:01	BASE	4.59	132	6.43	127	-5.2	75	-8.9	0	0	989.1	NA	0.0000		9999	2300	0	0	0
2019/05/15 23:07:00	BASE	3.23	135	6.43	127	-5.1	75	-8.9	0	0	989.0	NA	0.0000		9999	2300	0	0	0
2019/05/15 23:08:01	BASE	2.16	129	6.43	127	-5.1	75	-8.9	0	0	989.0	NA	0.0000		9999	2300	0	0	0
2019/05/15 23:09:00	BASE	2.29	124	6.43	127	-5.1	75	-8.8	0	0	989.0	NA	0.0000		9999	2260	0	0	0
2019/05/15 23:10:00	BASE	3.03	121	6.43	127	-5.1	75	-8.8	0	0	989.0	NA	0.0000		9999	2230	0	0	0
2019/05/15 23:11:00	BASE	3.76	116	6.43	127	-5.1	75	-8.9	0	0	989.0	NA	0.0000		9999	2200	0	0	0
2019/05/15 23:12:01	BASE	3.90	116	6.43	127	-5.2	75	-8.9	0	0	989.0	NA	0.0000		9999	2200	0	0	0
2019/05/15 23:13:01	BASE	3.12	117	6.43	127	-5.2	75	-8.9	0	0	989.0	NA	0.0000		9999	2200	0	0	0
2019/05/15 23:14:00	BASE	2.30	126	6.33	132	-5.2	75	-8.9	0	0	989.0	NA	0.0000		9999	2170	0	0	0
2019/05/15 23:15:01	BASE	2.03	131	4.78	116	-5.3	75	-8.9	0	0	989.1	NA	0.0000		9999	2170	0	0	0
2019/05/15 23:16:01	BASE	2.01	123	4.78	116	-5.3	76	-8.9	0	0	989.1	NA	0.0000		9999	2030	0	0	0
2019/05/15 23:17:00	BASE	1.84	113	4.78	116	-5.3	76	-8.9	0	0	989.1	NA	0.0000		9999	2070	0	0	0
2019/05/15 23:18:01	BASE	1.33	110	4.78	116	-5.2	76	-8.8	0	0	989.1	NA	0.0000		9999	2100	0	0	0
2019/05/15 23:19:00	BASE	0.65	111	4.78	116	-5.2	76	-8.8	0	0	989.1	NA	0.0000		9999	2170	0	0	0
2019/05/15 23:20:01	BASE	0.33	110	4.78	116	-5.2	76	-8.7	0	0	989.1	NA	0.0000		9999	2130	0	0	0
2019/05/15 23:21:00	BASE	0.65	107	4.22	126	-5.1	76	-8.7	0	0	989.1	NA	0.0000		9999	2230	0	0	0
2019/05/15 23:22:00	BASE	1.34	108	3.19	112	-5.1	76	-8.8	0	0	989.1	NA	0.0000		9999	2230	0	0	0
2019/05/15 23:23:01	BASE	2.33	121	3.40	135	-5.1	75	-8.8	0	0	989.1	NA	0.0000		9999	2260	0	0	0
2019/05/15 23:24:01	BASE	3.31	131	4.12	127	-5.1	75	-8.8	0	0	989.1	NA	0.0000		9999	2260	0	0	0
2019/05/15 23:25:01	BASE	3.97	133	5.66	135	-5.1	75	-8.8	0	0	989.1	NA	0.0000		9999	2230	0	0	0
2019/05/15 23:26:01	BASE	4.88	140	6.33	150	-5.1	75	-8.8	0	0	989.1	NA	0.0000		9999	2230	0	0	0
2019/05/15 23:27:00	BASE	5.45	152	6.33	171	-5.1	75	-8.8	0	0	989.1	NA	0.0000		9999	2230	0	0	0
2019/05/15 23:28:01	BASE	4.77	169	6.33	171	-5.1	76	-8.8	0	0	989.2	NA	0.0000		9999	2170	0	0	0
2019/05/15 23:29:00	BASE	3.60	175	6.33	171	-5.1	76	-8.7	0	0	989.2	NA	0.0000		9999	2230	0	0	0
2019/05/15 23:30:01	BASE	2.45	171	6.33	171	-5.1	76	-8.7	0	0	989.2	NA	0.0000		9999	2130	0	0	0
2019/05/15 23:31:00	BASE	1.44	159	6.33	171	-5.1	76	-8.7	0	0	989.2	NA	0.0000		9999	2100	0	0	0
2019/05/15 23:32:00	BASE	1.18	133	6.33	171	-5.1	76	-8.7	0	0	989.2	NA	0.0000		9999	2130	0	0	0
2019/05/15 23:33:00	BASE	1.86	121	6.33	171	-5.1	75	-8.8	0	0	989.2	NA	0.0000		9999	2260	0	0	0
2019/05/15 23:34:01	BASE	3.11	125	6.33	171	-5.1	75	-8.8	0	0	989.1	NA	0.0000		9999	2170	0	0	0
2019/05/15 23:35:01	BASE	4.29	127	6.33	171	-5.1	75	-8.9	0	0	989.1	NA	0.0000		9999	2100	0	0	0
2019/05/15 23:36:01	BASE	5.38	129	6.84	136	-5.2	75	-8.9	0	0	989.1	NA	0.0000		9999	2170	0	0	0
2019/05/15 23:37:00	BASE	5.36	129	6.84	136	-5.2	75	-8.8	0	0	989.1	NA	0.0000		9999	2130	0	0	0
2019/05/15 23:38:01	BASE	4.73	131	6.84	136	-5.2	76	-8.8	0	0	989.1	NA	0.0000		9999	2070	0	0	0
2019/05/15 23:39:01	BASE	4.73	136	6.84	136	-5.2	76	-8.8	0	0	989.1	NA	0.0000		9999	2070	0	0	0
2019/05/15 23:40:00	BASE	4.74	136	6.84	136	-5.2	76	-8.8	0	0	989.1	NA	0.0000		9999	2030	0	0	0
2019/05/15 23:41:00	BASE	4.73	136	6.84	136	-5.2	76	-8.7	0	0	989.1	NA	0.0000		9999	2100	0	0	0
2019/05/15 23:42:01	BASE	4.35	142	6.84	136	-5.2	76	-8.7	0	0	989.1	NA	0.0000		9999	2100	0	0	0
2019/05/15 23:43:00	BASE	4.38	155	6.84	136	-5.3	77	-8.7	0	0	989.1	NA	0.0000		9999	2130	0	0	0
2019/05/15 23:44:01	BASE	5.38	162	8.90	161	-5.3	77	-8.7	0	0	989.1	NA	0.0000		9999	2130	0	0	0
2019/05/15 23:45:00	BASE	7.14	163	9.36	169	-5.2	77	-8.6	0	0	989.1	NA	0.0000		9999	2100	0	0	0
2019/05/15 23:46:01	BASE	8.48	165	9.36	169	-5.2	77	-8.6	0	0	989.1	NA	0.0000		9999	2030	0	0	0
2019/05/15 23:47:00	BASE	8.35	170	9.36	169	-5.2	78	-8.5	0	0	989.1	NA	0.0000		9999	1940	0	0	0
2019/05/15 23:48:01	BASE	7.13	168	9.36	169	-5.2	78	-8.5	0	0	989.1	NA	0.0000		9999	2000	0	0	0
2019/05/15 23:49:00	BASE	6.37	161	9.36	169	-5.2	78	-8.4	0	0	989.1	NA	0.0000		9999	0	0	0	0
2019/05/15 23:50:00	BASE	6.94	155	9.36	169	-5.2	78	-8.4	0	0	989.1	NA	0.0000		9999	0	0	0	0
2019/05/15 23:51:00	BASE	7.27	154	9.36	169	-5.2	79	-8.3	0	0	989.1	NA	0.0000		9999	0	0	0	0
2019/05/15 23:52:01	BASE	6.53	153	9.36	169	-5.2	79	-8.3	0	0	989.1	NA	0.0000		9999	2100	0	0	0
2019/05/15 23:53:00	BASE	6.17	144	9.36	169	-5.2	79	-8.3	0	0	989.1	NA	0.0000		9999	2070	0	0	0
2019/05/15 23:54:01	BASE	6.33	138	9.36	169	-5.2	79	-8.3	0	0	989.1	NA	0.0000		9999	0	0	0	0
2019/05/15 23:55:01	BASE	6.22	134	9.11	165	-5.2	79	-8.3	0	0	989.2	NA	0.0000		9999	0	0	0	0
2019/05/15 23:56:00	BASE	5.56	134	8.95	179	-5.3	79	-8.3	0	0	989.2	NA	0.0000		9999	2070	0	0	0
2019/05/15 23:57:00	BASE	4.49	131	8.49	152	-5.3	79	-8.3	0	0	989.1	NA	0.0000		9999	2100	0	0	0
2019/05/15 23:58:01	BASE	4.38	127	8.49	152	-5.3	79	-8.3	0	0	989.1	NA	0.0000		9999	2100	0	0	0
2019/05/15 23:59:00	BASE	4.76	137	8.49	152	-5.3	79	-8.3	0	0	989.1	NA	0.0000		9999	2100	0	0	0